GFSSW_500_rhum_000.txt.gz
RH
34 27 15 15 22 32 44 51 68 59 56 57 51 50 51 46 39 32 25 24 24 25 26 31 27 56 66 16 19 38 28 26 41 46 50 50 71 93 81 65 65 67 47 39 38
65 56 45 40 22 11 20 38 48 58 59 52 52 49 52 50 42 31 28 32 26 23 25 28 30 55 67 22 19 40 27 30 45 52 56 49 71 77 79 75 62 56 42 39 33
55 46 48 51 49 38 24 8 31 45 46 49 47 48 52 50 40 30 33 33 27 26 26 30 33 36 66 27 17 41 28 26 41 50 51 47 62 64 69 62 50 42 41 41 42
50 55 73 100 98 78 60 27 7 26 38 41 42 42 44 46 35 33 34 32 29 30 26 34 36 29 74 30 15 40 35 25 36 44 47 50 53 50 45 47 44 46 36 42 39
59 66 79 90 98 100 97 87 47 16 16 31 36 36 35 34 36 35 33 31 32 31 27 31 40 36 79 32 14 43 44 28 28 35 45 46 46 46 44 45 41 44 38 35 34
82 82 75 98 86 80 91 83 54 37 17 12 21 30 28 23 31 34 33 26 30 32 31 29 40 35 75 36 14 39 46 37 42 38 32 35 36 37 42 43 40 35 36 32 28
79 91 86 88 88 100 95 80 67 55 77 61 18 11 17 16 23 24 30 24 25 35 35 36 44 35 58 41 13 32 48 48 46 49 62 77 61 63 73 53 46 35 30 26 28
95 84 99 87 75 73 72 66 67 100 67 68 65 25 14 18 15 16 23 36 27 46 44 53 55 35 58 45 10 28 45 51 49 52 46 43 56 50 51 48 63 41 32 32 56
99 100 100 96 93 90 100 89 96 97 68 79 88 60 45 41 44 25 22 40 34 64 42 82 57 58 75 48 11 22 35 43 38 39 29 31 32 42 45 52 67 63 59 52 42
88 96 100 100 100 99 97 100 100 100 86 92 87 85 95 82 96 72 76 58 64 90 79 68 56 68 80 44 9 14 28 32 30 27 22 30 38 41 44 54 60 61 51 41 37
91 80 99 92 100 98 100 100 100 98 99 88 90 100 93 100 100 90 72 75 99 94 66 62 63 54 86 38 7 15 32 32 26 24 14 28 39 42 42 47 51 51 39 39 35
94 87 81 89 98 98 98 99 100 98 100 100 98 97 89 94 91 93 100 98 96 93 84 84 75 74 91 23 7 14 22 23 28 18 11 28 43 45 41 45 42 40 37 36 35
93 94 96 76 98 98 99 98 99 99 98 98 96 98 96 98 93 89 97 100 98 91 88 88 90 88 75 12 5 14 17 28 27 17 12 19 43 44 40 38 38 37 34 32 30
91 88 79 88 97 98 98 99 98 98 96 98 98 99 98 97 94 84 95 88 96 97 100 96 84 70 26 3 5 12 17 17 11 10 12 14 30 41 45 42 39 38 35 28 11
87 95 97 96 97 97 98 99 96 97 97 99 98 96 96 95 97 92 97 97 99 95 92 78 74 29 5 2 4 6 14 10 8 7 7 15 22 27 31 29 23 12 8 3 0
83 95 96 98 94 98 98 97 96 97 94 97 97 97 97 98 97 96 97 97 98 94 95 45 31 6 2 1 2 2 3 3 5 6 8 11 16 17 19 14 5 3 3 6 9
82 96 95 96 90 86 97 96 95 93 95 96 97 95 98 97 97 96 94 95 83 88 35 16 7 4 2 2 1 1 2 5 8 10 10 11 12 11 10 2 2 4 4 4 5
97 97 96 83 95 85 96 92 96 94 86 96 96 97 97 95 96 95 94 88 46 32 18 9 5 3 3 3 3 4 6 7 9 9 10 9 6 5 3 4 4 7 11 16 21
96 94 83 88 94 96 96 97 97 86 92 91 96 97 97 95 90 90 83 54 34 23 14 8 7 4 4 4 4 4 6 8 8 8 6 5 8 7 9 22 28 27 25 28 32
76 97 99 98 94 82 92 88 96 95 90 87 96 97 94 96 94 66 67 56 30 25 19 13 14 7 7 8 8 13 14 14 13 13 17 17 22 28 27 34 38 44 44 50 49
49 73 90 81 91 82 74 78 86 82 89 96 98 95 96 94 96 88 58 64 31 33 31 26 23 23 20 20 19 19 19 20 21 23 27 28 42 52 48 46 47 44 41 38 32
56 51 54 72 77 85 76 75 82 68 79 79 90 96 96 98 96 96 92 90 72 46 39 38 32 28 24 22 23 28 33 38 40 40 47 46 47 47 45 41 36 32 28 22 18
45 39 45 49 70 67 75 83 92 79 76 87 90 93 95 95 98 98 96 96 96 95 89 68 44 36 30 30 33 42 50 52 54 52 50 46 39 35 32 28 23 19 16 15 18
51 43 58 58 58 64 62 65 90 97 81 86 90 91 89 94 92 93 89 90 94 93 92 82 71 64 59 68 66 63 63 60 53 40 33 32 29 27 26 20 19 22 20 28 29
50 41 66 46 72 78 76 64 66 71 91 95 94 85 83 86 87 96 96 96 96 95 96 92 88 83 81 77 70 64 48 36 34 25 29 26 22 26 23 34 52 48 38 32 20
45 52 56 57 69 74 79 80 74 75 78 78 78 80 82 77 73 75 79 83 82 73 68 61 57 57 51 48 45 39 28 27 25 25 23 29 43 46 45 47 38 30 18 10 9
44 32 59 68 67 69 74 78 76 74 65 63 59 48 42 42 42 42 40 41 40 36 32 30 29 28 27 26 26 26 32 38 46 59 53 48 39 35 29 18 12 12 13 12 11

GFSSW_500_rhum_003.txt.gz
RH
42 40 34 29 21 30 16 33 56 54 59 61 43 37 49 47 52 48 33 30 27 25 34 32 28 25 24 21 34 17 16 36 26 26 42 48 52 51 57 63 58 69 70 76 61
50 40 36 30 22 19 36 26 24 48 54 58 61 52 50 52 52 44 42 38 31 23 26 31 30 28 27 23 32 31 14 33 26 30 37 39 44 54 64 50 55 53 71 58 41
69 38 31 28 22 24 38 49 29 21 37 47 62 62 57 52 49 44 46 39 35 24 26 26 22 24 31 27 25 38 13 35 24 33 36 36 48 70 75 83 66 58 66 56 44
78 36 44 39 66 90 55 55 47 22 21 38 54 69 58 51 47 57 53 46 38 28 24 24 23 23 36 32 26 41 16 36 25 30 42 47 57 62 66 71 68 59 52 47 45
52 43 59 52 46 87 97 77 54 42 20 22 48 61 66 42 50 54 54 50 42 31 24 25 23 28 28 38 25 35 17 37 26 28 45 49 51 53 55 51 48 46 44 41 42
96 56 58 54 69 78 66 90 87 50 35 15 33 52 56 42 65 51 55 52 40 37 31 27 24 29 37 40 27 36 18 36 26 26 42 46 49 47 50 47 45 43 39 35 35
100 81 80 70 94 100 100 98 100 91 40 21 17 43 40 41 66 56 50 49 42 36 36 35 32 28 33 41 30 41 19 37 32 26 32 45 44 42 43 42 40 42 39 32 30
91 99 100 70 69 100 100 100 96 74 49 25 11 26 40 44 51 49 51 50 42 44 41 53 59 29 32 36 29 50 19 37 40 35 38 29 36 59 47 50 59 48 38 33 27
76 84 97 100 63 72 91 87 83 69 60 67 15 21 29 40 42 43 45 45 44 44 72 100 50 27 34 42 24 44 19 30 40 39 42 52 54 49 45 44 47 48 42 20 19
79 82 80 87 100 100 100 99 100 100 88 100 48 20 24 30 35 39 40 41 40 45 39 68 84 40 30 41 31 53 23 27 44 48 48 46 39 29 20 34 41 49 57 62 58
73 89 81 74 82 99 100 100 100 100 92 67 49 48 32 27 29 33 36 39 38 40 37 30 40 23 29 48 45 37 27 17 41 49 40 26 30 26 31 37 41 50 58 59 51
66 87 89 72 93 97 98 100 97 70 72 78 100 100 100 80 35 28 48 64 33 32 32 30 25 26 54 52 33 34 30 13 35 36 32 23 24 23 28 40 42 47 49 49 44
79 95 97 94 94 95 97 99 100 98 98 100 100 100 100 94 82 53 77 56 48 34 28 25 25 43 51 48 37 56 27 12 26 26 26 26 17 16 40 45 41 44 42 40 37
93 97 97 96 98 97 97 94 98 100 97 99 100 100 100 98 94 89 94 96 83 67 67 70 86 57 51 44 61 71 18 9 15 15 20 26 24 17 31 44 42 39 38 39 38
99 90 97 91 97 99 98 98 99 98 98 98 99 95 96 99 98 97 97 99 85 85 94 81 69 59 51 67 57 62 12 7 14 17 25 15 16 18 22 32 44 39 33 26 15
98 96 97 98 98 98 98 97 97 88 93 94 81 91 98 97 94 92 86 98 92 96 98 88 80 66 73 75 75 31 4 5 10 18 26 11 10 14 18 23 27 22 16 9 3
99 98 96 97 96 97 98 95 95 87 90 98 86 98 98 96 84 89 91 94 90 97 92 86 84 85 84 75 40 3 2 5 8 13 12 10 12 13 12 13 11 7 2 3 4
98 94 97 96 97 97 97 98 96 92 92 95 96 93 98 95 87 94 93 96 100 100 77 83 88 79 60 39 3 1 1 2 4 6 5 6 6 6 8 8 5 2 3 8 17
90 94 99 99 96 96 97 97 96 98 96 95 97 100 99 100 78 95 76 94 96 96 96 90 58 43 30 5 2 1 0 1 2 4 6 8 9 8 5 3 4 12 20 31 41
81 91 98 97 93 95 98 97 97 98 96 97 97 96 95 97 84 98 96 96 97 86 75 33 12 13 9 3 2 2 3 5 7 8 8 10 16 10 17 23 26 28 45 48 45
75 80 94 98 95 88 86 97 97 96 97 96 96 94 96 95 97 96 94 94 80 53 23 17 11 6 4 4 4 5 6 8 14 14 18 23 26 33 48 50 47 45 43 38 30
45 47 65 89 90 88 86 100 94 97 96 96 96 97 96 92 96 96 96 81 46 29 16 12 11 6 8 8 13 16 21 24 27 30 42 50 52 51 47 43 40 39 34 23 20
56 41 46 68 80 77 91 100 94 86 96 98 98 99 98 98 88 93 92 66 47 40 43 26 23 26 20 25 24 26 32 41 49 54 52 49 43 43 39 35 32 27 25 24 25
58 43 50 60 68 75 77 95 96 82 85 92 90 94 93 96 96 87 79 75 71 56 50 52 52 44 46 52 52 49 53 57 56 55 42 38 36 36 34 33 32 28 29 42 45
55 51 54 58 65 64 86 96 88 92 97 96 97 95 96 92 94 97 95 96 94 96 94 87 85 83 76 75 71 73 63 58 51 37 41 36 34 48 34 35 41 41 42 36 23
48 61 65 68 67 78 77 85 88 96 97 95 96 98 100 99 97 96 95 95 98 94 93 93 91 83 82 75 63 43 40 35 32 33 33 37 48 36 32 24 13 12 14 13 13
39 59 56 79 84 88 91 83 90 96 97 95 95 95 96 93 96 95 95 90 91 87 80 72 62 55 52 39 33 33 36 37 41 51 39 25 15 13 12 14 13 13 13 14 16

GFSSW_500_rhum_006.txt.gz
RH
51 58 27 31 54 52 37 25 22 55 64 65 68 56 38 40 43 42 36 39 47 43 35 38 35 30 27 21 18 25 34 10 25 32 21 22 24 79 75 69 48 57 69 68 76
44 46 34 31 62 61 54 48 32 21 41 60 75 73 59 38 39 40 39 47 50 44 37 34 37 32 30 21 18 19 35 11 23 32 24 19 28 61 52 53 48 58 75 70 69
38 41 45 38 56 68 58 41 40 31 22 40 63 83 73 56 34 38 40 47 56 47 42 32 33 26 27 21 19 20 36 22 15 31 25 19 35 43 48 59 54 59 59 63 68
44 52 48 66 51 35 33 33 31 32 24 20 50 73 80 72 42 44 39 49 61 55 45 31 26 25 30 24 22 21 26 38 15 31 26 28 33 40 49 74 53 56 73 76 65
52 44 50 38 30 34 48 45 36 29 22 26 24 57 72 65 56 48 43 51 59 55 46 33 26 27 30 32 25 23 25 36 16 28 30 33 37 40 62 65 65 68 60 54 51
56 51 52 60 62 66 56 56 46 90 38 30 34 32 60 56 92 53 55 56 54 55 44 35 29 29 33 28 22 25 24 39 19 29 33 32 48 44 56 56 60 56 52 48 46
56 82 63 99 72 80 95 100 70 63 99 36 46 31 45 61 89 64 55 56 57 58 43 43 34 26 29 27 25 28 24 38 23 28 35 28 50 49 50 51 50 50 45 47 44
64 62 98 99 99 71 82 95 85 69 100 67 60 33 32 58 86 65 61 63 60 61 48 45 36 32 31 28 28 27 23 36 30 24 38 24 41 45 46 46 45 44 46 43 43
74 79 91 100 100 73 77 95 98 96 93 81 69 32 22 42 76 71 62 63 65 64 52 41 41 36 33 28 26 28 25 39 31 23 38 26 33 35 37 42 43 42 40 36 34
79 96 96 99 100 100 100 100 100 100 87 95 88 35 23 32 70 75 62 66 64 66 61 56 51 39 33 27 22 31 29 36 35 20 38 36 41 45 55 48 36 29 37 45 50
93 92 98 98 100 100 99 100 100 100 94 94 62 38 28 32 53 73 70 69 69 76 62 51 61 39 30 26 42 33 26 33 38 20 40 43 45 48 46 32 19 36 40 46 56
94 95 95 97 95 95 100 100 100 100 99 100 100 46 35 27 38 61 71 67 64 60 63 54 46 38 41 56 36 36 30 33 45 17 36 51 51 37 24 28 35 36 41 46 54
93 97 98 96 96 94 98 89 80 98 77 82 84 67 34 26 34 44 55 59 58 60 51 49 48 80 50 49 25 30 32 31 50 21 18 43 51 34 23 18 37 44 46 50 49
94 98 97 98 99 98 99 100 100 100 85 80 100 88 45 31 31 35 46 51 48 49 50 46 43 53 42 32 35 29 34 30 58 21 19 36 37 32 25 17 32 44 44 43 41
96 97 97 98 97 99 99 100 84 97 99 100 100 100 84 62 38 34 48 50 44 40 46 40 42 45 45 41 48 41 45 50 64 15 17 31 32 27 28 19 22 36 40 40 37
97 97 98 97 98 97 99 100 99 93 94 98 99 99 100 91 41 56 89 87 72 53 44 46 44 52 43 43 41 52 55 70 64 13 11 21 27 26 21 16 20 24 31 30 26
91 98 97 97 98 98 97 98 96 65 48 75 98 98 100 72 86 87 98 97 73 54 62 54 64 66 50 40 48 47 48 61 49 21 7 16 26 26 26 15 17 19 21 18 7
79 95 96 97 98 98 98 98 92 67 78 76 92 98 97 93 100 93 94 62 97 69 62 54 48 88 53 49 53 52 59 58 25 9 5 11 20 17 15 12 11 12 11 6 4
85 89 96 96 97 97 97 99 92 93 96 89 92 100 98 96 87 97 99 81 84 81 57 98 93 60 58 51 60 52 58 27 9 2 4 7 6 5 5 6 9 7 5 14 17
92 83 90 96 98 98 98 96 99 97 94 90 79 83 80 82 88 96 97 80 75 97 98 95 83 73 77 84 69 44 17 9 4 2 2 3 7 8 10 9 8 14 26 33 35
64 87 90 95 96 97 98 91 94 97 93 84 69 65 84 69 80 92 94 79 83 97 79 88 87 83 80 67 39 30 8 3 3 3 5 8 9 12 20 32 38 43 44 44 43
54 72 72 85 90 95 98 97 91 95 93 70 72 90 72 88 92 87 80 82 94 94 97 93 90 51 38 19 10 4 3 4 5 10 15 24 34 46 52 49 46 44 40 34 29
67 61 62 72 77 97 95 97 97 96 89 92 92 78 72 84 95 93 90 96 91 85 81 49 22 8 10 14 5 4 5 11 18 26 32 48 55 54 44 42 37 35 35 36 35
61 72 67 71 75 82 100 92 97 97 96 96 97 96 96 97 96 97 97 95 73 47 31 24 17 8 14 14 14 16 25 32 37 47 62 52 42 39 38 37 35 34 36 36 37
56 81 70 64 71 84 94 96 97 96 97 97 97 97 94 93 98 95 96 84 67 48 42 33 38 38 36 41 41 39 37 48 60 60 53 40 39 40 40 38 38 36 24 14 14
56 77 75 70 62 89 89 99 98 97 98 96 98 97 98 93 96 95 88 91 73 69 68 73 69 80 76 68 70 77 75 66 55 42 34 35 44 50 43 21 13 13 16 19 22
52 60 89 79 74 76 87 92 97 100 96 95 96 98 98 99 97 97 94 90 85 85 92 88 92 88 91 95 94 90 72 59 47 38 38 40 34 16 12 16 19 25 27 28 28

GFSSW_500_rhum_009.txt.gz
RH
40 44 44 35 30 31 31 22 29 24 44 26 63 53 55 43 39 44 49 47 43 47 48 46 36 29 25 22 20 19 36 34 10 17 25 29 23 16 25 82 79 52 52 48 56
44 49 40 28 30 29 23 33 28 30 52 49 26 66 65 54 36 42 48 54 51 43 52 50 41 33 29 26 21 19 26 41 23 13 21 26 26 22 29 81 73 57 52 51 63
53 42 33 36 37 31 25 39 65 69 80 67 37 28 71 66 50 33 40 52 54 44 57 51 46 34 31 26 18 19 26 40 35 13 18 28 29 22 36 70 54 55 52 57 64
37 36 38 43 43 44 41 27 46 58 76 65 60 27 40 73 66 49 42 45 55 50 56 52 48 38 32 30 22 19 25 28 39 22 14 29 30 26 30 56 48 49 60 60 60
39 45 57 52 52 63 64 42 32 40 39 63 48 50 25 60 69 61 48 46 49 45 49 53 53 44 34 32 28 19 26 24 34 38 15 26 30 28 31 45 47 58 67 62 60
54 52 69 63 73 79 88 53 52 63 53 87 81 46 38 39 67 77 66 48 46 46 49 56 61 56 38 33 30 21 23 24 29 50 26 22 31 26 42 44 58 61 68 64 59
60 60 76 86 83 89 77 62 82 88 64 66 73 43 36 33 48 82 72 55 44 47 56 68 67 58 40 35 27 23 23 26 32 40 36 21 33 31 39 46 56 55 54 54 53
75 69 74 89 74 94 83 72 94 88 99 69 98 70 32 36 40 78 75 72 46 46 57 78 68 57 42 34 27 27 23 25 35 32 42 23 31 34 37 44 47 48 49 50 46
84 85 76 70 74 89 96 89 93 96 73 86 100 64 26 37 35 71 85 77 67 63 68 72 67 56 42 33 32 24 21 24 30 32 38 20 33 32 36 42 45 45 43 43 44
85 87 76 69 72 84 100 88 100 97 76 88 100 75 26 38 35 59 92 86 73 72 84 77 67 54 40 30 27 21 28 27 33 39 39 18 36 28 23 31 41 51 47 47 30
80 94 93 94 83 80 90 93 100 100 89 87 85 42 55 43 36 56 97 81 75 80 74 80 66 52 40 32 28 30 27 24 34 37 46 18 36 37 48 50 50 48 38 21 27
93 98 97 98 97 93 100 99 100 100 91 90 100 92 98 54 37 53 95 87 72 65 80 83 65 57 48 39 38 29 27 26 36 30 44 19 34 38 43 47 39 22 11 22 40
94 97 98 98 98 95 99 100 100 100 96 100 97 100 96 50 35 48 76 88 83 84 75 74 75 58 48 44 43 34 26 31 37 30 53 24 27 47 56 49 23 18 18 40 44
98 98 98 98 99 99 96 100 100 100 94 100 90 92 72 40 32 43 77 92 87 78 79 71 67 63 60 54 42 44 33 34 37 38 51 33 18 45 52 44 27 21 30 46 42
93 98 98 98 98 99 98 100 99 100 100 82 99 83 76 34 33 41 74 88 81 72 79 65 68 59 53 48 53 67 51 34 34 37 30 41 16 28 33 33 26 24 21 36 44
96 93 97 98 98 99 99 100 100 100 100 94 93 75 63 31 35 64 84 83 81 87 76 70 66 66 58 97 60 88 48 37 31 33 21 32 15 24 30 29 26 20 19 24 31
97 89 96 97 98 98 98 99 100 100 99 97 100 59 44 30 46 47 73 78 87 78 75 70 61 53 58 88 74 72 42 33 32 30 32 37 15 15 26 27 28 22 19 19 21
100 98 94 95 98 98 99 99 85 70 89 99 99 95 46 59 45 43 59 96 65 62 61 59 64 54 83 48 48 58 40 37 44 39 47 42 25 9 15 22 23 17 15 16 17
99 97 93 97 98 97 98 88 66 65 67 93 98 98 97 81 70 66 98 61 49 52 54 47 48 49 45 44 49 45 34 54 48 44 43 40 18 6 8 11 12 11 11 10 9
91 100 89 91 98 98 97 97 91 97 86 92 92 98 81 60 94 94 99 75 81 86 65 52 50 46 47 52 57 40 71 62 47 41 41 30 6 5 7 7 6 8 9 9 7
64 74 92 94 97 99 97 98 97 96 95 93 89 77 62 76 99 92 96 90 91 77 67 62 62 60 58 48 44 51 51 48 41 32 17 7 4 5 8 13 15 19 25 32 42
66 69 77 95 97 99 98 97 95 96 86 92 97 84 93 98 98 97 94 87 77 75 62 66 96 89 68 70 64 61 76 50 30 16 8 5 9 14 23 32 45 50 51 49 44
59 69 72 88 93 91 98 98 97 96 91 74 78 92 90 88 97 86 84 84 94 85 80 84 87 100 99 95 85 80 64 34 18 4 5 14 25 40 50 57 59 51 43 37 35
54 72 67 70 88 85 96 97 96 95 98 81 76 76 72 72 81 84 90 96 83 98 99 96 98 96 82 68 70 45 19 6 5 10 19 31 57 72 58 52 44 40 36 39 38
48 77 76 76 82 93 90 97 94 96 96 95 73 73 74 77 70 89 86 84 84 90 89 97 97 96 77 29 20 18 11 13 19 28 38 60 70 62 50 44 41 44 48 41 18
51 76 82 74 61 90 89 100 95 86 98 97 97 88 96 97 96 90 91 94 93 94 70 34 26 24 12 11 25 22 28 25 31 42 58 69 60 46 40 43 46 40 11 16 21
47 65 80 82 75 70 90 84 98 98 97 97 97 96 96 98 98 94 94 96 97 87 65 51 54 47 43 39 40 43 45 53 72 75 58 46 36 43 69 56 23 18 21 27 29

GFSSW_500_rhum_012.txt.gz
RH
20 19 20 32 27 26 27 25 22 22 21 21 23 34 27 34 29 36 35 46 58 61 55 49 47 44 36 26 19 16 17 35 34 18 12 15 19 25 23 20 88 89 79 65 51
28 24 30 30 33 28 29 27 30 32 26 22 20 25 40 27 40 30 41 42 55 61 62 53 49 48 39 30 22 17 17 31 39 30 18 16 19 24 27 25 56 84 89 86 68
29 33 36 40 44 36 36 41 40 28 25 31 30 27 48 48 34 33 43 46 55 61 63 55 56 46 44 32 26 18 18 26 34 35 28 17 18 26 30 30 64 67 62 65 66
39 50 42 50 42 38 48 57 47 44 62 49 35 32 62 80 35 51 45 52 56 58 60 62 55 46 48 36 31 19 21 24 29 28 34 15 16 28 29 32 42 69 54 59 66
50 54 59 57 46 42 50 46 56 71 50 57 40 56 82 90 53 42 58 57 52 51 53 66 60 53 50 41 34 22 25 23 25 24 39 26 12 23 30 32 32 66 54 56 67
58 64 73 68 44 43 43 35 70 55 43 45 56 47 89 67 66 39 66 71 51 46 54 65 68 68 53 46 36 28 27 21 20 34 26 38 19 21 33 31 33 41 53 70 74
78 73 78 66 53 50 36 42 71 73 61 71 74 77 62 64 68 37 55 83 54 45 52 74 85 67 55 52 39 29 26 20 23 36 30 28 33 16 32 25 36 42 64 62 59
82 81 73 67 68 66 50 54 72 60 72 95 95 96 66 69 65 38 53 83 64 47 48 80 84 75 64 54 43 30 25 20 27 30 31 26 36 21 30 33 41 48 55 55 50
90 77 82 91 91 90 66 56 58 69 84 86 88 93 74 98 56 41 44 77 75 60 52 84 79 74 68 58 46 34 22 22 31 26 27 26 46 24 31 34 36 46 50 48 44
86 95 92 95 96 84 57 67 68 84 98 87 95 100 82 83 56 41 40 76 85 70 70 84 82 66 63 54 45 38 22 25 33 27 27 33 44 22 33 34 32 38 42 45 49
96 91 91 97 98 97 84 77 90 84 100 100 86 90 99 87 55 40 40 78 95 77 59 74 70 48 57 65 57 39 26 28 30 25 24 30 37 21 35 28 27 39 48 55 50
94 98 98 98 98 97 96 88 100 99 100 100 87 99 100 100 59 40 40 76 94 76 69 85 69 68 79 71 57 41 27 29 30 23 26 34 38 22 37 41 44 47 45 36 17
90 95 98 97 99 98 98 100 100 100 100 100 95 100 100 96 50 39 41 78 98 91 62 78 73 74 78 69 56 41 30 29 30 27 29 35 39 17 34 39 46 52 31 19 18
63 92 97 97 99 99 98 95 100 100 100 100 83 81 94 97 45 39 42 89 97 88 77 73 98 78 83 72 53 38 40 36 28 25 30 28 37 23 22 45 58 51 35 20 23
52 85 97 97 100 99 99 100 100 100 100 94 95 93 99 73 40 37 43 100 98 90 86 77 74 97 79 67 54 64 48 48 33 26 28 40 38 24 18 40 50 41 32 23 22
61 92 98 97 99 99 100 99 100 100 100 98 86 90 75 41 44 40 55 98 100 100 93 89 92 95 89 70 69 75 65 53 39 30 23 41 32 34 17 24 27 25 23 24 20
72 87 98 98 99 97 98 99 100 100 100 100 65 71 63 36 38 38 68 94 95 89 90 98 89 74 78 68 62 68 87 53 46 31 20 37 33 32 18 20 23 25 25 24 19
77 92 98 96 98 98 98 98 96 93 100 100 80 60 49 39 42 50 76 100 92 91 76 78 79 74 74 57 63 97 76 47 41 31 23 26 31 38 19 11 14 19 19 19 19
79 93 94 89 97 99 98 98 87 98 100 98 76 61 43 37 49 49 72 95 84 76 87 70 67 71 75 69 94 87 78 69 48 35 22 27 41 43 27 8 8 12 14 16 14
69 68 79 95 99 100 98 98 97 98 100 98 90 41 33 54 97 59 70 94 83 83 84 77 70 70 74 66 70 66 86 60 48 42 30 28 33 35 17 7 7 8 8 7 8
55 64 79 98 88 95 98 98 98 98 90 98 84 42 45 72 92 62 70 75 82 79 84 76 76 69 66 49 48 56 50 42 46 40 34 32 34 25 7 4 12 17 16 14 13
56 60 84 96 97 97 97 98 98 98 95 99 99 99 69 57 78 73 92 75 91 79 72 63 65 64 58 52 58 60 56 58 50 50 52 39 29 8 7 11 16 19 19 25 36
53 52 82 92 98 98 99 97 97 97 100 99 84 93 69 86 84 96 94 85 86 67 62 61 54 55 53 55 58 54 53 60 55 68 50 33 15 10 14 24 40 44 47 58 60
47 52 76 90 96 99 100 98 98 100 94 86 86 65 95 96 99 95 99 100 90 79 79 70 65 58 52 54 57 59 71 70 77 68 39 23 8 19 32 40 48 60 64 52 41
47 46 71 96 94 96 100 97 98 99 80 81 91 95 85 90 81 96 83 95 100 100 99 95 85 86 100 83 81 96 100 98 92 28 13 14 19 37 38 56 64 64 46 41 45
58 46 68 95 68 98 100 98 97 99 89 87 94 86 79 77 86 95 100 99 86 88 95 96 96 96 98 98 97 82 82 50 20 8 5 12 35 54 65 63 62 39 46 56 50
64 50 67 92 71 86 97 98 97 97 98 84 91 84 92 79 93 94 95 98 100 98 98 99 99 98 99 97 87 40 27 21 15 18 35 34 56 72 67 39 43 73 73 59 19

GFSSW_500_rhum_015.txt.gz
RH
24 26 30 43 29 22 24 27 32 29 25 23 24 23 21 22 20 14 16 27 33 37 51 61 53 49 44 38 32 22 20 18 33 43 22 17 13 19 25 28 21 46 66 82 88
24 24 28 37 32 27 34 33 36 35 30 25 24 25 28 26 20 16 20 25 30 38 43 59 62 51 47 42 33 26 21 19 22 38 33 24 15 15 25 29 30 84 94 91 91
22 21 28 28 34 36 38 44 43 36 31 27 25 28 33 32 24 19 21 20 33 36 40 54 65 56 50 42 34 30 22 25 23 23 37 30 20 15 24 29 28 34 79 72 73
22 37 45 45 52 48 47 50 48 33 28 28 30 34 33 28 25 22 21 23 34 35 39 48 62 62 50 47 43 36 24 30 26 21 27 37 28 18 21 33 24 33 73 66 64
36 44 50 54 55 58 57 57 49 44 40 36 32 27 28 42 48 43 30 27 36 42 39 43 62 66 57 57 50 38 27 34 30 18 21 32 34 23 18 32 25 30 69 63 54
43 45 61 55 57 58 63 63 62 54 44 38 30 38 46 40 35 48 39 29 43 45 45 44 58 80 73 62 51 43 31 38 29 18 20 24 34 26 16 27 24 23 47 65 60
36 47 58 66 66 72 70 77 69 56 47 40 36 43 48 49 53 53 43 26 46 48 50 49 68 91 76 65 55 44 34 39 26 22 22 17 30 44 26 23 28 31 44 50 68
45 57 62 67 65 60 61 77 46 31 32 42 44 49 50 97 86 68 78 90 60 57 58 63 75 98 90 68 57 47 38 36 27 26 20 16 58 36 33 21 31 36 44 62 63
42 71 65 71 67 77 74 94 76 48 48 56 58 70 80 96 98 74 100 99 53 70 72 75 90 96 94 73 58 50 38 34 39 26 18 18 44 32 30 22 30 31 43 55 54
33 46 70 70 86 78 81 100 90 77 76 77 74 95 96 99 100 78 100 97 48 82 87 78 91 91 87 70 52 51 41 31 41 25 18 18 32 25 32 25 34 33 36 48 50
28 41 70 69 78 74 86 100 96 94 88 90 91 100 88 100 87 96 93 86 48 87 87 69 86 82 76 71 72 55 46 34 42 28 17 20 24 27 35 26 33 29 37 44 43
28 34 48 65 89 82 85 100 100 99 88 100 96 99 86 90 86 98 89 76 43 90 98 87 83 89 95 88 70 60 50 41 37 28 17 20 23 28 33 25 34 34 44 42 41
48 37 61 80 91 87 93 98 98 100 100 100 100 94 88 84 90 99 78 60 43 98 91 70 86 96 89 82 64 62 58 46 36 28 21 21 23 35 33 29 38 49 49 49 45
56 51 84 100 97 96 99 98 99 100 97 100 100 83 84 94 99 97 71 50 59 97 96 94 99 97 89 84 73 65 57 47 39 28 26 22 21 51 39 22 36 40 47 54 48
53 62 86 98 98 97 100 99 100 99 100 99 100 87 76 96 100 69 58 44 69 98 97 96 92 82 93 76 74 69 58 47 38 29 26 22 22 48 50 20 28 41 56 52 45
51 73 95 100 96 98 100 99 100 99 100 100 100 84 82 100 100 92 47 51 97 99 100 100 83 84 89 88 83 69 59 47 39 34 25 28 23 55 51 23 19 29 40 34 25
44 83 92 97 96 99 98 98 98 100 100 100 84 87 93 100 81 55 43 74 98 98 96 95 83 95 73 70 76 64 54 54 48 36 24 30 24 41 37 29 18 20 24 21 18
37 82 79 80 93 99 98 98 97 100 100 100 61 75 91 74 58 42 44 90 95 90 99 93 75 84 98 83 80 65 70 59 41 38 30 30 24 35 35 34 18 17 20 22 22
27 76 73 70 94 98 98 98 97 99 100 100 80 44 56 49 43 37 44 99 80 85 96 66 57 57 88 96 84 77 82 78 54 41 33 30 28 29 43 40 32 19 10 10 15
21 69 69 74 94 98 98 98 98 98 100 100 100 32 30 29 34 36 48 90 84 91 100 87 62 62 73 83 96 90 93 64 61 54 34 30 33 38 40 39 35 28 14 7 7
20 59 65 77 87 99 98 98 98 93 98 98 56 46 30 28 35 37 53 79 92 89 87 80 84 70 61 68 72 64 60 81 74 56 32 31 37 46 40 33 27 12 5 8 11
17 56 66 82 88 99 100 99 97 97 97 98 42 37 32 38 35 41 64 98 93 78 74 81 76 90 76 83 77 65 91 82 75 54 47 46 52 53 38 22 10 6 6 12 18
11 56 61 78 89 93 98 97 96 98 95 99 86 35 37 40 43 46 67 87 83 81 77 84 78 77 90 84 70 62 53 55 58 66 43 42 39 50 38 26 12 14 16 26 41
9 53 59 77 93 95 98 98 97 98 100 100 100 84 73 55 44 53 65 86 91 93 93 88 90 81 73 62 66 63 53 51 59 58 50 45 63 58 27 11 12 14 30 43 69
9 51 67 76 96 98 97 98 98 98 94 89 86 86 66 61 60 69 77 92 91 96 86 80 73 72 70 61 60 56 58 65 66 68 68 78 77 29 17 12 18 28 44 74 72
10 54 76 80 94 98 96 98 98 98 82 88 72 67 69 72 92 72 64 78 90 80 75 76 89 80 78 69 70 62 63 65 64 67 72 84 46 17 17 16 28 52 81 72 42
23 56 92 85 84 94 98 97 97 99 91 96 99 88 87 88 84 91 96 97 99 99 94 96 92 89 85 87 97 72 75 84 90 95 82 56 16 15 22 35 60 75 54 44 59

GFSSW_500_rhum_021.txt.gz
RH
5 5 7 9 17 18 13 15 18 23 29 30 30 21 19 19 21 23 26 23 19 16 12 20 23 25 26 21 40 58 46 35 39 41 30 20 38 24 15 23 25 28 32 26 21
6 6 7 11 19 15 13 23 25 29 31 34 38 39 20 21 21 19 32 27 23 18 17 14 22 24 26 27 25 51 54 42 44 45 39 24 21 38 15 13 20 28 31 24 18
6 7 8 10 23 19 19 22 28 26 29 32 36 26 22 24 23 25 32 31 28 23 19 18 17 22 23 28 31 30 48 53 47 44 44 32 21 31 27 13 17 26 27 22 24
7 7 8 10 26 20 28 37 43 40 40 40 34 31 29 31 34 30 40 38 32 27 22 19 16 17 22 24 32 30 29 57 51 44 46 37 22 20 34 14 14 23 28 27 38
9 7 9 8 23 25 27 39 41 46 45 46 45 42 37 32 38 28 30 35 29 26 25 27 23 22 17 25 32 33 33 51 55 46 50 39 25 20 31 18 13 19 27 38 48
10 9 9 8 16 31 22 45 45 55 53 51 46 39 36 32 43 33 35 34 39 36 30 29 28 29 25 24 29 38 34 50 54 49 52 39 28 18 28 35 15 16 26 29 31
9 10 10 10 12 32 34 29 58 59 57 51 48 41 37 50 42 38 33 34 33 34 35 33 34 34 31 29 27 36 38 49 52 55 55 42 26 18 51 34 33 16 21 28 26
8 10 11 12 12 18 43 29 29 43 63 61 56 50 42 58 48 49 46 43 40 32 26 22 25 32 34 34 32 41 46 39 49 59 57 42 26 21 33 22 34 26 16 27 28
9 10 11 13 12 14 29 45 26 40 45 60 59 49 47 74 68 67 59 45 35 28 22 18 16 17 34 35 42 54 36 34 50 61 61 40 27 30 28 21 26 32 21 27 28
11 10 10 13 14 14 20 41 34 45 72 72 64 63 66 73 80 77 68 53 45 44 32 25 27 19 29 49 53 29 39 36 40 66 60 49 29 36 31 22 23 26 30 26 31
12 11 10 12 16 17 23 43 46 75 86 87 69 84 70 73 82 91 84 78 66 59 49 47 39 25 28 41 40 55 56 50 46 75 62 51 29 38 29 21 26 23 29 25 30
13 12 11 11 16 18 29 45 66 87 79 88 74 71 76 89 90 98 84 81 91 83 91 96 74 33 31 43 60 58 71 52 67 70 63 54 34 38 24 19 26 30 31 25 32
15 13 12 11 16 19 38 50 75 96 82 68 82 76 98 95 95 99 95 99 92 91 97 90 53 56 52 58 99 96 71 59 73 73 69 52 37 35 27 24 22 28 34 27 33
17 13 15 12 15 27 43 61 89 99 78 65 80 87 97 100 91 100 100 87 91 82 97 97 93 89 70 76 69 65 69 62 89 76 73 52 39 40 32 24 23 23 30 30 30
18 14 24 15 15 27 46 79 87 100 89 83 93 99 100 100 100 99 85 82 81 86 99 65 100 96 61 93 97 67 72 70 94 89 72 50 37 37 32 26 24 23 26 28 30
17 15 30 15 17 32 46 80 93 98 95 97 99 100 100 98 93 93 62 94 97 100 100 99 100 85 58 99 91 65 77 97 97 93 66 50 42 35 34 30 25 24 26 28 31
16 21 31 16 17 38 50 76 95 99 99 98 100 99 82 67 56 75 79 99 98 98 100 100 100 78 86 98 98 98 100 99 95 84 63 56 44 51 30 28 27 26 30 32 24
16 31 29 15 19 39 48 80 96 98 99 100 100 100 70 48 69 97 100 96 95 99 100 100 99 100 98 90 88 85 76 92 81 72 61 53 41 38 32 32 30 29 34 40 26
21 37 28 17 28 41 48 91 99 98 98 99 100 100 58 65 68 82 100 92 100 100 100 81 88 97 96 98 98 93 77 96 82 67 74 49 44 33 35 35 41 44 48 44 32
32 39 22 20 39 38 56 98 97 98 98 99 100 100 58 66 54 67 95 77 96 100 100 100 97 62 97 97 94 90 73 94 83 66 57 52 48 43 35 33 45 50 48 40 33
38 40 23 21 43 38 75 98 98 98 98 99 100 80 50 59 57 54 95 82 88 95 100 100 98 99 80 88 70 88 87 80 68 60 75 67 62 42 40 37 38 36 35 36 38
39 37 22 35 40 45 91 98 97 98 98 100 42 36 43 56 58 54 92 99 78 94 95 99 98 97 85 86 76 57 73 77 68 58 60 52 57 52 50 39 39 40 39 40 40
38 28 18 43 36 54 96 98 98 98 98 100 44 31 33 42 45 72 77 83 97 97 94 99 94 97 98 97 87 78 82 77 72 55 64 74 63 59 52 52 53 51 46 39 34
37 20 21 49 28 63 97 98 98 98 98 98 88 32 27 35 42 88 64 72 94 98 98 93 87 98 99 97 98 79 68 71 67 62 66 64 78 70 62 64 61 60 52 43 37
34 18 34 51 30 72 97 98 98 98 100 94 94 32 27 33 40 60 65 68 79 96 95 84 79 79 71 73 78 95 96 96 95 84 78 84 84 84 95 85 62 48 43 52 48
22 19 44 40 36 84 98 98 97 98 100 100 100 91 29 34 43 81 96 70 66 72 70 74 82 84 85 80 83 78 73 65 66 76 68 83 71 76 65 54 65 46 44 50 48
20 20 53 30 40 87 98 98 98 97 98 100 100 100 41 36 42 74 98 96 87 92 95 84 78 83 88 76 69 68 61 61 57 52 67 60 70 70 54 70 60 50 65 71 37

GFSSW_500_rhum_024.txt.gz
RH
5 5 5 5 5 6 8 12 15 12 14 20 21 23 28 27 26 17 16 17 22 22 22 22 22 17 17 21 25 25 24 44 47 49 48 43 31 25 30 24 25 32 32 27 24
5 6 6 5 5 6 8 13 17 15 14 16 22 26 29 28 26 28 20 18 22 24 26 24 22 25 14 19 24 24 23 21 49 53 53 47 30 34 23 32 17 21 29 30 25
6 6 6 6 5 6 8 15 20 19 20 26 23 21 27 31 35 36 29 23 27 31 31 28 23 20 17 15 22 25 22 25 30 55 52 42 37 41 27 32 25 15 20 19 23
6 6 7 7 7 7 9 13 23 20 29 32 31 32 34 25 31 29 39 38 28 29 32 33 30 25 18 15 18 21 21 28 27 45 52 43 52 39 33 24 36 17 13 16 27
8 6 6 8 9 8 9 9 22 26 22 30 32 37 38 33 53 27 33 36 35 34 35 36 32 28 21 18 18 14 16 21 30 32 44 46 50 45 33 22 35 32 14 15 22
8 7 6 7 9 9 8 10 14 30 33 30 38 46 45 47 54 41 38 42 37 33 32 32 35 29 28 22 19 16 19 21 23 31 28 40 53 42 38 25 27 41 17 14 24
10 9 6 7 8 10 9 10 10 16 33 34 27 41 48 58 45 45 36 44 40 38 36 36 37 36 29 30 25 22 19 18 15 23 25 30 45 39 41 29 26 41 24 14 23
12 11 9 8 8 9 10 10 12 11 18 30 36 22 20 57 45 47 41 40 42 40 38 40 39 37 40 32 30 29 25 18 14 18 24 24 35 47 41 34 27 27 38 19 20
18 15 12 9 9 9 10 10 13 12 14 29 35 30 26 49 50 46 46 46 47 50 52 44 36 33 32 35 36 34 26 18 17 15 24 24 30 51 48 39 28 27 40 31 15
18 17 17 14 11 9 11 11 13 12 14 31 37 35 48 73 75 69 64 60 60 64 64 57 50 44 36 30 27 26 30 25 22 22 19 25 37 49 50 40 26 23 30 31 19
19 18 16 16 16 11 12 11 14 14 16 34 38 53 64 79 76 70 66 65 73 71 70 69 61 44 33 25 20 17 17 30 30 24 26 30 43 52 52 46 28 22 23 28 34
11 18 18 16 18 14 12 13 15 16 17 34 49 55 80 70 72 78 75 73 82 76 88 88 58 43 57 38 27 17 13 22 51 37 38 44 38 57 49 48 30 25 24 25 25
12 11 17 17 20 16 14 18 17 19 22 26 60 71 76 74 80 96 95 98 92 88 86 96 71 79 75 56 44 25 15 24 52 57 54 49 36 48 57 46 31 27 26 29 30
50 12 14 16 20 16 16 22 18 25 30 32 54 72 88 89 79 100 90 94 90 79 100 100 90 95 82 64 52 33 17 40 89 77 55 64 33 52 61 42 36 28 25 28 36
92 20 21 18 20 16 20 23 20 31 37 47 80 96 97 100 97 90 99 95 97 100 100 85 72 94 96 82 62 25 27 70 98 98 76 72 41 50 59 41 32 28 26 24 30
76 52 27 19 20 17 25 22 22 42 42 71 99 96 90 98 100 70 67 100 100 100 98 86 90 100 75 98 64 26 85 66 53 79 83 57 45 51 60 42 36 31 23 22 26
76 64 18 19 19 19 28 20 30 44 57 94 98 95 97 100 83 38 50 87 81 95 75 84 93 100 98 86 42 36 99 97 96 89 76 50 64 67 60 45 36 32 24 24 25
91 49 19 19 18 26 30 18 31 43 93 98 98 96 96 100 59 50 70 74 67 83 85 99 98 100 89 60 34 77 100 96 58 84 90 60 69 60 55 42 34 28 25 24 25
95 39 19 18 21 34 29 17 45 61 99 98 98 97 91 74 56 62 84 73 74 84 99 100 96 100 98 100 92 98 97 99 97 82 62 60 71 60 55 42 32 28 27 28 26
94 22 19 20 27 33 22 45 43 98 99 98 99 83 83 60 51 64 76 71 75 96 100 100 100 100 97 99 99 96 94 88 83 87 83 82 72 60 56 41 33 30 30 35 36
68 21 22 24 31 32 25 45 61 100 98 98 86 49 44 51 56 71 93 59 96 100 100 99 95 96 98 88 95 98 97 91 71 73 91 81 68 55 48 39 32 32 44 52 52
30 20 26 32 36 24 49 40 94 99 98 98 66 31 45 25 46 71 79 78 83 100 96 100 100 100 93 98 98 99 96 78 78 78 94 81 59 51 52 46 43 39 38 40 40
24 25 32 36 33 29 53 40 98 98 98 98 98 30 42 41 46 52 95 97 98 98 99 100 100 81 62 96 98 98 93 83 65 88 92 70 62 47 54 53 50 45 41 44 42
30 30 36 35 24 39 44 53 98 98 97 98 91 34 31 43 49 43 94 90 95 99 98 96 98 98 96 62 71 74 82 94 82 89 74 63 55 64 65 60 57 54 53 49 44
30 34 36 28 24 48 35 85 98 98 97 97 87 31 28 39 44 61 84 81 94 99 97 98 98 98 98 97 96 78 80 91 74 69 68 80 68 74 80 71 58 54 48 45 42
47 52 32 31 50 51 45 98 98 98 98 96 89 38 28 35 43 87 77 98 99 91 100 100 100 97 90 95 96 91 88 81 80 71 62 74 85 82 78 79 76 83 66 56 52
73 40 28 30 70 41 50 98 98 97 98 99 89 91 29 34 41 72 71 85 92 97 100 100 100 85 88 87 87 79 82 75 86 82 82 78 88 93 89 85 72 60 53 48 56

GFSSW_500_rhum_027.txt.gz
RH
9 8 6 5 5 5 5 4 5 6 8 12 11 11 15 16 16 20 30 26 17 16 16 17 20 24 22 25 24 19 16 20 17 47 66 58 45 32 35 25 28 27 31 29 25
10 9 7 6 5 5 5 5 5 6 7 11 13 13 13 12 16 22 28 25 23 20 17 17 23 24 24 24 22 14 10 17 24 24 52 69 53 33 39 33 26 28 27 26 23
11 10 9 7 6 6 6 5 5 5 6 11 14 15 19 18 16 26 32 32 26 27 22 17 23 26 26 26 23 20 9 16 25 25 26 53 59 43 38 41 31 27 26 22 22
12 10 9 8 6 6 7 6 6 6 6 8 17 16 19 24 29 36 39 33 33 34 30 20 23 25 25 25 26 21 16 13 24 27 24 21 43 49 40 42 35 24 30 28 16
12 11 10 8 6 6 7 7 7 7 7 8 11 19 20 26 36 22 37 41 30 32 31 26 23 23 20 26 28 24 21 14 17 23 25 24 18 39 48 46 41 31 24 34 24
13 11 11 9 7 6 6 7 8 8 8 8 8 15 25 36 33 23 41 52 42 35 29 32 34 34 30 28 29 28 22 14 9 13 17 20 17 18 49 57 38 38 26 25 35
16 14 11 10 8 7 6 6 7 9 9 8 9 9 16 34 28 29 33 52 46 43 38 35 36 34 29 28 25 20 15 16 13 11 11 19 9 11 31 54 44 45 32 21 33
18 17 15 11 10 9 8 8 7 8 11 10 8 9 12 19 24 32 25 43 52 48 49 47 40 38 36 33 33 27 22 17 16 17 14 16 8 11 22 41 48 48 37 20 34
20 20 19 18 14 12 12 12 11 8 8 13 10 9 12 24 29 30 32 34 44 50 47 48 40 37 37 34 34 32 25 22 22 20 21 19 11 11 24 28 46 51 41 23 26
29 17 19 20 20 18 14 16 16 11 7 10 12 12 16 30 33 37 44 59 63 55 55 57 50 44 39 34 29 37 38 39 32 33 30 27 17 13 23 28 43 52 42 27 23
56 58 23 17 19 19 18 17 16 13 10 9 14 12 18 32 33 43 50 56 67 66 65 63 48 40 65 58 41 37 36 31 33 33 35 27 24 16 17 31 37 53 43 29 22
25 46 63 44 12 18 19 18 16 14 12 10 16 17 35 28 47 71 70 65 64 66 74 59 38 80 89 78 63 53 46 35 28 27 29 31 26 23 21 23 41 57 44 30 21
10 20 57 66 47 10 17 19 19 17 13 10 22 25 36 50 61 86 74 66 66 70 92 85 69 100 100 99 81 62 46 34 25 21 20 23 32 24 16 18 45 54 49 33 22
10 8 26 59 61 28 13 19 21 18 13 12 19 34 47 62 65 84 70 80 77 84 100 88 94 96 100 96 93 74 59 54 34 20 17 29 28 28 18 23 45 54 52 40 23
6 6 15 51 58 57 15 19 18 17 15 18 31 37 54 74 70 74 83 85 85 78 100 92 86 100 98 82 100 71 81 60 48 26 16 23 45 24 25 22 41 47 50 33 22
23 15 16 38 58 77 28 20 23 18 16 26 41 46 72 82 85 78 76 79 72 71 99 99 100 97 92 87 94 81 88 68 57 36 39 14 42 36 26 26 33 49 52 36 24
38 55 45 44 56 77 36 25 30 18 28 38 43 65 86 92 93 83 77 54 45 51 79 100 100 90 95 85 88 100 99 78 56 33 22 35 66 65 38 34 40 53 51 34 25
59 91 70 52 49 72 57 30 19 22 38 42 61 87 96 91 75 54 36 53 63 60 73 82 67 68 74 59 89 72 97 66 40 24 17 96 97 52 50 53 48 56 50 36 26
98 99 74 49 58 75 44 21 20 42 44 48 88 94 88 64 56 36 52 64 67 70 72 95 93 98 100 100 99 72 91 37 24 26 79 89 85 56 59 62 58 49 42 35 30
100 100 76 57 87 63 28 19 33 46 44 94 98 97 51 50 36 39 43 47 57 56 55 98 97 100 100 100 85 80 69 43 72 98 99 99 70 35 35 64 54 45 37 33 28
100 100 81 68 93 38 22 23 43 48 59 100 98 88 39 34 37 39 39 34 34 73 99 100 100 100 100 64 38 65 68 90 100 97 98 81 51 55 78 65 56 45 36 31 32
96 79 88 92 66 41 24 40 41 47 92 99 98 99 37 28 36 32 26 40 58 100 100 71 61 68 94 85 96 94 98 99 94 98 96 87 48 51 74 60 50 41 35 34 38
93 91 82 91 52 31 28 36 46 59 100 98 99 100 39 34 31 46 44 40 92 100 100 98 98 100 99 96 98 95 98 98 98 100 96 77 67 77 66 55 45 41 40 39 40
100 88 100 74 25 24 38 34 52 93 99 98 100 71 34 38 31 43 61 40 79 98 99 99 98 98 99 97 99 97 97 91 99 93 96 92 75 65 54 53 49 48 47 44 42
78 90 92 28 26 42 37 48 43 96 100 98 99 93 35 35 42 42 47 63 94 99 98 96 99 100 51 98 97 98 88 94 98 98 95 94 88 67 63 59 56 54 51 47 46
81 100 38 34 49 35 26 54 57 99 98 97 99 87 27 36 43 46 71 90 99 97 98 99 99 100 74 62 95 96 91 94 98 95 90 97 92 88 68 64 72 67 63 66 64
90 64 92 45 54 48 76 50 95 97 98 98 100 70 29 32 34 54 71 70 88 98 93 96 98 98 98 96 85 75 76 77 92 100 98 92 84 86 73 73 72 77 78 71 65

GFSSW_500_rhum_030.txt.gz
RH
12 12 11 9 8 7 6 5 5 4 5 5 6 8 8 9 11 14 16 14 19 22 13 14 14 14 17 19 20 20 16 10 10 20 31 56 51 41 36 41 33 25 21 22 25
13 13 13 11 9 8 7 6 5 5 5 5 5 6 8 11 14 23 12 10 14 24 25 23 18 15 16 17 18 17 15 11 12 18 25 60 47 49 38 42 38 28 21 22 23
16 14 13 11 10 9 8 7 6 6 5 5 5 5 7 12 13 29 21 17 13 20 21 26 23 21 17 16 20 18 13 17 17 14 22 31 28 42 43 40 47 38 26 25 24
17 16 14 12 11 10 9 8 8 8 6 6 6 5 7 12 14 26 26 26 25 26 21 25 22 23 24 17 22 17 19 20 21 16 19 21 30 21 36 45 52 47 35 24 27
17 15 13 12 11 10 9 8 7 8 8 7 6 6 7 9 10 15 25 29 29 29 31 28 29 26 27 18 19 19 18 17 22 23 14 18 19 19 17 36 58 50 44 35 25
19 17 14 13 12 11 10 7 6 6 7 8 8 7 7 7 8 11 24 27 27 30 35 35 32 29 27 25 18 17 16 17 17 24 20 14 14 14 16 22 38 52 50 46 41
20 19 18 16 15 13 12 10 7 6 6 6 7 9 10 8 8 9 11 21 26 30 38 40 40 34 25 27 22 18 18 24 22 25 25 19 10 8 12 25 20 42 53 46 46
18 20 20 19 18 16 16 13 10 8 7 6 6 7 11 11 9 9 11 16 21 26 29 36 42 42 40 35 30 28 28 23 24 24 24 28 9 12 12 18 26 30 52 51 44
57 24 19 20 20 20 18 17 14 13 9 7 8 8 9 12 13 13 14 18 20 24 28 28 32 45 45 42 39 33 28 25 27 35 33 30 13 16 14 16 21 25 38 52 43
47 62 52 24 19 20 20 20 20 19 14 10 10 11 10 13 13 13 13 18 21 27 30 34 30 30 38 43 35 39 37 36 33 42 37 33 20 20 19 17 16 24 22 41 43
20 32 51 60 48 26 16 19 20 19 18 17 12 13 13 12 13 17 22 28 30 29 39 44 38 42 58 55 44 42 44 40 37 40 39 30 23 20 19 17 15 19 23 31 44
31 30 16 41 50 58 53 25 15 18 19 18 17 15 14 12 13 26 23 26 34 45 52 52 45 51 66 64 54 49 44 38 43 39 36 34 22 21 20 16 17 17 22 30 45
22 27 28 30 16 42 54 61 44 16 16 18 19 19 19 16 14 30 31 37 45 50 58 56 54 59 61 63 55 50 47 55 47 40 36 32 25 24 25 23 18 14 16 23 38
4 4 9 21 28 19 42 58 64 50 19 15 19 27 27 23 21 31 38 54 60 64 68 52 56 62 72 67 97 65 76 82 72 56 44 39 25 24 29 23 19 20 16 20 27
100 62 11 7 13 21 27 39 60 62 37 26 22 29 27 22 26 35 65 72 70 70 70 67 73 96 78 88 100 76 100 98 93 81 63 43 30 20 24 20 16 20 16 21 40
100 81 56 11 6 12 25 31 45 48 43 34 27 31 29 27 29 55 88 80 75 68 65 72 73 79 98 100 100 92 100 100 100 100 78 46 35 18 20 16 19 20 19 28 52
100 100 100 31 30 31 27 28 34 44 48 39 31 31 28 31 49 86 70 50 34 26 29 35 36 40 71 100 100 100 100 100 100 98 48 50 42 13 14 17 26 25 23 36 53
100 100 79 93 62 61 46 35 24 42 52 27 26 24 34 44 90 80 44 26 27 25 20 29 43 61 81 100 100 100 100 100 100 89 71 62 44 13 13 13 36 26 24 40 57
100 100 99 79 60 78 54 33 21 60 58 26 24 30 43 89 87 43 28 25 20 27 35 44 63 81 67 76 96 82 96 78 99 100 83 56 34 26 23 14 52 26 28 38 54
100 99 100 100 67 88 64 38 41 60 32 24 32 36 69 97 49 30 24 20 20 25 33 50 75 100 100 97 79 67 93 100 99 98 69 37 31 20 17 17 51 32 33 58 51
96 100 100 100 91 76 56 39 61 35 28 31 47 47 94 94 36 29 21 20 24 29 51 74 87 100 100 100 100 100 85 83 74 63 34 28 21 17 68 53 48 49 68 56 46
85 100 100 100 90 56 64 54 46 30 32 38 44 84 98 91 36 28 21 25 46 64 92 95 100 96 100 99 89 61 92 57 54 59 51 34 46 77 63 60 67 89 69 52 42
88 100 100 100 82 60 63 72 31 36 47 49 76 98 97 88 32 30 30 30 58 81 97 100 100 100 91 92 73 98 64 52 56 57 96 100 90 82 62 61 79 70 62 46 44
100 100 100 99 89 84 83 53 30 46 49 80 97 98 96 44 31 26 31 47 59 98 97 98 98 98 99 100 98 96 98 87 94 94 100 98 94 85 60 76 66 53 46 47 48
100 94 68 53 73 71 84 39 42 51 60 95 99 98 78 33 33 29 40 51 89 97 95 98 100 100 97 96 100 88 98 97 99 99 97 97 96 97 84 78 67 66 59 54 52
100 100 90 63 70 100 44 38 54 73 57 94 99 98 86 29 34 35 42 38 97 99 98 99 99 99 98 98 98 89 99 97 97 100 100 97 98 93 90 71 69 73 69 64 65
100 100 93 69 100 65 42 62 65 66 78 99 99 94 65 33 31 34 30 72 94 95 100 99 99 100 74 99 94 98 100 98 97 98 98 97 94 96 91 78 74 72 76 77 77

GFSSW_500_rhum_033.txt.gz
RH
19 18 15 12 10 9 10 10 8 6 5 6 6 6 5 7 9 10 10 8 9 9 11 15 14 11 11 12 15 18 14 13 15 16 17 28 26 35 52 44 42 34 27 24 21
21 18 16 15 13 12 11 10 10 8 6 6 5 5 5 6 8 10 8 9 11 10 9 11 19 17 12 14 13 14 13 14 17 24 22 24 26 26 38 51 49 43 34 27 22
21 20 18 17 16 14 13 12 11 9 7 6 6 6 6 6 7 11 10 11 12 13 12 10 13 21 18 17 16 14 12 14 18 24 21 18 20 19 21 43 53 52 38 32 25
23 21 20 18 17 15 14 12 12 11 8 7 7 7 7 6 8 12 12 12 14 16 18 20 18 17 22 22 25 20 15 14 19 26 24 15 16 15 14 22 51 53 47 37 31
22 23 21 19 17 15 13 12 11 10 9 9 8 8 7 8 6 7 10 11 13 14 16 19 21 24 21 22 23 19 21 16 18 23 25 23 12 11 10 15 22 47 56 45 32
19 23 22 19 16 14 13 12 12 10 8 7 8 8 8 7 8 8 9 9 8 12 17 20 23 22 25 24 23 24 25 19 16 22 21 22 21 14 11 15 18 21 50 53 43
40 20 22 21 18 15 12 12 13 12 9 8 6 6 7 7 8 9 9 8 8 9 10 12 19 22 26 35 25 22 26 24 17 19 20 23 18 20 15 16 18 20 23 52 55
84 58 19 22 21 19 18 15 14 14 13 11 7 8 8 7 7 8 10 10 10 9 10 10 12 20 21 37 34 30 26 28 27 23 19 27 10 24 22 16 13 17 24 32 64
43 67 74 27 20 21 20 19 18 17 16 14 11 13 12 9 8 9 10 10 11 11 11 12 13 17 18 23 35 36 34 34 32 30 24 26 14 24 26 19 14 14 21 25 47
11 25 46 68 55 21 20 21 21 20 18 15 16 17 14 12 11 11 11 10 10 10 11 13 14 14 16 22 25 39 47 45 42 42 44 30 18 20 24 17 12 12 15 20 24
43 33 13 28 50 64 46 20 19 20 20 20 17 19 19 17 15 13 13 13 12 11 13 14 14 17 28 30 26 29 27 30 43 42 43 36 26 22 25 22 14 13 12 15 17
20 46 38 23 17 36 60 63 53 24 18 19 20 20 20 19 18 17 16 14 13 12 13 17 19 30 42 47 45 38 35 32 30 42 36 37 28 24 20 18 20 17 13 12 12
3 14 39 25 29 22 23 51 57 59 46 24 16 17 19 19 19 20 22 22 18 17 19 23 26 37 42 50 54 55 51 55 54 61 53 36 22 26 24 23 22 19 17 14 12
3 23 12 32 30 28 28 25 34 50 54 52 46 24 17 16 17 19 25 28 27 22 24 22 37 54 55 51 60 51 67 72 69 70 60 49 18 24 25 22 19 18 17 14 14
3 70 100 8 18 24 27 27 28 25 34 37 45 45 38 28 24 26 28 27 22 24 34 47 54 57 50 55 71 48 67 75 84 85 76 55 44 18 27 22 19 19 20 16 15
3 8 100 100 32 10 18 21 25 33 31 30 31 40 40 35 30 28 30 26 25 48 63 55 36 23 18 32 49 75 86 98 100 100 84 57 61 23 28 25 24 23 27 22 19
3 74 100 100 82 70 9 17 26 28 34 32 29 35 38 38 33 31 26 28 62 64 36 17 12 11 13 19 26 38 94 100 100 100 66 72 88 22 28 34 27 24 25 27 24
85 100 100 100 100 92 37 17 16 20 27 29 29 38 49 41 30 31 33 74 66 30 14 13 14 24 33 36 35 25 81 100 100 98 87 94 67 29 33 38 29 24 23 22 23
55 99 100 100 98 98 86 25 14 24 28 30 32 48 47 33 31 42 76 72 33 17 16 18 16 39 58 67 70 45 41 84 100 100 100 81 46 42 36 42 25 23 22 21 25
66 100 100 100 100 99 84 37 33 40 42 40 49 54 50 36 38 76 76 41 20 18 23 26 30 49 70 100 100 98 68 83 85 91 100 63 50 38 42 38 20 14 14 34 28
100 100 100 100 100 100 58 42 44 53 48 48 66 56 33 34 64 86 54 24 17 19 24 29 39 59 84 100 100 100 96 55 75 90 78 44 31 43 54 43 32 23 18 44 38
100 100 100 76 100 98 45 38 60 64 48 70 58 31 40 50 84 86 51 18 16 25 59 75 45 93 98 100 82 84 100 100 87 52 59 41 23 41 44 37 30 24 50 41 40
84 100 100 100 99 99 59 53 64 59 58 66 34 48 59 70 72 89 40 20 25 44 70 92 93 93 99 100 100 100 97 95 100 84 60 47 28 32 27 22 23 37 77 68 67
78 100 100 100 100 97 93 72 62 60 69 37 56 66 76 73 77 56 26 20 37 49 60 96 97 99 98 100 100 100 100 86 72 90 44 28 48 30 27 25 36 70 80 78 63
100 100 100 96 100 100 81 69 65 90 53 45 81 98 80 78 73 31 22 26 32 46 68 96 97 100 100 99 98 94 96 99 80 85 83 96 78 78 92 97 73 88 86 65 61
100 95 94 100 100 100 100 88 82 78 48 65 100 99 85 87 46 26 13 22 35 61 92 98 98 100 100 100 100 95 94 100 99 99 97 98 96 96 99 89 95 94 91 84 81
100 100 100 100 100 99 99 100 100 68 59 78 98 74 95 89 30 22 17 24 36 92 97 100 100 97 98 100 100 98 98 89 96 97 94 99 96 98 98 96 88 96 94 78 66

GFSSW_500_rhum_036.txt.gz
RH
44 46 43 27 18 16 16 13 11 8 7 7 11 14 11 9 7 7 7 6 8 9 10 10 9 9 12 13 11 10 7 7 12 15 20 23 20 18 18 21 40 45 39 35 32
48 49 35 19 20 18 16 15 12 10 9 8 10 10 8 6 6 7 6 7 9 10 10 10 9 9 8 13 12 11 10 12 16 18 21 26 21 17 15 18 24 49 48 43 35
52 42 22 20 21 18 17 16 16 13 11 10 9 9 8 7 7 9 8 9 10 11 11 11 11 9 8 9 13 14 12 14 14 14 18 23 22 19 12 13 19 35 51 44 36
55 38 19 20 21 19 19 18 18 15 12 11 10 10 9 6 8 9 8 9 10 11 12 12 13 11 10 9 12 13 17 16 18 14 14 21 22 17 9 8 15 19 32 48 42
58 51 20 22 22 21 20 19 18 17 15 12 11 10 10 8 6 8 9 8 8 10 10 12 13 13 13 13 13 11 16 20 22 23 16 16 22 21 13 7 10 15 20 43 50
51 59 26 26 23 22 20 19 17 15 14 13 12 11 10 8 7 9 8 7 7 7 7 8 11 13 14 16 17 16 18 20 20 20 21 17 24 26 20 16 9 10 16 22 55
35 51 59 56 22 23 21 18 16 15 14 12 10 10 10 10 10 11 9 9 8 7 7 7 7 8 10 15 14 17 20 23 23 28 23 21 17 21 25 25 19 16 14 20 25
25 25 51 84 32 23 23 20 16 13 14 14 13 11 9 8 8 9 9 9 9 9 9 8 8 8 8 9 11 13 15 19 29 27 27 24 14 21 21 21 20 19 16 16 23
16 34 24 49 76 32 22 22 20 16 13 14 14 15 14 11 9 8 8 8 9 9 9 8 8 8 9 10 11 13 14 18 27 38 35 27 18 19 20 21 22 21 17 11 15
3 19 40 24 47 74 39 21 22 21 18 15 16 16 16 14 12 11 11 11 11 10 9 9 8 8 9 11 12 14 14 15 17 29 30 27 16 23 23 18 18 19 19 13 9
3 7 34 46 27 42 71 54 20 21 21 21 19 19 17 16 16 15 15 14 13 11 11 10 9 9 12 13 13 11 13 16 20 22 23 29 22 21 22 17 15 16 15 14 9
2 4 26 48 44 23 38 65 65 36 20 21 21 20 21 20 18 18 19 17 14 14 14 13 15 16 16 17 15 14 16 17 21 35 33 28 19 23 22 15 18 15 14 15 11
2 3 43 94 76 40 25 29 51 62 56 28 19 19 21 20 20 20 20 18 18 19 20 20 22 22 23 23 20 20 23 30 36 50 46 37 19 22 28 24 24 22 18 18 14
2 3 47 100 100 49 36 29 26 40 56 63 51 33 22 18 17 18 18 18 17 17 18 18 23 25 24 21 27 31 41 50 47 48 40 60 22 22 22 23 25 27 24 21 19
2 3 39 87 100 92 58 29 28 26 41 47 53 52 46 41 33 27 22 18 20 24 25 26 28 25 22 42 50 45 49 54 53 53 50 40 48 14 26 26 22 22 25 24 24
3 3 4 50 100 100 100 59 27 34 30 30 33 44 46 46 45 44 42 38 32 29 30 27 23 30 49 44 31 23 20 20 29 48 43 36 57 20 23 27 35 27 24 26 27
5 4 4 93 100 100 100 97 66 31 31 28 28 26 24 25 30 35 34 35 34 32 30 29 42 45 27 12 12 11 16 16 13 12 10 20 52 21 26 30 36 41 30 30 27
21 4 4 100 100 100 97 99 49 41 28 31 33 32 29 27 26 30 39 39 33 30 33 44 40 15 14 15 21 30 33 36 29 23 22 21 15 9 29 38 43 45 41 32 27
29 4 4 88 100 100 100 98 66 29 30 30 31 33 33 30 27 33 35 36 32 51 59 33 12 18 20 20 34 36 40 80 92 79 42 27 18 20 16 39 52 52 46 37 30
10 4 4 100 100 100 100 87 88 60 21 24 30 31 29 25 25 34 42 34 57 63 30 14 17 22 27 32 42 69 95 97 100 100 86 39 29 63 39 43 53 58 48 39 31
10 5 24 100 100 100 99 89 75 71 41 28 26 30 28 26 32 42 33 67 76 33 16 18 19 33 38 65 94 100 99 100 98 100 100 72 35 69 44 48 50 61 44 30 29
15 8 73 100 100 100 96 85 97 97 60 38 40 38 28 30 38 35 57 91 66 25 21 23 22 33 58 91 99 99 100 100 100 89 100 98 41 47 82 62 62 43 39 28 24
30 77 100 100 99 85 67 90 100 98 70 59 54 43 40 42 37 42 95 85 41 27 24 33 35 44 58 86 100 96 100 100 100 100 77 93 38 40 100 83 78 54 23 18 40
68 100 100 96 100 96 83 100 100 92 76 66 53 47 56 42 41 80 88 60 20 21 25 27 44 68 89 98 100 99 96 100 100 100 94 61 38 51 100 99 52 38 27 37 61
63 98 100 79 95 88 100 100 100 83 74 64 55 60 54 42 94 97 70 24 18 19 28 32 48 93 97 100 99 98 94 96 100 82 32 39 52 99 99 51 35 31 68 77 77
100 100 99 89 94 100 99 100 82 79 87 81 69 56 41 85 100 100 37 17 16 22 30 45 94 98 99 97 97 100 93 100 95 34 28 46 88 79 32 30 26 59 100 95 75
100 100 100 100 87 94 99 92 94 83 83 80 59 44 79 100 100 97 27 22 28 31 44 96 97 96 97 99 96 99 96 86 92 100 71 92 100 97 42 32 29 67 84 95 96

GFSSW_500_rhum_039.txt.gz
RH
92 34 21 26 34 36 38 30 18 18 16 15 14 8 7 5 6 18 15 10 11 12 9 7 9 10 10 9 10 10 8 11 13 12 12 15 15 17 16 18 17 18 33 39 40
50 25 26 35 43 44 41 26 20 17 16 14 12 9 8 7 7 22 12 10 9 8 7 10 11 10 9 8 8 7 7 11 10 9 11 15 14 13 10 10 14 17 17 28 41
53 33 24 42 46 43 32 22 20 18 15 15 14 12 9 8 10 15 10 8 6 6 8 12 11 10 10 10 10 8 10 12 12 12 14 18 18 18 14 10 13 12 15 15 28
48 44 31 54 51 39 20 21 21 18 16 16 16 14 12 10 11 12 8 7 6 6 10 10 11 11 12 11 10 9 10 11 14 13 14 14 15 16 16 14 14 11 11 14 16
26 44 31 57 57 33 20 23 22 20 19 19 18 16 13 12 10 10 11 9 7 9 12 10 11 12 13 15 13 12 14 12 12 16 17 17 18 15 13 16 17 14 10 9 16
4 16 41 33 60 45 21 24 24 22 20 20 19 18 16 14 11 14 14 12 9 10 10 11 11 10 13 16 12 14 15 17 16 16 13 15 20 20 18 19 17 14 14 12 11
5 4 17 39 37 59 27 28 25 22 20 19 19 20 19 14 13 14 11 13 12 10 8 7 7 7 9 10 9 10 12 15 19 21 15 15 10 10 24 20 18 17 14 14 14
4 4 4 36 28 43 53 39 25 23 20 18 17 17 17 16 14 13 13 13 11 10 9 8 8 7 7 7 7 7 8 9 14 18 17 16 10 17 23 21 19 19 16 16 19
4 3 3 6 43 28 52 72 24 24 20 17 16 16 15 14 12 12 12 12 12 11 10 9 8 7 7 8 8 9 7 9 11 11 13 13 11 16 19 21 19 20 18 13 11
2 2 3 3 23 55 30 68 38 24 22 17 15 16 15 15 14 12 10 9 9 9 9 9 8 8 9 10 8 7 7 7 9 11 12 12 11 15 18 18 19 16 18 14 10
1 2 2 3 12 54 51 31 64 28 23 22 18 15 15 15 16 16 14 14 13 12 10 9 9 10 11 10 9 8 9 9 13 17 17 14 9 12 16 16 17 20 18 16 12
2 1 2 3 77 75 54 34 57 70 32 22 21 20 18 16 17 17 17 16 15 14 12 10 10 11 12 14 14 15 16 18 19 20 19 18 15 12 12 16 17 21 22 23 17
5 2 2 3 27 100 51 46 35 67 68 33 21 22 21 21 20 20 19 19 18 16 17 15 14 16 19 20 19 16 15 17 19 20 19 19 14 16 14 13 18 18 27 25 21
4 4 2 3 25 63 98 82 50 31 63 67 39 22 20 22 22 22 21 20 19 18 18 17 18 18 17 16 22 22 24 24 22 22 21 23 16 15 18 18 21 21 21 34 31
4 6 4 3 23 100 100 100 92 43 38 58 64 50 27 22 20 20 19 18 18 17 16 16 18 23 25 26 27 25 25 27 33 37 34 29 33 15 17 20 24 39 34 25 38
17 7 5 4 90 100 100 100 100 60 34 30 48 57 57 47 35 31 30 28 32 33 36 36 35 30 29 29 29 31 44 44 32 19 21 19 16 24 26 26 26 35 47 39 28
74 7 6 4 100 100 100 100 100 76 54 33 23 32 47 54 53 50 47 45 44 42 38 31 29 30 31 39 48 36 15 13 15 16 16 14 17 9 10 11 19 26 39 50 39
57 12 8 3 100 100 100 100 100 66 58 49 33 26 32 34 39 34 28 28 34 27 26 27 30 37 50 41 17 18 21 18 23 31 30 28 20 22 27 21 17 11 29 50 58
90 34 7 3 100 100 100 100 95 77 68 55 40 30 28 31 29 28 26 29 32 30 32 31 31 46 21 13 18 23 29 35 38 46 55 40 41 38 31 50 37 20 10 39 54
83 26 11 5 100 100 100 100 100 87 70 76 46 38 32 33 34 32 33 33 31 37 33 31 43 20 16 26 38 48 54 74 94 96 95 72 63 36 50 50 36 27 16 25 53
65 20 5 19 100 100 100 99 85 93 94 57 50 37 34 34 32 33 33 30 30 31 28 55 32 20 32 57 49 59 76 96 100 99 99 98 66 60 67 49 29 47 42 33 58
78 92 8 11 98 92 100 100 100 100 100 55 35 35 32 29 26 30 34 25 30 29 52 61 14 31 39 44 63 75 90 100 100 100 100 100 52 96 70 49 64 94 68 61 57
91 99 46 66 97 98 100 99 99 100 100 76 35 23 22 24 25 29 28 31 30 47 74 22 31 35 40 62 76 77 98 100 100 100 98 100 51 85 79 56 89 100 89 74 53
65 82 48 65 99 96 86 85 88 98 100 99 57 37 25 26 24 24 36 34 43 80 44 28 41 35 62 69 95 92 99 99 82 46 74 96 44 67 55 80 97 100 98 82 41
100 97 63 93 100 100 83 82 98 100 100 88 71 57 44 40 35 32 36 47 83 47 30 32 35 69 84 88 98 99 98 98 78 20 23 52 35 25 52 98 100 98 80 54 31
98 100 100 100 95 92 75 98 98 93 99 90 74 66 54 42 43 41 70 87 42 31 38 35 65 84 96 98 96 99 96 93 37 32 37 36 66 76 100 100 93 72 41 35 62
95 97 100 100 97 81 96 100 100 100 88 85 71 60 52 53 42 59 92 89 34 44 56 51 75 86 86 91 94 88 99 96 74 21 41 81 97 90 91 72 48 50 57 73 70

GFSSW_500_rhum_042.txt.gz
RH
51 57 55 89 67 18 27 30 32 28 27 23 18 17 15 12 10 6 6 5 5 7 10 11 11 12 10 8 9 10 9 8 12 14 12 14 15 14 12 12 14 16 15 16 29
33 50 55 55 36 85 40 33 37 35 32 25 18 18 16 15 13 7 6 6 8 12 12 12 11 10 9 9 10 9 8 11 12 13 12 12 13 13 10 8 10 15 16 15 17
4 11 35 51 53 27 54 60 43 40 34 25 18 17 16 14 12 9 6 7 9 15 15 13 11 8 7 10 10 9 10 10 11 11 10 10 9 8 8 9 10 11 11 11 13
6 4 6 26 57 33 47 52 46 38 36 22 20 17 15 14 13 13 8 6 10 16 20 14 10 6 8 10 10 10 12 10 11 11 10 8 8 9 9 12 11 12 12 13 12
11 8 6 5 22 52 29 57 43 28 20 22 19 17 16 14 14 14 11 9 13 15 12 10 7 7 10 11 11 12 14 12 11 11 12 12 12 12 11 14 14 12 13 14 14
8 8 6 7 4 20 41 48 52 26 23 23 20 18 17 16 16 17 15 12 13 12 9 12 8 10 11 11 11 14 15 16 15 13 11 13 15 10 13 16 16 14 13 13 15
8 7 6 5 5 4 30 37 61 31 24 25 21 21 20 19 19 23 20 14 14 13 12 16 12 11 13 12 10 12 15 14 19 18 15 14 13 11 17 19 16 16 16 14 13
7 6 6 5 4 4 5 43 54 51 24 26 23 22 22 22 22 24 31 28 20 17 15 18 16 13 14 11 11 12 11 10 13 12 12 12 13 16 18 16 13 15 15 16 14
6 4 4 4 4 4 4 30 39 56 33 27 25 22 21 22 25 28 30 31 24 21 18 17 17 12 10 10 8 8 8 8 9 9 9 9 8 14 18 17 15 14 15 14 16
3 2 1 2 3 3 3 5 52 46 60 29 26 22 19 20 22 24 26 28 24 19 16 14 11 10 12 12 9 7 7 7 8 8 8 6 4 8 11 12 13 15 15 16 18
2 3 3 2 2 3 6 87 36 39 65 49 27 23 20 18 18 17 17 18 18 17 15 12 11 14 12 10 9 8 8 7 7 8 6 6 4 5 10 13 10 13 15 18 20
3 4 4 3 2 3 16 74 20 59 72 79 27 26 19 17 17 16 16 16 14 12 11 10 11 12 12 12 10 9 8 8 7 9 7 6 5 9 11 14 16 14 12 14 19
8 7 5 4 2 3 63 100 100 63 62 87 44 25 24 17 16 16 16 17 16 14 14 13 13 15 14 12 11 12 10 16 15 15 14 13 7 12 12 14 15 18 16 15 17
42 36 4 4 4 5 100 100 100 100 73 82 69 29 24 22 17 16 16 17 17 17 16 16 17 15 14 14 16 16 18 17 17 18 18 17 13 12 14 15 17 22 21 17 16
100 95 7 6 5 41 100 100 100 100 88 54 73 49 23 23 21 20 20 20 19 19 19 17 18 18 17 18 17 19 21 25 24 22 20 20 23 7 16 17 23 20 21 23 20
95 100 54 6 6 100 100 100 100 100 92 51 59 64 41 22 22 21 21 21 21 21 20 18 17 19 26 32 34 31 26 28 28 32 27 25 21 12 16 16 18 22 27 30 29
68 100 81 11 10 100 100 100 100 100 81 69 42 64 62 45 24 21 21 21 21 22 22 30 36 40 39 32 27 27 31 39 35 22 19 16 15 13 16 15 15 15 21 14 27
94 97 47 8 4 61 100 100 100 89 76 74 51 37 60 62 55 48 34 32 33 42 45 42 38 30 31 30 34 40 38 18 16 16 23 24 18 25 30 26 19 21 28 19 13
97 99 30 6 66 100 100 99 100 91 100 96 57 33 32 52 56 56 55 53 49 42 32 24 28 31 33 40 44 25 16 19 27 40 46 46 39 38 62 55 45 47 40 29 16
94 85 14 4 66 100 99 100 100 100 100 94 75 51 30 34 37 41 41 35 29 27 27 29 30 34 48 45 16 16 27 45 60 63 72 61 58 56 70 72 74 58 51 32 16
84 40 9 4 41 100 100 100 100 100 100 99 94 73 42 31 32 33 32 33 34 33 29 27 32 44 54 21 20 34 49 69 96 93 99 85 44 82 92 99 99 93 65 43 38
100 100 6 5 88 100 100 100 100 100 100 96 90 77 62 39 34 33 35 35 36 33 26 29 31 54 23 29 41 43 67 89 100 100 98 94 22 97 100 100 74 93 74 38 36
99 71 34 73 100 100 100 100 100 100 100 95 68 69 70 56 36 34 36 32 30 27 27 33 49 26 38 52 51 85 100 98 99 99 87 86 32 84 90 99 96 88 60 43 28
100 96 76 99 100 98 97 100 99 100 100 98 70 55 52 65 55 36 33 28 27 25 30 48 30 37 46 64 88 99 95 100 98 91 84 32 24 30 62 76 69 56 46 95 82
100 79 42 99 100 100 99 100 98 100 100 97 80 46 37 37 38 30 24 24 27 35 39 32 38 57 71 100 98 97 96 90 100 85 26 30 48 31 32 38 75 85 99 97 91
100 77 65 98 97 99 85 82 92 100 97 100 95 62 36 24 24 30 25 26 30 39 47 31 71 79 95 93 88 82 99 92 86 77 43 48 72 80 70 95 100 97 83 90 84
100 99 84 98 79 79 74 97 99 100 95 90 82 64 52 44 40 30 38 37 40 55 21 60 68 93 82 80 72 87 99 96 78 33 45 68 80 88 100 100 100 97 97 91 89

GFSSW_500_rhum_045.txt.gz
RH
4 8 31 52 55 61 92 40 38 39 38 34 30 26 21 18 18 15 13 8 7 9 11 11 11 9 9 11 11 12 10 9 11 12 13 13 9 14 12 13 12 13 14 11 14
6 5 4 8 41 51 54 91 44 43 36 36 34 30 26 20 17 16 15 11 8 6 7 8 9 8 10 11 11 11 9 9 12 12 13 12 10 12 10 12 12 12 12 13 16
16 13 8 7 4 13 34 54 87 71 46 39 39 35 26 21 17 18 15 12 10 6 5 6 6 9 12 11 12 10 7 12 10 12 12 11 8 11 10 11 11 10 10 9 12
18 15 11 10 8 6 10 25 43 60 76 57 41 35 28 19 18 18 17 15 11 7 5 5 8 12 14 12 13 9 8 11 10 10 10 10 8 8 9 10 10 8 7 8 13
22 19 15 10 8 7 6 6 38 31 54 65 47 33 27 22 18 17 16 15 12 8 6 11 15 14 14 14 10 7 9 11 11 10 11 8 8 9 7 9 8 8 10 9 11
24 20 14 10 9 7 5 5 5 34 56 48 38 29 26 22 20 16 15 15 13 10 9 11 19 16 17 14 8 7 12 11 11 12 10 8 9 7 8 10 9 10 11 11 11
20 16 13 10 9 8 7 5 4 9 45 58 25 26 25 22 21 19 16 14 14 12 12 16 17 18 14 11 8 11 12 12 13 14 11 10 9 8 12 11 10 10 10 12 13
14 14 14 12 10 9 6 6 4 4 34 59 32 27 27 23 22 20 18 16 15 15 14 17 16 13 10 11 22 14 14 14 14 15 12 11 11 11 13 13 12 12 12 12 12
10 7 6 6 7 8 6 5 4 26 16 53 56 27 32 25 25 24 22 19 18 19 20 22 18 15 14 21 24 20 16 17 15 13 10 10 9 13 12 15 13 14 14 14 13
8 5 3 2 2 3 4 3 4 35 6 46 72 32 32 27 25 26 26 24 25 30 29 33 28 23 23 24 30 21 16 14 13 10 8 7 6 8 8 11 9 10 10 11 12
4 2 2 2 3 2 2 2 27 100 64 34 60 37 38 29 26 26 28 31 31 36 38 39 34 41 36 26 22 16 12 10 10 9 8 6 5 5 6 6 7 8 9 10 10
3 6 11 9 6 4 3 3 60 100 100 44 61 51 43 31 25 23 26 31 32 40 36 39 33 29 19 16 13 12 11 10 11 10 8 7 5 5 5 5 6 8 10 14 16
20 18 36 53 12 6 4 5 100 100 100 53 69 93 36 33 26 21 22 24 28 30 28 25 23 21 18 15 13 12 11 11 10 9 8 6 4 6 5 5 7 10 11 10 12
62 92 100 100 22 9 4 83 100 100 100 77 65 90 36 30 27 21 19 20 19 19 17 16 18 18 16 15 14 12 12 12 10 9 9 8 6 7 10 11 13 14 15 15 16
48 72 100 91 65 22 4 100 100 100 100 73 81 86 52 29 25 22 18 18 19 18 18 16 16 17 18 19 16 15 14 15 15 16 15 17 18 7 12 12 12 14 15 18 20
100 100 64 100 82 19 9 100 100 100 100 65 68 78 70 26 26 24 18 17 17 18 19 17 18 19 20 19 18 17 17 21 24 25 19 18 19 9 12 15 15 14 14 13 14
100 100 90 80 50 6 32 100 100 100 99 80 63 69 88 35 24 24 21 18 19 20 20 21 20 20 18 18 23 26 35 29 24 20 15 20 17 11 12 15 15 21 22 21 17
81 100 91 83 21 5 66 100 100 100 100 86 74 65 93 58 26 23 23 22 21 21 21 21 20 22 33 34 35 30 23 31 25 24 21 17 9 11 20 23 28 37 38 31 26
100 89 83 60 6 32 100 100 100 100 100 96 78 57 88 70 47 24 22 22 22 22 24 26 30 40 41 35 27 25 32 33 28 20 15 15 20 23 28 50 58 46 38 40 45
100 91 93 22 5 75 99 100 100 100 100 100 90 70 47 70 59 53 42 40 38 36 37 45 45 36 28 30 30 29 35 29 19 22 26 23 25 54 60 74 66 53 36 31 40
100 99 96 74 13 100 100 100 100 100 100 100 97 74 40 49 61 62 60 58 57 55 51 43 28 30 31 30 33 40 27 22 30 37 60 45 29 81 95 77 42 22 21 36 64
100 100 88 75 80 99 100 100 100 100 100 100 98 65 45 40 45 70 63 57 51 43 32 30 32 29 35 41 40 21 32 47 67 89 90 82 28 99 90 48 30 20 21 50 99
92 86 46 61 78 100 100 100 99 100 100 96 97 80 54 42 38 38 38 38 35 34 35 35 30 35 47 35 24 36 71 82 80 87 78 90 50 96 34 35 28 27 38 78 74
99 63 51 91 100 100 99 93 92 100 100 96 95 94 76 49 42 39 38 35 34 35 33 28 23 43 32 30 44 77 85 86 97 85 69 56 30 55 52 50 57 44 68 56 80
94 86 66 89 96 100 98 100 100 100 100 95 88 78 78 75 62 42 36 32 33 34 27 19 45 37 25 72 80 84 94 100 99 98 57 34 48 73 93 86 91 95 100 94 62
64 100 100 89 93 98 97 100 100 100 100 90 83 67 63 65 64 62 61 49 39 27 18 29 44 27 57 77 77 94 100 100 100 73 32 41 56 67 86 82 100 100 100 100 97
94 89 97 94 97 99 100 100 93 92 99 85 83 72 48 47 47 50 54 48 30 17 24 46 27 41 84 76 75 88 92 96 80 44 34 42 53 66 79 95 96 99 96 96 95

GFSSW_500_rhum_048.txt.gz
RH
12 10 6 5 4 10 43 53 73 41 42 42 37 32 30 27 23 21 18 17 10 10 12 14 15 15 15 15 13 12 9 9 9 11 12 12 13 11 9 12 11 10 13 12 11
28 20 18 15 9 6 5 27 40 65 54 49 45 39 33 30 24 22 22 17 16 10 9 11 12 13 14 15 13 10 10 10 11 13 11 11 11 11 8 12 10 11 14 10 12
30 31 26 20 17 12 8 6 8 20 56 64 52 47 43 32 25 26 22 21 18 16 10 8 9 10 12 12 11 10 8 11 12 13 9 9 9 10 9 11 11 11 12 11 12
32 29 26 24 20 16 12 8 6 6 11 53 76 66 46 38 30 26 23 20 20 17 14 9 8 8 9 10 10 9 10 13 13 11 7 8 10 9 8 10 10 9 9 8 8
26 30 30 27 24 22 18 11 7 6 5 23 55 83 72 43 37 28 23 21 19 16 15 12 9 7 7 7 8 7 11 14 13 9 8 9 8 8 6 7 12 10 9 8 7
24 23 26 26 26 24 20 14 10 7 6 5 37 48 91 57 34 29 24 20 19 18 17 14 10 9 7 7 6 6 12 14 12 9 8 9 9 8 6 11 8 8 7 7 7
16 23 19 18 18 19 18 16 11 9 6 5 21 41 52 79 40 31 24 19 19 18 17 16 12 12 10 11 9 11 14 15 11 10 10 9 8 8 8 8 7 6 7 7 8
19 13 14 15 11 9 11 16 13 10 8 5 9 30 49 39 59 28 26 20 17 17 17 16 14 16 14 12 18 18 14 15 14 12 11 10 8 9 8 8 8 8 8 8 9
26 22 16 15 17 14 11 8 9 10 8 7 5 25 48 41 32 31 25 22 19 17 16 16 15 16 15 18 25 20 16 12 15 13 12 11 10 12 9 10 9 10 10 10 11
19 15 14 9 5 3 2 2 4 6 5 84 6 15 33 46 31 28 26 24 20 22 19 17 16 15 17 19 19 18 14 12 18 14 14 11 9 13 10 12 10 9 10 9 10
8 4 3 3 4 4 3 2 2 4 5 38 34 18 46 52 33 33 29 26 24 22 21 23 19 18 29 25 27 18 13 20 23 23 19 14 10 10 10 7 10 8 7 9 9
5 6 14 19 39 32 12 3 4 8 38 100 100 91 40 89 40 35 30 27 26 29 27 26 28 50 30 26 30 21 28 35 32 27 19 14 9 7 7 6 5 6 6 6 6
7 40 75 91 100 96 48 6 4 73 100 100 100 60 57 83 49 36 32 31 36 42 32 39 48 48 48 46 47 42 34 25 20 16 12 10 7 7 6 6 6 6 6 5 5
49 53 61 92 100 100 82 63 8 100 99 100 94 100 62 84 53 38 31 31 35 38 44 46 48 47 45 36 28 23 18 16 14 13 11 10 6 6 6 5 6 8 8 8 8
95 100 100 100 82 100 98 17 87 100 100 99 100 100 72 82 60 38 30 28 32 34 38 41 39 33 29 26 20 18 16 15 14 12 10 9 7 4 5 6 8 10 11 14 14
93 84 98 100 86 95 43 12 100 100 100 98 100 96 68 74 68 36 28 26 26 24 25 25 21 23 22 20 18 17 18 17 15 12 8 9 12 4 8 9 12 14 14 15 13
76 84 88 100 100 76 17 58 100 100 100 90 96 100 80 82 44 30 26 23 23 24 22 21 24 23 20 19 19 18 18 17 16 15 13 16 13 10 13 13 13 14 14 12 15
87 99 100 93 87 33 14 86 99 100 100 100 100 87 84 85 45 32 26 23 22 21 21 21 21 21 21 20 19 19 20 32 22 18 18 15 11 12 12 11 15 18 22 27 28
92 100 100 87 76 12 25 94 100 100 100 93 98 70 81 94 59 27 26 24 21 21 22 24 21 21 21 22 27 32 31 28 23 21 16 15 15 12 17 19 29 33 30 36 62
97 100 100 81 34 14 86 100 100 98 100 100 97 70 72 78 63 26 25 24 25 26 23 22 22 23 31 38 36 33 29 24 24 23 22 16 14 22 47 56 48 48 55 62 63
100 100 100 75 15 47 100 100 100 100 100 100 100 87 68 78 72 39 25 25 24 24 23 25 27 37 43 38 30 25 25 26 27 26 24 17 29 72 76 85 74 68 69 58 46
100 100 98 61 22 90 100 100 100 97 100 98 88 89 66 85 92 67 50 31 28 33 41 45 51 50 35 28 26 23 31 32 22 33 39 58 24 84 87 64 52 43 49 48 42
84 45 52 58 97 100 100 100 100 100 100 100 96 71 51 69 92 70 63 59 59 58 57 55 47 32 32 29 21 28 29 24 36 61 76 63 67 97 43 48 61 65 80 70 65
82 61 70 89 100 100 100 100 100 100 100 100 100 72 48 60 83 65 69 70 67 59 49 40 36 34 29 19 29 28 46 60 71 67 69 70 36 40 53 79 81 81 96 88 100
75 67 71 98 100 100 100 100 100 100 99 98 95 83 50 45 47 50 52 48 45 41 37 37 30 25 17 34 37 48 86 90 79 75 66 54 31 35 43 70 78 83 100 100 99
100 100 99 97 100 100 100 100 100 100 100 95 97 96 65 51 41 43 41 40 38 34 33 34 19 16 49 33 31 81 82 83 78 83 65 36 37 32 34 70 67 93 83 93 100
64 96 98 90 98 100 100 100 100 89 96 95 80 69 77 79 74 62 49 41 42 42 43 33 10 34 37 34 73 87 78 74 76 100 74 65 48 34 25 34 62 91 94 75 67

GFSSW_500_rhum_051.txt.gz
RH
16 21 28 30 19 14 8 6 5 35 52 82 45 38 33 32 34 25 19 20 16 12 15 17 16 15 16 16 15 15 10 8 9 10 13 14 12 11 9 8 12 12 10 10 10
15 16 21 26 32 25 18 14 9 5 19 44 92 60 39 33 32 28 29 22 20 18 12 16 19 19 15 16 15 13 10 9 10 15 15 13 12 10 9 8 9 12 10 11 11
19 18 16 19 23 29 24 19 16 10 6 7 32 84 75 38 32 35 31 26 23 21 18 12 14 16 16 17 14 13 10 11 14 16 13 10 10 9 8 8 8 13 11 11 11
20 18 18 17 20 22 28 25 20 16 10 7 7 29 66 56 34 34 31 30 26 24 20 18 12 12 14 15 16 13 13 12 14 14 12 11 10 8 8 8 8 10 12 8 9
16 15 13 16 17 23 24 29 27 23 16 9 6 5 34 61 45 38 36 33 30 24 22 21 18 11 10 12 14 13 13 12 12 11 10 11 10 9 8 8 10 10 10 8 7
10 9 13 20 18 20 25 26 30 28 23 15 8 6 8 57 67 48 45 38 29 26 23 23 20 17 11 9 9 10 11 10 10 9 9 12 11 8 7 9 10 8 7 7 6
13 14 14 12 17 19 21 24 26 27 22 18 12 8 5 34 68 70 40 42 30 26 24 22 22 18 15 10 8 8 8 9 9 10 11 14 9 6 9 9 7 8 7 6 6
16 15 13 14 11 14 14 18 22 22 20 15 13 10 6 20 47 75 56 34 31 25 24 34 77 22 16 13 10 8 8 8 13 12 12 13 7 9 10 8 7 7 7 6 6
16 10 8 7 6 6 6 12 19 20 17 15 13 12 8 12 39 57 96 38 30 25 22 22 27 22 17 14 12 12 11 11 15 13 12 12 8 11 8 8 7 7 7 7 8
6 7 12 10 8 6 5 4 6 16 16 16 17 13 10 11 38 55 75 75 31 27 23 21 20 19 17 16 14 25 17 15 14 14 13 11 8 10 10 9 9 8 8 8 9
9 13 10 12 18 20 45 9 4 3 18 17 16 12 13 14 35 57 40 94 32 27 24 21 18 17 21 20 19 15 16 22 23 17 15 12 8 10 12 9 10 10 10 9 9
15 14 26 47 71 88 100 61 12 8 4 13 50 13 12 65 39 57 42 50 76 34 24 20 19 34 19 18 16 12 15 20 23 18 13 12 9 11 15 10 10 11 10 9 8
29 50 69 92 87 97 100 100 36 4 6 21 19 85 85 32 41 58 43 36 36 30 25 23 29 30 24 22 24 21 20 24 21 20 14 11 9 15 15 14 13 11 8 8 7
76 86 96 94 99 91 94 100 56 5 39 100 100 99 61 88 59 69 47 40 34 31 30 28 23 22 29 42 38 30 25 33 38 35 23 20 10 14 15 13 10 8 7 6 6
82 68 67 76 93 100 92 100 23 8 99 100 100 95 100 100 56 65 66 36 31 30 30 37 37 38 50 56 45 43 44 38 31 26 23 18 13 11 11 8 7 7 6 7 7
68 77 96 100 78 100 87 96 16 91 100 100 100 92 99 77 53 75 62 38 33 31 38 41 53 61 58 51 41 33 28 22 19 16 15 13 11 8 8 7 6 6 7 11 13
66 84 97 94 89 86 67 27 100 95 100 100 100 97 94 85 52 75 68 39 27 27 34 44 55 47 38 31 26 22 20 18 16 13 11 10 9 7 7 8 8 10 13 12 13
85 96 94 81 80 75 31 71 100 100 100 100 100 98 98 96 69 80 76 34 30 30 35 38 35 31 25 25 22 21 20 18 15 13 13 10 6 8 13 15 16 16 18 20 17
86 89 99 75 64 18 67 100 99 100 91 91 100 100 98 79 66 85 52 32 29 32 36 29 29 26 24 22 22 22 21 20 21 20 14 16 12 14 16 16 19 17 21 27 34
78 91 68 59 14 43 90 100 100 100 100 100 98 95 90 66 74 69 34 32 28 30 28 26 26 25 24 23 24 26 26 26 28 22 18 15 14 14 26 31 27 31 36 28 24
77 66 20 17 71 99 100 100 100 100 99 100 95 89 76 74 84 45 33 32 28 25 23 24 24 26 27 26 24 32 35 28 24 20 18 15 14 45 38 38 52 42 31 33 41
24 20 10 69 95 100 100 100 100 100 100 100 100 94 73 84 94 51 29 30 29 26 24 25 24 28 29 34 38 35 26 21 18 22 25 20 26 64 65 61 32 34 53 62 60
10 29 74 98 100 100 100 100 100 100 100 90 83 76 70 96 96 76 30 27 26 25 24 27 28 39 43 45 34 27 23 26 26 24 29 30 73 62 45 28 25 37 44 59 76
18 44 96 100 100 100 100 96 100 100 96 87 86 77 78 85 88 70 45 30 27 28 35 41 52 50 43 34 28 21 27 34 27 54 62 71 64 56 34 28 26 34 53 84 82
60 93 99 99 99 99 99 99 100 100 94 91 73 64 58 76 94 77 67 61 59 59 60 57 47 37 32 31 19 30 41 30 65 80 64 65 74 48 38 31 34 51 53 54 67
90 94 83 97 100 100 100 100 100 99 95 90 95 52 56 78 90 73 67 69 69 64 54 41 36 32 28 16 22 29 32 89 81 74 61 79 76 55 35 30 52 45 40 62 83
59 63 75 92 97 100 100 100 96 92 92 99 98 93 59 55 68 69 62 59 50 44 37 32 36 23 14 27 32 46 81 78 84 76 77 77 62 41 35 46 59 53 55 64 72

GFSSW_500_rhum_054.txt.gz
RH
34 32 28 20 18 15 19 32 24 13 7 7 38 83 66 74 29 29 26 29 25 21 16 21 20 20 17 13 13 14 12 10 8 10 14 16 13 13 10 9 7 7 6 6 6
23 29 28 21 17 15 15 16 30 28 17 10 5 30 91 63 47 24 39 28 26 25 20 17 24 21 17 17 15 12 8 9 10 14 15 17 13 13 11 9 8 8 8 9 9
26 26 21 15 12 9 12 17 15 30 26 18 11 6 27 93 47 39 32 33 28 28 26 18 16 21 18 18 13 12 8 11 14 16 15 14 12 12 10 10 10 8 9 11 9
28 28 22 16 12 12 11 12 17 18 29 23 17 9 6 37 82 53 34 37 36 30 27 24 16 15 20 19 16 13 12 13 15 16 13 11 12 11 10 9 10 9 9 10 8
32 28 20 16 13 12 12 14 17 24 29 28 23 17 8 7 67 82 52 40 39 38 29 27 23 17 14 18 21 16 13 15 16 16 13 11 9 12 10 10 10 11 9 8 6
33 29 24 14 11 10 14 14 19 24 31 34 31 26 14 8 36 96 77 50 37 36 35 29 25 23 18 13 16 16 17 16 15 14 12 12 11 11 11 12 12 11 8 8 5
36 32 23 14 9 8 8 18 16 33 35 42 37 32 21 10 11 56 99 67 59 49 36 33 28 24 22 20 12 12 14 16 15 17 16 14 10 8 11 14 11 8 6 7 6
33 22 10 7 9 11 11 9 9 24 43 45 45 35 24 17 8 18 98 97 45 44 44 45 31 25 24 20 18 13 10 11 13 14 14 13 7 7 11 13 9 6 7 7 7
20 9 8 9 12 12 11 10 11 9 32 44 45 36 26 33 12 14 71 100 70 58 64 68 75 66 32 20 18 17 12 10 11 10 10 10 7 8 10 11 8 7 7 8 8
9 7 7 11 16 23 29 25 9 8 11 37 42 37 26 26 17 12 46 94 96 46 75 59 77 85 93 46 19 18 16 13 10 9 8 8 7 7 8 10 10 8 8 8 8
7 7 16 28 61 74 94 71 38 17 6 17 35 33 24 26 24 18 46 89 99 77 63 67 55 49 69 65 42 21 16 14 12 10 8 7 7 9 12 11 10 9 11 10 9
8 20 48 78 87 75 73 85 84 49 10 7 23 31 23 32 31 21 43 75 93 90 71 41 42 36 34 25 22 18 15 15 14 10 8 9 7 12 13 11 10 10 12 16 12
17 46 65 69 79 79 76 100 100 47 20 5 15 24 22 23 53 37 47 74 72 100 44 34 33 29 24 22 20 18 17 17 15 12 8 11 9 13 15 11 11 12 13 14 16
45 57 67 68 87 70 82 80 95 79 19 37 91 81 91 20 87 60 60 66 81 86 74 36 35 46 25 21 21 17 18 17 14 14 10 11 7 15 14 14 14 14 16 19 16
62 69 80 91 76 94 97 76 86 34 14 100 92 39 60 44 50 44 48 62 60 63 84 62 51 39 25 29 25 26 25 23 18 15 13 15 9 17 19 20 20 20 19 16 12
88 93 100 100 94 88 88 100 38 24 51 100 100 100 75 36 61 63 42 56 48 45 42 43 40 38 34 28 32 47 49 38 31 25 14 21 13 14 15 15 15 14 12 10 9
100 100 100 98 86 77 60 50 38 88 100 100 100 89 94 48 46 36 45 60 47 44 35 37 40 44 42 34 46 53 47 39 32 26 20 18 15 14 12 11 10 10 9 8 8
84 93 63 77 72 45 28 55 98 100 100 100 100 92 69 90 87 48 59 72 44 41 47 49 55 62 53 54 49 37 31 25 20 18 16 14 12 12 11 14 11 10 9 9 9
66 37 48 30 26 69 100 96 100 100 100 100 100 100 100 92 63 58 79 53 44 41 42 45 50 52 50 40 32 25 21 20 18 15 12 12 11 16 17 20 18 16 15 13 12
15 13 19 58 92 99 100 100 96 100 99 99 81 98 93 70 53 64 80 64 40 36 40 40 42 35 31 28 25 22 21 21 21 17 17 18 20 20 18 16 15 16 19 26 27
25 33 52 77 98 100 100 100 100 92 95 100 91 78 94 89 67 74 94 54 37 33 34 34 35 28 26 26 24 22 26 31 31 27 23 19 22 24 23 18 19 29 30 27 22
51 57 94 100 100 100 100 100 100 90 72 74 67 98 92 79 77 94 67 37 32 26 30 32 28 28 25 23 25 30 35 34 27 23 20 22 34 29 23 26 42 32 25 20 28
73 100 100 100 98 99 100 100 92 73 74 96 90 92 95 96 100 72 36 34 28 25 27 27 26 27 26 32 42 43 32 27 22 22 29 25 68 59 46 54 40 30 24 28 37
78 85 98 82 89 100 100 98 93 85 88 89 80 69 85 99 98 64 31 29 27 26 28 27 28 31 41 44 41 32 29 24 21 34 26 79 69 69 56 47 41 37 34 46 42
80 86 61 59 76 95 96 100 100 95 98 87 82 85 86 85 78 55 31 28 27 26 26 31 47 53 52 40 32 30 24 18 33 34 61 78 63 61 62 60 35 29 51 48 44
65 58 58 64 72 77 88 100 98 82 78 71 72 73 91 100 93 82 71 49 42 48 58 61 56 46 36 32 31 22 26 29 35 74 62 54 72 64 55 24 33 41 44 44 48
46 58 66 59 65 67 62 72 79 82 85 77 58 70 81 100 94 76 70 67 67 67 67 58 41 34 32 26 17 31 31 45 77 67 62 70 81 66 30 47 46 49 56 57 54

GFSSW_500_rhum_057.txt.gz
RH
23 26 24 24 21 25 24 20 18 14 18 27 16 6 17 50 88 84 82 46 31 31 26 22 27 26 21 26 32 32 24 15 16 21 20 13 9 7 5 6 6 4 6 6 5
20 23 24 23 25 24 24 18 16 16 14 18 28 20 8 18 47 85 70 59 35 30 29 25 23 28 22 17 15 19 18 16 23 24 15 12 9 8 8 7 6 5 6 6 6
26 28 27 28 30 27 24 20 17 16 16 14 21 29 20 8 17 76 91 61 39 33 31 31 24 21 25 21 13 11 11 13 19 19 14 16 11 10 9 8 7 6 7 7 7
32 35 31 28 27 30 29 25 20 16 17 19 16 24 25 19 9 32 97 78 40 39 33 31 29 20 19 22 16 12 9 10 16 18 16 15 13 11 10 11 9 8 8 7 8
42 34 26 26 22 20 20 22 22 18 16 22 21 23 29 25 12 14 90 97 55 41 39 32 30 28 19 21 25 16 13 14 18 19 16 14 12 12 10 12 9 10 9 9 9
42 26 22 19 15 12 9 8 10 16 22 24 28 28 29 22 26 8 50 99 97 41 43 37 30 31 28 18 20 21 18 17 20 18 16 14 13 13 11 12 10 11 10 8 9
30 22 17 12 7 8 8 9 10 10 15 40 36 36 27 21 30 12 25 80 99 62 40 44 38 30 29 26 18 17 20 20 17 18 17 16 13 10 11 12 12 13 11 9 7
22 17 11 8 8 9 12 12 12 13 12 27 53 43 25 26 31 22 13 54 100 92 66 60 53 38 30 27 24 17 15 18 19 20 18 17 9 11 10 14 12 10 11 10 8
18 12 10 11 17 27 40 64 50 16 13 11 52 52 26 38 32 28 16 39 100 99 96 87 78 53 33 28 26 22 16 13 14 16 18 15 9 13 12 12 9 8 9 10 9
12 13 28 30 39 50 76 84 82 55 41 13 24 55 31 41 37 45 17 32 83 99 99 99 86 74 48 29 24 23 20 18 16 13 12 12 8 12 12 11 9 9 8 10 10
13 32 59 53 58 74 74 88 100 80 62 25 13 48 42 47 53 50 20 22 56 99 92 91 82 69 99 51 28 28 22 20 19 17 11 9 8 9 10 10 10 9 10 11 10
29 74 78 74 78 78 86 89 95 100 78 24 13 48 55 45 38 100 42 20 42 98 94 78 97 100 79 99 98 40 22 21 21 17 13 11 8 8 8 8 9 9 9 12 11
66 94 100 100 100 98 77 84 85 79 74 16 12 41 65 44 70 70 34 18 45 97 100 85 73 96 97 96 99 95 68 38 30 18 14 13 10 9 10 7 8 9 10 12 12
87 99 100 100 100 100 91 74 81 74 99 11 18 40 61 54 44 37 42 50 72 98 99 97 79 93 78 54 56 60 26 23 21 18 13 13 10 12 11 12 11 11 12 13 12
63 95 100 100 100 100 98 92 82 77 61 13 31 100 100 96 65 41 41 66 72 96 92 92 90 75 72 36 26 23 22 20 18 16 16 15 12 16 16 15 15 16 14 14 12
39 100 99 95 100 97 68 74 77 74 100 30 61 90 86 48 51 50 32 63 87 100 100 94 55 59 52 43 30 23 22 21 18 17 15 16 12 18 19 20 19 18 16 16 17
25 43 53 66 67 58 47 36 74 99 25 58 97 100 49 36 32 56 37 37 67 85 79 96 68 53 48 61 36 26 27 25 23 18 18 20 15 23 17 17 17 16 16 16 16
7 10 14 12 29 49 76 98 100 100 100 99 100 96 74 25 34 56 51 49 59 65 77 74 67 62 66 46 44 47 40 38 28 29 27 23 20 19 17 14 13 13 12 11 11
26 12 12 55 99 100 100 100 100 100 92 99 100 100 62 26 28 62 54 59 55 64 95 62 51 41 44 48 59 53 38 37 32 27 22 18 17 17 17 16 15 12 11 10 10
70 92 93 100 95 92 99 93 100 100 100 100 80 49 28 41 60 53 51 66 70 83 78 57 49 54 60 63 56 45 39 30 24 20 18 18 22 27 25 23 20 18 14 13 13
80 100 99 98 67 77 93 100 100 100 78 59 43 27 91 81 76 60 76 89 65 57 40 46 53 59 60 52 41 33 27 24 23 21 20 24 29 25 21 19 17 15 18 16 15
66 75 78 74 50 59 80 87 96 100 98 100 100 100 93 70 65 76 96 66 48 37 44 45 48 44 39 30 26 24 24 26 31 31 27 26 28 22 20 16 17 22 16 24 25
59 64 88 97 74 44 52 57 88 100 100 99 100 100 100 89 76 86 98 63 38 37 41 40 38 34 29 28 28 32 40 38 33 28 25 27 29 24 18 22 30 19 28 30 26
52 80 76 76 100 68 29 47 58 76 82 91 98 93 84 81 80 96 79 40 36 31 34 33 31 30 28 31 37 43 43 35 29 27 26 33 37 30 39 49 48 41 33 25 30
25 48 50 72 93 79 56 53 56 80 64 71 82 80 92 96 97 67 38 34 32 30 31 30 30 30 33 43 46 42 35 30 28 18 32 50 73 72 62 56 54 32 26 41 41
29 44 41 45 56 75 100 80 80 75 73 73 66 78 96 100 96 72 39 32 33 31 30 29 33 40 50 51 41 34 32 27 23 29 67 75 71 59 60 60 31 43 47 44 43
49 64 56 53 46 49 62 64 72 70 71 74 73 84 88 100 94 62 34 30 29 31 28 41 51 55 47 37 35 29 23 33 31 49 72 68 65 70 62 30 56 51 45 51 33

GFSSW_500_rhum_060.txt.gz
RH
32 33 32 32 36 41 31 23 20 22 25 22 16 15 25 10 12 45 72 81 58 55 41 35 26 29 52 76 56 44 32 20 18 20 21 27 25 23 16 13 10 8 5 6 6
38 37 37 39 46 45 30 26 22 21 24 26 19 13 16 28 8 11 76 96 95 70 64 36 33 26 26 44 56 49 29 22 24 26 24 31 24 20 16 13 10 7 5 7 7
44 44 42 45 51 37 28 29 28 24 22 26 25 20 13 18 28 8 22 84 98 92 90 47 37 32 24 27 30 46 32 28 27 34 34 35 26 19 15 12 9 7 6 7 8
52 50 47 49 42 28 21 20 22 33 33 24 33 28 18 13 18 20 10 34 94 97 94 70 36 34 24 23 20 22 34 27 30 38 38 40 28 19 15 12 9 8 6 7 9
58 50 54 50 34 19 16 12 10 9 12 35 36 36 27 15 12 21 17 14 55 97 97 64 41 33 32 23 25 20 17 17 18 22 29 33 25 19 14 11 9 8 8 8 9
69 68 52 26 17 12 10 9 10 10 12 32 44 40 36 18 15 23 23 11 30 95 98 62 45 35 34 32 22 24 21 18 19 20 19 21 19 16 13 11 10 8 9 9 9
73 59 27 16 13 18 22 22 18 12 11 10 21 52 39 21 19 21 23 12 17 78 97 57 45 41 34 32 28 19 21 21 22 20 16 16 15 12 16 14 12 11 12 10 9
66 29 17 15 38 44 41 38 47 54 44 20 13 16 36 30 36 26 25 21 15 74 100 82 56 48 36 32 30 24 18 20 24 22 17 16 11 12 14 14 14 13 11 8 8
32 18 14 51 74 72 63 64 68 80 69 88 77 15 28 40 39 32 33 30 28 68 100 95 90 58 42 33 30 27 19 15 20 24 23 16 11 12 13 14 14 13 11 9 8
20 12 48 92 96 92 86 91 85 100 93 72 100 53 18 41 52 39 33 39 18 75 100 99 98 93 58 36 27 23 22 19 18 18 20 18 12 12 13 13 13 14 14 13 11
13 24 94 100 100 100 100 100 100 85 88 96 74 41 27 53 57 75 46 47 20 59 99 94 97 83 67 44 34 29 26 25 24 19 14 14 12 14 16 14 14 13 14 14 12
8 32 97 100 100 100 100 100 91 86 98 74 43 43 38 58 54 44 62 33 24 36 100 100 98 94 94 77 47 34 29 26 24 22 17 14 11 11 12 12 13 13 13 12 12
8 20 64 100 96 100 85 100 94 71 74 90 50 48 62 59 50 61 50 34 20 28 98 100 99 99 96 97 94 54 35 32 26 24 19 17 13 14 13 10 9 9 9 10 10
13 15 85 98 100 80 100 100 88 82 61 96 50 100 58 57 83 61 51 36 21 44 100 100 98 99 100 99 100 100 97 60 40 24 19 17 12 16 15 13 11 8 7 7 8
7 19 77 92 84 100 99 78 76 79 88 28 45 98 72 61 73 99 99 62 33 56 99 90 100 100 99 100 99 98 100 100 85 46 25 19 13 18 15 13 12 10 8 7 8
79 50 14 33 58 59 52 49 96 100 82 38 96 100 64 70 62 73 86 51 67 79 100 100 100 98 94 95 92 76 84 75 40 25 20 19 15 19 15 14 13 11 10 9 10
73 100 90 24 33 49 84 100 100 95 24 94 100 92 64 60 97 98 36 24 36 82 97 98 99 99 97 93 82 38 27 24 22 20 18 20 18 21 18 16 17 18 16 13 14
41 55 82 94 96 95 100 100 100 49 58 67 100 97 100 48 55 34 33 28 46 61 93 89 90 96 86 82 53 38 31 24 22 20 22 23 22 24 21 19 20 19 18 16 16
24 30 49 60 73 100 89 64 64 93 100 100 100 69 76 68 63 83 59 71 96 95 99 99 95 72 62 64 60 64 53 35 31 26 31 29 26 27 22 18 16 15 14 13 13
27 26 33 47 58 92 65 32 93 100 100 99 87 53 35 46 70 49 61 65 61 78 98 93 99 90 87 86 88 66 56 47 34 36 34 27 23 22 20 17 15 14 14 14 13
44 50 47 52 52 73 50 68 76 94 80 68 66 33 26 29 71 64 54 60 64 85 88 72 60 66 63 53 56 56 67 49 41 31 27 23 25 28 23 18 19 18 15 14 12
53 62 97 54 43 69 81 52 83 82 87 87 98 98 64 74 70 69 63 62 69 80 82 67 57 62 68 72 72 68 54 41 31 26 25 33 31 27 23 22 19 18 17 15 14
55 76 90 65 36 48 86 72 68 71 79 77 99 98 87 89 82 71 77 94 95 72 50 55 54 59 58 56 50 40 32 28 29 35 38 35 29 24 20 17 18 17 17 17 18
40 49 93 60 27 38 61 69 64 89 82 88 100 93 85 71 72 89 92 74 58 44 49 48 48 45 39 36 33 30 28 31 32 37 34 31 26 23 18 21 27 26 33 36 35
22 31 67 77 41 35 46 61 75 66 82 85 86 86 81 78 75 95 96 64 42 41 43 43 38 34 32 32 35 37 40 43 39 32 30 25 33 20 28 40 47 41 42 28 28
34 32 39 77 76 63 66 71 83 55 62 76 77 82 76 82 88 96 49 39 40 37 37 35 31 28 29 38 43 47 45 40 33 28 26 31 50 52 65 54 51 52 31 33 38
48 49 39 46 56 66 58 62 70 72 74 68 62 75 98 97 81 48 35 34 31 31 29 29 29 34 48 54 52 43 36 31 26 28 33 68 74 60 57 62 52 30 41 40 39

GFSSW_500_rhum_063.txt.gz
RH
96 75 66 65 47 50 53 50 49 49 40 29 22 22 29 16 14 18 17 74 95 80 41 41 34 31 75 93 89 60 40 33 36 30 26 29 29 30 27 20 15 15 12 13 12
83 86 79 57 55 61 56 55 54 48 36 29 26 22 24 27 14 12 13 42 99 98 54 40 40 34 33 64 92 77 45 33 32 29 28 32 28 30 26 23 19 15 13 13 12
96 95 86 67 78 83 78 73 61 42 29 29 28 28 25 27 18 13 20 12 65 97 82 55 51 42 34 32 62 83 56 39 35 31 30 30 27 25 28 24 20 16 14 13 11
98 98 94 92 90 86 71 49 27 19 17 16 19 33 29 34 25 14 23 15 21 78 99 70 59 57 40 31 33 66 65 59 48 44 31 35 29 25 26 25 20 17 14 13 9
95 93 90 80 76 51 26 19 16 16 13 12 12 22 46 26 26 22 22 23 10 30 83 99 69 61 50 36 29 57 47 50 65 56 43 40 33 27 26 23 19 16 14 12 8
87 77 83 67 38 20 18 29 30 28 29 28 25 17 32 48 32 33 27 23 19 10 70 96 96 81 72 44 34 32 42 25 50 63 52 43 41 29 26 23 21 17 14 11 9
79 75 56 30 13 30 68 66 66 60 43 45 75 46 16 32 56 45 32 23 23 13 31 87 100 97 77 50 37 32 28 23 24 29 33 30 30 24 31 30 21 18 14 11 10
71 46 18 9 29 68 99 97 84 79 74 71 80 100 30 14 46 51 37 28 24 20 20 69 100 99 90 50 38 34 26 24 22 25 22 19 20 18 22 22 21 18 14 11 10
35 12 8 15 35 92 100 100 99 98 98 82 93 100 59 23 29 58 44 34 29 22 18 60 98 99 96 48 38 35 28 23 22 24 22 23 29 20 16 18 19 18 16 13 11
12 8 9 23 64 100 100 100 100 100 100 90 78 100 69 40 32 73 54 42 39 31 25 73 100 99 98 61 37 28 26 23 20 21 22 20 17 17 15 15 17 17 17 15 14
10 16 24 49 100 100 80 91 93 86 100 87 92 77 77 40 50 60 56 58 33 58 34 87 98 86 79 73 40 32 31 31 30 22 18 21 16 14 14 16 16 18 17 17 14
34 30 10 91 92 92 95 70 85 99 95 88 98 69 81 43 66 62 55 60 37 45 72 99 95 100 99 82 53 36 32 31 29 25 18 16 23 20 18 17 16 16 15 14 14
34 22 16 37 91 93 100 100 100 100 71 82 97 63 59 67 71 63 60 51 34 52 74 100 98 100 100 88 72 47 35 31 30 27 24 19 14 16 16 16 16 14 14 14 13
27 36 40 39 19 68 92 82 66 76 86 78 73 86 62 72 63 85 67 42 34 71 89 100 99 99 100 96 97 77 44 37 32 28 24 22 19 22 16 13 12 12 12 12 12
30 49 74 71 55 62 78 80 99 100 100 59 75 92 72 69 96 100 60 48 43 29 85 100 98 100 98 99 100 100 96 52 39 31 26 22 20 20 16 14 14 12 10 10 9
39 36 69 100 100 100 98 100 84 71 66 98 96 74 70 60 62 96 77 52 43 37 85 100 99 98 100 100 100 99 99 97 58 36 24 21 19 23 17 15 14 13 12 12 11
35 44 47 95 100 100 100 51 69 69 90 88 68 88 100 100 53 86 47 44 32 54 91 100 99 100 100 99 98 95 97 99 100 74 45 33 28 24 18 15 14 13 12 11 11
61 42 46 57 56 35 32 50 77 76 78 78 58 72 100 100 81 61 58 31 40 75 100 100 94 100 99 98 97 95 96 90 80 62 40 29 24 21 19 17 15 14 14 13 12
56 70 41 35 37 30 64 79 99 91 68 95 100 80 71 64 61 99 66 50 66 100 100 100 100 93 98 95 95 91 64 46 36 33 28 26 23 25 23 19 17 16 16 16 15
75 90 40 47 42 44 68 68 82 85 98 91 95 75 83 98 98 55 51 39 78 98 95 98 98 98 93 85 90 82 61 49 36 31 34 31 30 27 24 22 19 17 16 16 15
62 98 34 61 51 46 73 75 100 71 54 89 90 44 95 63 61 41 38 51 63 98 100 100 100 86 81 78 79 72 63 62 54 42 42 38 30 26 22 20 19 18 16 15 14
44 68 44 66 65 41 48 65 72 68 64 51 46 67 61 66 73 69 62 79 73 76 90 81 95 97 87 83 83 82 84 68 61 52 41 32 26 22 21 20 19 17 15 14 12
34 45 37 32 61 52 33 36 48 59 90 52 32 38 73 76 72 69 64 64 68 86 99 78 66 70 75 74 73 83 83 73 57 43 29 26 28 24 22 19 16 19 16 16 15
29 37 58 40 40 64 44 53 38 44 64 78 81 81 86 70 71 64 67 76 91 91 83 85 67 67 74 76 76 78 84 79 49 30 38 35 31 24 20 21 21 20 21 22 22
26 30 90 32 48 50 75 48 70 53 50 75 85 70 61 58 65 78 89 91 91 56 56 62 61 66 60 45 42 35 32 30 38 43 37 30 28 22 24 23 22 27 35 34 34
30 30 46 84 81 74 88 81 68 83 84 93 88 78 70 63 74 92 85 74 50 45 46 51 49 37 35 35 37 38 42 47 47 39 34 30 25 22 20 23 37 43 40 34 30
30 32 32 30 56 72 76 87 80 60 70 82 84 88 90 82 84 90 69 45 38 36 36 35 33 32 32 38 44 48 49 45 38 32 29 25 25 30 46 58 50 41 43 28 26

GFSSW_500_rhum_066.txt.gz
RH
94 91 90 91 93 96 97 95 73 64 68 69 58 52 48 41 22 19 14 15 16 43 66 84 46 36 36 60 84 83 70 42 38 52 49 36 37 37 32 26 23 19 19 17 15
99 100 100 100 100 100 97 96 87 88 98 98 90 74 60 46 30 17 21 20 14 27 72 81 74 43 33 38 85 88 72 47 34 38 48 42 37 41 35 29 25 22 19 19 16
82 95 100 100 100 100 98 96 97 94 98 87 74 62 56 45 37 24 28 27 19 13 75 86 80 48 42 32 52 88 70 53 37 35 42 55 40 39 38 31 29 24 18 18 17
99 100 100 99 94 88 83 76 72 67 57 43 31 30 36 36 34 28 36 31 22 18 35 85 92 53 45 35 33 66 81 84 54 42 42 51 64 37 38 34 31 25 21 18 16
91 92 92 80 55 32 21 17 16 19 20 21 21 20 19 21 29 32 38 45 26 33 19 82 97 77 44 41 33 33 59 79 90 56 47 54 70 53 37 36 30 26 23 19 17
88 80 56 16 9 11 15 15 27 44 53 55 50 45 32 17 20 47 41 49 33 27 34 50 91 98 69 45 39 33 41 58 83 80 69 63 69 65 41 35 30 26 22 19 18
69 23 10 8 10 16 26 35 82 74 90 80 73 55 42 28 29 33 68 58 46 27 26 37 78 100 89 70 47 40 34 40 52 84 77 81 71 62 46 39 34 26 21 18 18
17 10 23 22 13 13 39 96 99 87 100 90 92 74 68 84 50 27 59 100 60 30 27 20 50 95 100 78 72 51 40 34 41 61 82 69 69 64 42 38 33 26 22 20 20
13 22 27 29 45 46 66 91 100 100 100 96 88 86 76 98 79 58 30 100 85 32 27 12 31 88 100 93 74 67 42 38 42 57 60 57 67 61 41 36 36 32 25 22 22
15 22 24 30 56 46 64 84 74 76 80 84 82 92 80 93 79 67 33 100 94 63 35 25 33 80 100 100 76 52 41 37 44 39 40 26 36 47 39 26 28 32 31 26 23
25 36 37 51 73 59 85 76 76 75 80 58 68 94 76 94 73 78 56 99 75 78 41 23 32 93 87 95 100 62 47 36 36 31 38 25 23 29 34 24 20 21 24 22 19
25 48 60 93 90 51 64 90 100 99 100 99 98 99 70 97 61 86 71 70 56 67 37 32 25 86 100 100 98 68 46 37 36 33 29 29 24 20 24 27 22 19 17 18 17
42 53 93 100 100 84 63 65 76 96 100 95 87 79 76 72 74 95 69 58 58 70 43 28 37 96 100 99 98 79 45 39 36 33 31 26 35 37 23 20 20 20 16 16 16
52 46 86 100 100 100 98 88 96 96 99 96 93 64 62 98 100 100 80 79 70 91 56 46 66 99 98 100 97 71 44 38 36 34 30 27 22 20 22 20 19 16 14 14 15
47 43 31 25 95 100 89 78 76 84 100 100 100 69 67 100 99 89 96 57 72 100 68 90 100 97 100 96 94 90 55 40 37 33 30 28 26 20 18 17 18 25 22 16 15
38 33 39 51 34 41 55 57 66 83 96 95 79 81 87 84 98 100 80 63 88 99 100 100 100 100 100 99 98 100 88 55 39 34 31 27 26 24 22 19 16 14 15 15 13
32 39 45 42 60 40 38 37 50 72 73 75 100 100 100 100 83 86 62 56 75 97 100 100 96 100 99 99 100 100 99 82 56 43 33 29 26 22 21 19 17 15 14 12 12
41 36 38 40 48 55 40 56 74 92 97 99 86 99 100 100 95 89 66 64 59 59 94 93 96 94 100 100 100 98 93 98 92 60 44 37 29 24 23 18 17 15 14 13 12
41 42 40 49 49 52 64 60 100 90 99 100 100 99 97 100 72 70 68 50 52 42 62 100 98 100 100 100 99 100 100 98 100 100 96 67 47 35 27 21 18 16 14 13 12
42 45 45 52 65 52 48 44 61 91 74 98 77 50 64 70 72 62 48 42 58 100 100 100 97 99 93 100 100 100 94 93 99 96 86 44 34 28 25 21 18 17 16 16 16
40 42 47 49 68 56 56 52 73 59 62 68 83 89 72 70 87 62 47 37 65 99 99 95 91 88 90 94 95 98 97 76 68 67 39 34 30 26 24 24 22 20 19 18 17
42 34 42 34 49 39 41 44 56 69 61 57 84 92 93 68 49 59 45 58 92 92 90 96 93 100 94 92 92 96 90 73 62 50 42 39 34 30 26 26 24 22 21 20 17
42 36 30 60 37 45 31 36 34 30 33 44 44 62 77 74 70 43 70 68 77 84 94 90 96 99 87 80 77 79 77 68 65 62 56 43 35 29 25 23 21 20 18 17 15
37 71 28 39 59 49 47 33 33 40 33 33 37 35 52 48 45 44 47 57 65 79 93 78 75 82 79 76 74 73 75 78 69 64 52 37 31 28 24 21 21 23 19 16 16
30 46 62 69 39 72 50 57 37 42 72 80 72 72 64 48 42 48 55 61 76 90 87 82 76 76 81 80 76 75 79 82 78 50 42 33 33 30 26 25 25 24 21 20 19
21 29 29 28 76 86 77 62 61 64 73 80 84 72 58 57 56 58 65 80 82 58 57 76 68 83 91 63 75 73 78 70 75 66 54 43 36 30 27 26 24 22 22 22 26
14 26 30 27 40 70 74 76 65 69 77 77 85 86 73 66 73 85 83 74 60 44 50 66 64 52 50 46 50 41 39 39 43 41 40 37 32 28 24 21 22 30 41 40 37

GFSSW_500_rhum_069.txt.gz
RH
18 30 63 84 100 99 100 99 98 99 98 97 93 84 63 62 61 52 43 25 21 14 16 37 78 76 41 37 52 94 56 53 70 74 63 60 80 55 39 31 27 25 24 20 19
12 37 64 87 97 98 98 99 98 100 100 100 98 90 80 73 76 67 46 33 32 19 15 27 58 91 66 38 40 76 84 53 68 61 57 62 84 52 44 34 28 27 24 22 20
19 51 66 72 77 82 81 78 77 89 94 97 100 99 100 94 85 78 60 40 42 26 17 15 33 73 92 56 38 63 79 73 70 78 55 74 81 54 47 40 31 29 26 23 20
54 68 68 52 30 18 14 13 11 13 28 59 78 99 99 98 98 85 78 48 45 30 24 16 18 56 86 80 43 47 76 99 77 70 50 54 86 92 48 48 43 32 24 25 21
68 49 17 10 12 18 19 22 21 10 9 14 19 40 54 77 82 81 74 64 53 44 35 43 16 42 78 86 65 38 54 81 94 67 73 67 87 96 62 47 42 33 29 26 23
32 14 12 18 23 23 44 43 28 27 31 42 36 28 21 22 27 41 59 57 64 54 43 67 36 34 90 84 80 46 38 52 90 82 94 72 74 94 90 53 42 40 34 28 23
15 20 26 38 49 61 59 45 61 100 94 66 63 66 68 66 40 25 23 39 55 55 48 61 83 27 81 91 78 54 43 36 58 94 98 97 82 84 95 78 47 41 37 31 26
18 24 33 49 87 85 66 45 54 96 100 100 94 90 87 84 63 45 32 27 38 60 60 51 73 35 79 97 82 54 50 40 36 65 97 97 79 83 92 92 76 46 38 31 27
23 41 45 80 100 100 68 64 67 92 100 96 96 99 100 100 85 50 28 33 47 52 67 56 66 56 64 96 99 68 54 43 35 40 92 95 94 94 80 92 88 63 43 36 30
33 40 38 30 100 100 79 64 74 57 71 68 75 84 88 90 70 56 47 31 100 86 70 65 100 66 59 93 95 88 63 43 39 34 63 95 97 95 84 84 92 69 51 43 34
37 40 46 46 59 100 95 73 100 85 67 64 58 52 62 62 64 74 56 38 100 100 81 70 37 45 38 60 94 100 90 62 45 36 42 88 84 94 87 84 88 76 54 42 35
39 37 47 50 46 100 100 97 87 100 100 96 96 77 76 87 69 73 47 67 99 98 82 96 65 40 29 86 99 95 92 66 55 40 38 70 63 75 89 79 88 82 53 38 33
38 29 48 40 38 59 98 81 89 74 97 100 93 88 89 75 73 49 100 97 100 82 66 43 30 26 30 73 100 100 95 74 51 47 38 53 78 62 31 50 81 86 46 26 21
35 28 41 19 23 39 67 74 98 99 98 99 94 93 76 80 61 54 92 100 98 100 56 38 30 21 40 100 100 99 100 93 62 51 40 41 63 74 31 27 29 44 68 38 21
33 29 35 25 29 21 42 60 81 98 100 100 99 79 77 66 96 100 100 100 75 59 47 30 27 33 70 100 100 99 99 98 68 51 39 37 53 70 52 27 24 23 27 52 60
32 36 41 38 54 42 32 37 64 87 71 58 68 100 100 82 88 98 89 78 72 82 64 42 32 53 94 98 100 100 99 100 71 47 41 37 39 63 38 32 45 51 24 19 18
35 39 44 45 45 77 77 79 54 62 83 96 100 100 100 97 99 88 75 88 95 100 72 61 61 91 92 98 99 100 100 100 93 52 40 36 34 38 51 30 21 26 34 20 20
34 36 46 61 47 51 62 61 80 66 71 82 93 100 100 100 100 89 100 98 100 100 74 94 99 100 100 98 98 100 96 100 91 61 43 35 32 29 32 29 23 20 18 16 15
36 40 39 46 68 55 62 41 62 93 77 80 93 92 98 100 96 76 100 100 100 100 100 100 100 99 98 99 100 98 99 100 92 72 49 38 32 28 25 22 21 20 18 17 15
33 45 38 40 44 58 50 47 87 100 75 51 50 66 76 87 86 72 66 58 96 98 96 99 100 99 100 100 100 100 95 96 100 99 93 56 39 31 28 23 23 21 18 17 16
28 40 35 32 35 46 46 47 61 65 71 71 70 65 68 49 51 49 47 47 41 37 48 92 98 97 97 100 99 100 99 98 99 90 100 94 83 52 50 39 29 26 23 20 18
26 28 48 29 32 44 39 44 51 50 72 54 46 51 64 66 44 43 37 40 84 84 98 91 84 79 79 86 95 100 97 98 92 93 95 92 64 42 37 30 27 23 20 19 18
30 22 36 51 44 39 29 29 33 34 42 57 56 62 60 50 46 43 47 37 68 94 80 77 74 74 80 81 78 95 100 92 79 78 65 60 42 34 29 25 25 25 23 22 21
26 32 45 38 61 48 31 26 24 24 28 31 45 41 31 28 31 33 29 61 74 72 86 90 78 86 81 78 80 84 92 94 82 77 74 54 46 40 33 28 25 25 25 23 22
15 30 35 52 74 82 45 26 37 61 74 73 65 56 54 43 30 30 42 45 57 63 78 88 75 83 91 81 75 73 73 75 74 68 65 59 54 44 36 28 25 22 21 20 18
23 20 27 28 48 68 79 59 32 55 76 78 74 60 61 55 47 42 40 43 54 72 83 84 74 74 77 73 72 70 68 75 76 75 65 58 51 38 30 28 25 23 23 22 21
55 20 22 25 27 48 61 74 66 56 68 70 73 72 58 56 60 62 67 81 86 78 63 70 72 77 84 81 68 80 79 80 82 76 54 46 45 39 37 33 29 26 26 23 21

GFSSW_500_rhum_072.txt.gz
RH
9 9 15 29 42 61 63 69 79 94 100 99 99 100 99 98 80 55 50 44 41 30 17 12 26 62 79 54 71 82 96 86 91 86 88 96 97 94 93 65 43 35 35 39 48
13 46 63 66 65 62 54 51 58 70 88 97 100 100 100 99 98 78 59 52 43 39 24 16 15 31 69 80 64 93 82 67 66 55 85 98 97 96 86 74 45 34 30 29 31
48 66 48 29 16 12 12 12 13 14 16 23 49 84 100 100 96 98 73 60 51 44 33 22 15 17 43 91 78 70 72 75 71 55 68 98 82 96 80 82 52 35 33 29 26
57 28 16 13 14 27 31 29 29 24 22 19 17 16 22 79 94 98 95 71 67 57 39 29 18 14 25 60 90 72 54 50 100 94 75 93 82 92 93 86 57 43 36 30 26
24 15 16 26 33 36 48 54 55 67 53 43 31 27 24 14 46 99 99 95 79 82 49 35 22 15 15 45 79 86 51 41 88 92 83 79 82 90 96 91 62 45 33 28 30
15 17 35 29 33 41 34 61 91 73 58 41 71 70 36 15 21 37 88 100 100 97 80 48 32 21 14 30 66 82 81 44 58 86 98 77 83 97 91 94 64 50 41 34 35
14 33 32 37 43 48 40 80 99 71 50 69 93 87 72 45 29 30 32 91 99 100 96 69 60 39 17 15 47 71 100 64 48 61 87 96 94 88 97 92 75 51 54 46 35
26 38 32 34 31 35 54 100 96 82 63 82 97 100 100 72 52 52 34 34 70 98 100 89 68 71 44 17 30 56 94 96 55 48 68 96 90 89 99 96 92 58 54 51 42
34 35 31 28 16 24 63 100 100 100 78 77 98 100 100 100 88 87 69 37 28 88 100 100 80 68 88 49 40 75 80 97 81 45 49 81 96 98 96 90 92 87 60 49 44
28 26 30 38 34 15 62 98 91 89 90 60 65 93 100 100 98 92 84 58 55 37 100 100 90 72 79 84 40 39 50 75 88 60 38 48 93 96 95 89 85 94 80 59 45
22 32 32 30 42 25 45 96 89 88 100 83 61 52 54 63 89 84 83 47 98 100 53 100 94 72 52 60 43 55 91 95 97 71 43 37 56 89 97 98 96 94 90 80 69
24 38 37 30 41 50 29 55 80 72 100 95 93 74 66 65 64 68 55 36 98 100 88 85 92 70 76 82 68 82 99 97 100 92 49 42 36 75 81 94 99 97 95 84 77
30 34 40 35 56 47 42 46 80 79 84 82 90 96 100 92 76 48 54 32 35 100 100 65 66 66 63 61 52 58 81 72 100 95 57 43 36 37 68 84 95 98 94 83 83
32 29 37 43 72 39 40 61 75 100 100 100 100 94 88 72 55 44 42 87 48 55 85 72 73 80 92 51 50 60 89 100 100 87 65 54 40 38 41 82 96 97 94 96 80
25 28 44 48 66 35 35 38 53 78 96 98 80 86 90 69 43 77 100 100 100 100 67 97 78 61 72 39 36 47 94 93 100 88 89 69 48 38 40 63 85 69 90 83 84
22 26 42 44 54 43 48 49 70 93 100 100 100 87 63 59 99 100 100 100 100 91 93 76 87 61 48 40 41 76 96 100 100 100 96 76 56 40 36 50 80 33 42 43 59
24 28 41 44 40 33 29 46 47 85 100 58 82 91 97 98 100 100 100 100 100 98 98 70 62 44 34 34 44 99 99 99 100 100 84 78 67 44 36 41 79 47 28 29 25
25 25 33 36 34 55 33 35 52 76 88 90 95 100 100 96 97 52 54 93 100 92 63 52 43 37 36 36 75 100 100 97 94 84 78 75 62 47 37 34 69 76 45 38 40
24 27 28 30 36 44 66 21 49 70 56 87 91 100 100 100 100 100 100 99 100 95 63 53 37 31 58 96 100 96 90 100 100 100 99 78 61 50 38 34 37 75 52 26 25
20 25 24 27 35 46 53 36 53 60 63 66 71 83 99 100 100 100 100 99 100 100 99 73 62 90 99 93 99 98 100 97 100 100 99 80 62 49 39 34 32 42 56 34 24
18 24 27 26 28 40 44 42 38 55 71 60 58 84 92 98 85 88 78 93 98 100 99 98 100 100 100 99 94 93 99 98 97 100 100 88 65 51 41 34 30 28 26 24 22
22 24 29 35 28 28 34 38 42 41 31 35 48 58 56 56 61 53 42 54 78 50 51 92 99 100 98 98 100 100 100 98 96 95 90 99 85 76 48 39 33 30 26 25 22
30 22 32 33 48 25 25 27 26 38 49 44 40 42 35 36 33 35 31 44 54 74 88 76 76 72 69 71 89 95 97 98 95 99 98 99 84 93 64 68 56 41 37 31 26
56 22 29 36 62 38 28 25 22 27 29 40 42 37 37 32 32 30 28 28 70 79 72 67 64 58 54 69 81 90 96 99 99 99 96 86 86 64 46 37 37 34 33 29 25
87 44 22 30 39 60 49 30 41 63 76 65 40 32 26 23 27 26 21 28 46 59 49 57 62 60 61 66 74 79 83 93 98 91 79 68 84 74 45 36 33 31 29 29 27
97 95 43 22 28 38 52 67 48 32 73 82 78 60 36 28 25 24 33 31 50 47 50 68 75 68 77 80 71 70 73 77 86 94 84 77 71 65 56 46 37 30 28 26 24
55 100 95 42 27 28 33 48 67 62 49 63 70 75 58 46 34 35 41 48 52 60 71 84 81 71 72 73 72 70 68 68 69 73 78 71 68 62 57 41 34 30 28 25 22

GFSSW_500_rhum_075.txt.gz
RH
22 36 41 39 37 38 38 38 43 55 70 85 94 100 100 97 100 96 96 39 33 34 32 18 15 28 76 69 43 58 53 71 90 95 96 98 97 95 100 90 68 69 63 59 60
42 37 25 18 15 14 14 15 16 17 17 17 35 70 92 99 96 97 100 80 41 36 37 29 16 17 41 85 60 62 73 64 90 98 98 99 97 98 94 97 79 68 60 58 54
43 27 16 14 22 23 22 23 23 19 23 32 29 25 22 45 88 99 98 98 54 43 41 38 22 15 22 66 79 66 52 53 97 98 97 99 96 97 96 83 98 66 60 55 51
36 17 18 29 29 31 28 23 30 38 32 26 33 30 32 20 32 65 96 100 97 58 43 43 33 18 15 26 59 72 74 69 98 100 94 97 97 96 97 88 95 84 60 47 40
22 16 20 30 34 27 31 36 13 31 46 58 74 62 52 45 32 27 76 100 100 97 51 44 42 26 16 15 30 44 88 87 99 96 82 76 88 96 97 96 99 91 66 48 39
16 14 22 34 25 24 32 51 22 59 73 90 87 66 60 45 36 20 25 81 100 99 80 52 45 39 23 15 14 29 66 97 98 79 100 88 74 91 98 98 99 100 82 56 38
16 17 27 27 27 27 47 36 74 99 100 90 84 80 72 98 82 50 22 28 94 100 98 77 82 77 35 20 14 24 58 94 97 88 85 90 86 89 98 96 97 97 81 66 40
16 21 24 30 33 38 44 23 83 99 100 100 78 94 100 85 100 100 53 32 30 100 100 98 83 64 47 30 16 18 53 86 100 86 70 69 77 87 99 94 86 91 89 71 48
16 20 25 40 41 24 23 33 79 98 100 98 98 96 100 92 81 87 85 41 31 95 100 99 94 92 93 56 22 15 45 68 98 96 61 43 50 98 99 93 86 84 96 71 56
17 19 31 52 24 24 24 28 66 76 83 97 86 72 100 100 100 92 70 60 36 61 100 100 100 100 100 78 27 18 12 30 44 74 83 47 39 72 96 89 81 80 90 87 60
18 24 40 46 34 38 39 37 56 75 73 100 80 57 67 95 100 90 88 77 53 38 100 100 100 94 64 71 60 36 21 26 66 64 84 86 51 51 85 97 96 90 79 95 77
18 23 41 42 32 40 54 66 58 48 62 68 70 84 64 53 58 72 80 62 63 38 80 100 90 95 99 94 95 78 36 24 66 94 91 97 72 50 59 92 99 100 97 93 95
18 22 38 36 23 40 50 58 98 75 81 70 80 83 82 77 74 58 68 54 55 100 52 99 85 98 100 92 82 81 44 50 82 89 79 74 78 56 39 70 98 99 96 82 86
17 25 34 32 24 32 40 60 97 100 99 100 93 82 95 68 81 63 51 48 80 100 97 90 92 100 100 91 81 79 60 63 70 95 69 59 53 65 40 36 88 89 93 88 74
17 18 26 32 23 35 33 55 69 93 100 100 100 92 51 58 58 50 38 47 98 100 68 56 92 100 93 88 78 68 62 61 68 75 69 51 52 54 46 35 49 92 92 91 79
19 17 23 31 23 27 47 65 53 82 77 85 92 100 77 55 52 43 48 96 99 100 97 93 95 100 98 81 70 62 58 68 99 100 87 52 55 50 50 34 35 52 91 78 81
21 19 23 27 19 23 31 45 40 58 87 100 100 98 100 100 99 100 100 93 79 89 86 73 96 83 87 73 56 51 56 86 99 100 75 99 74 50 54 40 34 39 72 87 92
29 19 19 27 23 20 25 34 39 61 69 83 100 100 100 100 100 100 100 100 73 99 100 75 97 75 69 75 70 56 65 56 79 74 76 75 62 51 56 43 37 36 72 73 48
44 20 20 21 30 21 33 38 34 45 46 51 85 100 88 95 89 98 100 100 93 97 100 97 70 60 68 74 56 36 83 100 99 85 98 85 69 76 63 44 40 37 63 84 48
54 27 18 21 20 28 31 34 40 44 44 64 55 84 99 92 96 100 100 99 85 86 92 95 85 69 43 32 28 35 72 100 92 92 81 65 80 77 70 61 49 41 46 95 77
55 44 26 24 29 24 29 33 30 30 32 47 58 52 57 91 92 84 100 95 100 61 38 38 33 28 29 56 66 87 80 79 81 100 84 78 76 80 69 60 56 44 37 58 94
20 63 29 29 38 29 24 28 30 37 36 45 57 51 58 51 69 41 72 100 98 100 93 74 61 58 91 91 87 88 84 84 77 87 100 100 82 93 74 62 49 41 36 36 61
11 57 56 26 29 47 24 21 22 23 38 46 56 49 41 45 49 32 30 48 50 66 81 98 99 96 98 97 84 72 66 69 87 92 89 97 80 99 98 89 53 45 37 33 31
6 35 84 53 26 32 48 25 28 34 29 30 37 41 36 29 29 28 25 50 70 76 70 72 68 70 72 74 81 86 83 94 86 97 88 77 73 100 99 97 76 60 48 37 33
4 8 52 98 52 25 35 49 30 44 70 52 34 35 38 30 29 29 26 25 47 65 67 61 57 56 54 53 56 68 77 84 83 85 83 81 96 99 98 68 44 46 60 48 46
5 5 14 70 100 42 26 32 54 46 36 74 69 60 49 42 34 28 24 24 33 47 58 46 54 57 54 53 56 66 77 86 90 86 86 82 74 90 98 82 53 39 36 35 36
7 5 6 11 78 100 48 26 32 45 58 37 58 66 66 53 46 34 30 32 30 45 40 46 61 65 61 64 67 67 72 75 81 89 89 76 82 84 92 99 97 76 45 35 32

GFSSW_500_rhum_078.txt.gz
RH
22 29 20 15 17 18 18 16 15 16 18 18 18 31 78 93 100 94 93 100 94 68 32 23 17 15 20 52 57 45 50 49 38 48 91 97 96 100 89 70 32 39 29 32 30
18 23 17 12 14 15 16 21 23 23 22 18 15 20 24 47 94 100 99 99 100 94 37 31 22 16 20 36 63 63 42 41 35 51 57 98 98 96 86 84 53 34 39 34 36
20 20 14 13 22 25 30 26 26 26 29 34 20 22 30 27 30 84 98 98 99 98 69 40 34 17 16 26 56 63 36 34 42 78 85 94 88 98 99 90 71 45 53 48 59
22 18 13 17 26 29 28 28 27 26 24 24 18 26 45 36 30 30 72 97 99 100 94 45 39 24 16 15 25 53 49 41 56 99 95 92 98 95 97 94 81 65 67 54 62
25 16 15 22 35 30 20 20 15 53 100 100 99 59 55 50 50 35 31 74 100 100 100 73 43 35 20 14 16 37 65 43 86 85 98 84 96 98 97 97 87 76 72 70 63
22 14 20 25 30 21 28 16 14 60 100 100 100 100 95 87 75 56 37 30 80 100 100 96 51 42 30 17 14 23 64 78 77 82 97 94 95 96 98 96 90 80 73 80 71
21 13 24 33 20 33 49 56 17 74 100 100 100 100 100 81 73 72 64 41 28 94 100 98 67 54 41 24 15 15 43 85 93 75 78 97 97 91 96 97 98 87 83 94 88
18 13 22 27 27 40 49 66 19 76 100 100 100 100 92 86 79 61 45 37 27 36 100 100 95 55 54 32 17 14 24 49 88 91 83 94 84 98 95 97 97 98 99 97 96
18 13 24 28 32 34 64 77 26 45 95 100 99 98 90 87 75 94 51 88 87 57 99 100 100 93 83 50 26 14 14 19 45 61 82 91 84 98 95 92 95 99 97 93 85
20 14 21 28 24 55 76 82 57 46 62 76 83 83 78 82 89 86 86 100 100 95 98 100 100 100 99 68 33 19 13 15 21 50 68 88 83 99 97 85 93 98 91 94 90
23 14 20 32 25 51 44 49 94 66 53 57 77 63 56 100 68 98 84 100 100 100 100 100 100 98 88 81 52 31 17 16 28 49 80 74 79 90 95 99 96 90 87 90 90
25 14 19 32 24 41 55 53 63 76 77 61 52 73 68 86 94 64 94 79 100 100 100 100 93 99 100 96 76 60 30 18 42 64 65 98 88 82 82 80 91 97 96 96 95
31 15 17 26 21 38 43 53 61 86 97 100 86 49 60 67 59 68 61 83 91 100 100 90 100 98 100 94 86 73 46 41 28 28 37 50 64 92 63 66 71 82 90 96 83
32 18 17 21 24 38 35 42 44 69 84 100 100 100 44 64 69 47 65 70 86 99 96 94 100 100 100 97 100 94 80 61 41 25 22 37 33 53 68 64 46 58 80 86 80
26 23 15 18 26 34 32 32 31 70 89 99 100 97 66 36 50 48 71 64 64 100 100 96 100 100 100 98 98 94 100 81 62 64 61 57 40 39 56 64 50 43 57 98 78
22 33 14 19 18 23 24 28 23 33 96 99 100 100 94 26 26 34 42 46 94 83 98 100 100 100 100 100 98 89 99 73 71 69 58 70 58 33 44 43 60 42 38 92 89
9 38 18 15 28 27 18 32 23 27 62 98 100 100 100 80 75 60 63 84 87 79 87 100 100 100 100 100 100 94 100 98 93 73 33 50 47 23 39 36 43 49 38 63 92
5 20 33 15 18 27 15 34 29 24 30 100 92 100 97 100 100 93 85 100 98 69 88 100 100 100 100 98 83 82 77 64 56 42 39 49 36 29 48 50 52 50 38 41 75
4 9 44 22 20 19 27 30 25 26 20 39 71 68 97 100 100 100 99 69 100 88 92 98 99 83 100 91 89 79 65 66 56 50 46 42 39 52 63 61 57 54 40 35 54
4 6 34 40 23 25 23 30 26 24 25 29 57 45 79 95 99 99 100 79 92 100 96 84 97 92 85 89 76 74 60 54 69 85 50 39 38 55 85 81 68 63 41 37 41
7 4 17 47 40 24 33 24 26 35 24 33 43 47 55 69 73 100 83 85 98 98 99 100 100 97 98 82 85 71 67 42 84 78 71 58 43 62 96 87 77 74 56 43 44
10 7 4 11 50 33 27 35 24 22 38 39 41 48 45 54 41 44 100 91 71 77 86 86 88 71 50 39 35 41 29 41 49 57 70 63 49 82 97 84 80 73 62 54 43
12 10 5 5 26 70 30 39 40 24 27 32 42 37 33 36 44 32 63 100 91 87 50 47 43 32 30 38 59 36 38 57 58 59 64 67 61 78 92 90 70 73 62 57 46
15 12 8 7 6 34 68 26 44 36 45 49 35 36 36 31 32 27 30 83 100 100 100 100 100 93 94 97 95 90 80 77 80 66 61 68 74 90 85 90 98 68 65 52 45
20 14 9 8 6 6 47 78 26 48 41 48 65 47 34 32 29 25 23 44 92 82 97 98 92 99 94 76 73 74 69 60 59 64 60 63 72 91 95 97 100 96 68 58 46
24 16 11 8 8 6 6 40 83 28 50 53 41 73 58 41 33 30 26 23 26 50 49 55 53 54 53 54 52 50 60 78 69 62 63 57 72 87 98 100 83 52 61 68 71
28 20 12 8 7 6 6 5 51 68 30 46 65 43 59 62 48 29 27 23 23 30 56 48 43 57 64 61 55 45 48 57 72 77 76 62 87 96 95 99 95 57 46 44 40

GFSSW_500_rhum_081.txt.gz
RH
5 5 12 8 11 13 15 19 21 25 26 21 18 19 22 20 77 56 60 100 99 99 75 35 28 21 16 14 12 13 38 28 32 40 74 94 98 98 80 69 46 30 21 24 18
5 6 10 9 16 17 18 27 33 26 21 25 29 25 23 23 19 67 84 100 100 99 98 55 35 27 18 15 13 14 13 15 31 43 57 92 92 98 96 80 57 40 28 25 20
5 8 10 15 18 20 26 27 33 26 21 15 26 32 32 31 31 19 57 100 100 99 100 89 48 32 23 16 14 13 15 19 31 50 48 72 86 94 89 75 75 52 38 46 36
5 11 13 21 20 31 32 46 50 20 96 100 100 100 76 50 35 30 26 74 100 99 100 100 80 40 29 18 15 15 15 50 30 35 56 62 68 77 97 90 82 73 53 57 58
6 13 17 21 27 39 21 25 31 16 82 100 94 100 100 81 53 49 29 34 88 100 100 100 98 89 36 21 16 14 22 56 58 38 56 70 67 56 95 96 80 76 73 60 71
8 15 22 23 29 44 26 23 19 21 97 98 92 90 93 89 89 70 46 32 41 93 100 100 94 98 59 27 16 16 17 50 73 44 48 65 99 49 86 97 89 72 71 77 80
7 15 21 25 29 39 44 54 52 20 93 94 100 100 88 97 100 88 63 52 39 45 100 100 100 99 76 37 17 16 18 32 76 53 46 69 91 52 82 95 98 70 63 79 80
6 17 19 22 32 35 36 45 62 51 49 84 98 97 95 80 57 67 79 57 51 36 78 100 100 98 89 59 24 16 17 19 59 66 48 69 59 97 95 86 98 98 95 93 91
5 19 18 19 28 33 33 41 46 57 56 38 70 88 84 74 64 62 62 88 88 59 49 97 100 99 96 68 36 18 14 13 44 76 55 72 71 100 93 76 97 97 100 100 96
6 19 17 18 20 32 32 39 48 64 76 66 63 78 61 74 68 70 65 74 100 75 46 82 100 100 100 88 51 27 15 14 30 65 73 64 76 96 87 90 98 96 98 99 97
6 20 16 18 21 28 32 38 44 64 80 93 62 67 58 56 64 77 94 78 100 100 47 92 99 99 100 90 70 34 18 14 22 40 63 74 73 86 81 99 97 95 97 98 99
6 16 16 19 21 22 23 35 33 55 80 99 99 61 74 59 66 71 90 78 100 100 100 94 85 100 98 96 87 51 27 16 17 31 45 47 63 90 97 88 90 95 96 96 99
6 9 21 18 21 20 23 27 36 52 72 83 90 43 61 69 54 56 89 100 100 100 100 86 89 100 100 100 89 80 44 22 16 18 28 65 57 66 78 86 93 94 95 92 82
11 6 22 17 20 18 19 29 30 43 74 94 71 35 25 50 48 58 62 99 100 100 100 100 100 100 100 100 92 99 66 35 21 16 18 28 30 57 73 77 83 86 91 80 73
12 6 16 21 15 21 22 19 30 23 65 88 97 77 42 24 36 40 48 87 99 99 100 100 100 100 100 98 99 99 90 50 27 18 15 22 24 32 56 68 60 64 82 93 85
14 9 8 18 21 16 25 22 23 24 50 78 96 100 94 62 28 33 42 62 88 100 70 100 100 100 100 100 100 100 99 67 43 32 20 17 16 14 21 33 54 66 63 59 86
18 14 8 10 30 19 18 26 24 22 24 69 74 94 100 99 86 30 34 34 56 75 88 100 95 100 100 100 100 100 100 100 82 59 27 22 19 23 20 24 38 51 57 57 45
23 20 13 7 15 32 19 24 30 25 22 40 70 73 72 100 100 100 71 56 66 54 96 100 100 100 100 100 90 96 94 86 71 45 38 34 21 22 41 40 35 40 43 57 46
25 24 16 10 8 27 28 21 25 28 23 25 60 74 90 78 99 100 99 100 69 90 100 100 100 100 100 100 100 97 82 81 61 47 43 33 24 30 49 46 47 43 38 42 56
27 27 19 15 7 12 40 33 24 25 31 29 47 61 68 84 83 91 100 100 71 55 100 99 96 100 100 100 97 99 87 82 70 68 40 26 27 28 50 65 62 54 49 50 59
32 31 24 14 8 7 20 54 30 31 26 34 36 75 62 55 69 97 82 100 98 68 100 100 100 100 99 94 84 86 74 62 64 48 32 25 29 38 43 55 69 58 51 54 63
36 34 28 17 9 7 6 12 56 29 28 32 34 41 57 53 46 81 85 100 99 79 87 97 99 100 96 99 91 94 90 65 53 32 28 42 37 56 56 55 64 70 67 60 64
39 38 34 27 15 10 8 5 18 59 34 30 44 32 37 43 50 59 83 72 98 71 88 90 98 97 98 97 94 78 67 54 48 30 32 36 30 51 62 65 94 91 86 85 70
36 34 34 28 20 13 10 8 6 36 56 38 40 49 31 32 41 47 74 99 67 85 82 73 77 72 51 46 39 35 32 48 47 26 34 37 41 50 61 72 77 92 92 83 78
30 33 35 26 20 13 11 10 6 5 68 39 60 55 49 34 37 46 65 93 100 99 58 70 66 49 33 38 60 66 61 39 22 37 44 64 43 66 67 66 87 88 100 94 83
32 34 30 28 26 18 13 9 6 6 10 89 50 78 78 52 37 38 44 61 94 97 100 100 100 100 98 96 91 95 96 85 70 62 59 56 61 76 69 87 94 96 88 97 100
30 29 26 27 24 18 15 9 6 7 7 65 53 76 72 81 65 42 35 35 29 46 66 73 70 66 66 67 62 56 58 66 76 74 62 61 83 69 76 92 100 96 86 87 75

GFSSW_500_rhum_084.txt.gz
RH
11 9 7 6 7 12 18 20 16 10 14 40 50 41 33 25 22 43 49 56 56 78 94 100 99 39 21 16 14 17 17 14 16 14 6 37 82 95 97 95 77 42 30 24 25
12 8 7 7 11 14 21 15 12 10 8 35 80 88 59 36 27 23 43 82 100 69 99 100 100 96 32 19 15 14 15 16 16 13 11 76 97 91 100 97 94 64 39 28 26
12 8 7 8 14 23 22 19 17 17 8 40 100 100 100 46 41 34 25 37 95 100 100 100 100 97 40 24 18 16 17 18 17 13 15 46 99 99 98 97 94 80 52 33 36
12 9 7 10 17 24 25 21 25 22 15 61 100 99 100 98 55 55 36 26 35 99 100 100 100 100 75 38 21 18 17 18 16 20 27 41 67 93 94 89 89 75 75 45 38
12 10 8 11 18 21 23 28 35 28 26 32 91 90 85 91 78 48 51 31 28 53 100 100 100 100 96 39 26 19 19 18 14 17 29 35 46 76 87 100 97 89 74 67 45
12 10 8 12 19 19 24 27 31 32 31 17 54 94 71 70 76 76 54 45 39 28 91 100 99 99 100 61 35 22 18 18 14 18 28 31 45 57 73 93 93 86 77 78 58
13 10 8 12 18 20 23 26 35 34 31 28 37 69 95 82 69 100 82 94 51 40 53 100 100 100 100 99 49 27 19 18 16 15 32 31 38 49 61 81 98 74 72 79 87
13 11 10 12 17 20 21 20 38 40 38 35 19 59 84 77 69 60 100 100 91 44 47 89 100 97 100 97 72 37 18 17 18 21 29 38 24 48 50 63 89 97 81 67 82
15 13 10 12 16 19 19 22 37 46 41 45 25 31 62 61 67 57 61 100 100 67 43 52 100 100 100 100 94 46 27 23 19 22 25 31 27 45 57 52 60 90 93 78 75
18 17 12 12 16 20 18 20 30 52 41 54 42 29 40 46 60 66 59 93 100 87 58 86 99 100 99 100 82 60 60 26 17 20 18 31 36 43 49 61 70 67 98 90 85
20 20 15 13 16 16 17 16 24 48 46 45 69 36 34 60 53 69 69 63 94 100 70 99 94 94 100 88 92 76 63 38 16 18 20 33 57 47 47 73 78 47 83 96 90
22 23 20 16 15 16 15 16 15 29 49 43 69 78 24 36 52 65 89 64 90 100 89 99 83 100 100 100 100 77 54 36 17 17 18 42 70 56 58 59 99 72 99 96 96
23 24 24 19 16 18 16 16 19 19 43 45 63 80 62 25 44 67 68 70 92 100 96 77 77 99 100 100 95 88 63 51 23 16 19 33 66 66 54 66 78 92 97 98 96
26 26 27 23 17 18 21 16 24 20 37 55 68 86 84 40 32 52 55 72 84 100 84 96 86 95 100 100 99 99 73 61 28 17 16 21 32 69 64 59 64 60 69 96 89
33 31 30 23 15 13 23 23 20 29 38 74 72 78 77 77 27 38 51 67 95 98 86 54 100 97 100 100 99 100 100 98 37 19 15 16 18 29 56 48 43 49 61 80 91
36 32 33 28 18 11 19 28 23 23 28 52 66 76 80 87 38 33 46 71 100 84 69 75 100 100 99 100 100 100 97 98 65 28 17 15 16 16 32 42 56 58 47 82 93
36 34 34 31 22 13 11 26 32 26 27 35 58 82 82 92 90 32 34 59 97 78 78 100 100 100 100 100 100 98 100 98 94 48 27 17 16 16 24 30 40 56 66 68 81
37 35 32 31 27 14 14 15 30 38 28 36 58 84 77 91 100 90 25 40 86 90 99 100 100 100 100 98 100 100 100 85 69 57 32 24 22 16 24 18 22 25 36 53 71
38 36 30 32 28 20 17 10 19 47 40 29 41 68 59 90 99 100 88 30 44 51 64 95 98 97 90 99 97 99 90 74 65 61 48 38 29 22 35 39 32 30 34 43 54
45 38 31 31 30 21 14 13 8 36 41 36 41 59 71 53 96 100 100 81 44 40 40 79 100 100 100 90 97 99 100 78 57 57 57 46 36 29 35 42 28 32 35 38 37
51 42 32 29 27 24 17 15 10 7 44 44 48 46 55 60 56 100 89 100 68 46 69 97 99 100 100 100 100 95 84 71 68 56 53 47 41 35 42 50 47 43 40 39 40
56 47 33 27 26 28 21 17 15 9 10 56 63 72 57 53 50 82 85 93 100 75 90 90 95 100 100 75 93 85 91 80 71 58 47 38 32 33 49 48 56 58 51 54 54
57 43 33 28 28 30 27 22 16 11 9 45 65 75 96 63 60 73 84 88 100 100 97 94 100 100 100 87 74 67 75 75 67 56 43 30 20 41 51 59 53 48 53 65 63
52 38 32 29 27 28 26 23 12 10 11 10 73 92 100 84 58 87 100 85 95 100 100 98 95 100 100 90 86 80 87 86 72 53 39 24 27 39 55 60 59 55 60 72 86
50 38 34 32 29 27 24 19 12 9 17 16 57 92 91 100 76 57 100 100 93 90 100 100 99 97 97 99 96 98 94 81 62 57 43 32 22 38 52 42 51 57 73 80 91
56 41 38 32 27 24 18 18 12 8 16 37 59 100 99 100 95 54 77 100 100 96 67 80 94 81 70 42 44 36 36 42 38 32 38 37 27 49 59 59 74 76 81 89 89
58 45 46 34 27 19 15 13 9 5 13 27 43 100 90 100 100 94 49 80 100 100 88 70 97 70 57 44 59 79 96 83 81 65 47 23 56 50 71 71 72 70 83 88 97

GFSSW_500_rhum_087.txt.gz
RH
16 15 11 10 9 9 11 13 15 22 23 23 11 86 54 60 40 30 26 56 43 93 100 100 100 94 99 99 41 15 16 10 11 18 20 16 14 14 35 35 72 88 41 31 22
17 16 13 11 10 10 11 13 22 23 27 26 20 80 100 96 59 50 34 31 74 81 100 100 99 99 100 99 78 30 13 11 11 14 18 18 15 12 78 56 50 84 70 38 28
18 17 16 13 11 11 12 14 18 23 26 26 28 27 93 94 91 54 42 36 58 100 92 99 100 100 100 100 95 56 23 12 12 13 17 16 13 12 59 66 47 59 94 53 37
18 18 19 15 13 11 15 17 17 20 34 28 31 20 82 95 71 73 44 41 39 66 100 100 96 100 100 100 92 75 44 14 15 14 15 14 14 13 22 72 77 67 77 89 51
18 20 21 17 15 12 13 18 19 19 30 28 33 28 48 91 81 62 70 46 38 43 77 100 95 97 100 97 96 63 29 17 15 17 16 14 14 13 18 100 81 86 77 76 86
20 20 22 21 18 12 14 19 18 19 33 30 29 35 17 68 76 60 53 54 40 38 42 85 100 100 99 99 99 78 37 17 15 15 16 17 14 13 23 62 100 100 89 83 71
20 21 24 23 21 14 14 16 15 17 29 32 30 40 25 28 66 58 74 55 45 35 47 40 91 100 100 100 100 93 48 22 16 16 17 20 16 15 30 84 100 100 90 86 76
22 22 23 23 22 16 13 15 16 19 25 39 39 46 41 34 51 52 64 77 95 43 46 43 64 99 100 91 100 100 87 22 18 17 17 19 18 16 26 55 98 100 98 90 75
25 22 23 22 23 19 14 16 18 20 21 40 48 54 48 31 37 52 54 73 100 80 49 48 46 93 100 100 99 100 82 53 21 18 17 17 18 22 22 32 61 91 98 88 77
27 22 22 23 23 22 15 17 17 18 24 39 53 58 55 30 41 53 58 65 96 100 64 47 58 98 100 100 94 82 86 56 24 21 18 18 17 26 24 26 43 59 91 92 84
29 24 24 23 22 22 15 18 18 17 26 37 59 64 64 38 38 49 60 56 88 100 85 49 49 91 94 99 88 100 89 68 42 21 19 19 17 29 25 21 39 50 62 96 83
31 27 25 24 23 24 17 15 20 18 27 31 61 75 75 47 27 42 59 62 75 100 85 52 50 99 100 100 96 85 94 80 44 26 19 20 18 24 24 25 34 49 53 64 98
34 30 26 27 24 25 18 14 17 21 25 32 66 92 92 56 34 40 55 68 59 100 78 53 78 97 100 100 99 92 91 83 52 28 21 18 18 17 21 23 29 39 57 53 59
37 34 28 28 25 24 21 16 15 23 22 41 60 95 100 74 45 33 54 87 54 99 92 61 62 96 100 100 98 100 100 88 60 49 69 27 15 16 19 27 25 32 44 74 63
40 36 33 30 29 25 25 20 17 20 28 47 65 97 100 100 57 33 77 100 82 88 100 100 100 95 98 95 98 100 100 100 90 70 55 26 17 16 17 23 40 45 58 64 96
43 36 39 32 30 27 28 25 18 18 36 48 53 82 100 100 84 33 83 100 91 85 60 71 66 100 82 100 100 100 98 98 95 62 62 29 16 16 17 28 64 72 66 76 90
40 39 40 34 31 29 31 27 22 15 27 44 55 87 85 100 100 32 61 82 72 58 48 61 67 100 96 100 100 100 100 97 82 74 58 30 16 15 18 20 36 60 64 68 69
40 38 39 34 32 31 33 31 27 16 12 51 57 70 80 100 100 65 36 68 56 54 46 69 96 100 94 100 100 99 98 73 60 52 52 32 18 17 20 21 24 37 50 54 62
43 38 39 36 35 34 34 33 25 16 13 14 63 56 70 100 100 100 53 48 63 70 54 73 100 100 100 100 100 95 89 78 72 67 63 43 24 21 19 20 21 22 23 36 50
44 42 41 38 39 39 33 31 22 17 13 15 48 69 63 76 100 100 100 50 57 66 83 93 99 100 100 99 100 100 83 77 69 64 66 59 42 28 26 19 21 28 23 16 17
44 43 42 43 43 41 32 30 22 14 13 51 34 80 78 68 79 100 100 77 36 46 48 73 99 100 100 88 100 100 75 66 63 63 58 61 56 48 53 26 27 34 31 30 38
48 47 47 45 46 42 33 25 18 13 12 51 75 88 80 65 68 99 100 100 52 40 40 68 96 100 100 95 81 69 71 76 72 63 58 62 68 66 52 38 35 35 37 40 39
51 48 42 44 47 43 29 20 14 10 8 29 82 78 91 88 64 100 100 100 69 64 78 76 89 100 91 64 52 58 68 74 65 68 66 63 69 73 55 44 48 45 49 51 48
52 48 41 43 43 32 20 14 11 8 6 40 77 92 100 100 57 99 100 100 100 99 100 80 78 94 94 99 96 85 75 80 76 72 68 67 74 63 50 54 55 52 48 48 50
50 50 44 46 38 24 17 12 9 6 5 8 56 84 100 91 71 81 100 100 97 100 100 100 100 92 100 96 78 81 80 70 62 74 69 66 57 53 39 45 51 39 41 44 45
53 54 44 44 33 23 15 10 7 5 5 6 26 76 100 97 83 70 100 100 100 100 100 100 100 100 95 89 84 76 70 66 67 72 64 67 68 60 33 28 39 42 45 45 44
52 49 47 44 30 20 13 9 6 5 4 3 17 71 97 93 82 75 69 100 100 100 97 99 100 95 85 92 86 76 80 82 76 73 65 54 49 45 40 29 36 49 51 56 60

GFSSW_500_rhum_090.txt.gz
RH
12 13 12 13 11 11 12 9 10 14 14 14 23 17 20 39 96 43 46 30 47 46 85 100 98 73 66 99 98 99 70 62 30 28 18 20 19 20 17 16 25 74 77 39 27
13 14 15 14 12 12 13 10 10 14 14 13 22 18 24 16 65 59 48 42 33 52 52 86 100 100 93 86 100 96 74 59 41 19 14 18 21 18 18 18 16 24 62 66 36
15 15 15 14 13 14 14 11 10 13 14 14 26 22 25 18 49 75 56 47 41 37 67 56 100 100 98 92 98 91 72 49 51 17 12 16 22 20 18 17 18 17 42 84 55
16 15 14 15 15 15 16 12 12 13 15 15 25 31 28 24 21 60 57 60 46 40 58 76 97 100 100 97 86 94 79 57 33 22 11 12 29 19 17 17 13 15 26 38 89
18 16 16 16 17 18 18 14 12 13 15 16 28 40 32 30 28 44 56 61 62 52 45 100 81 100 100 96 86 93 100 84 30 23 11 11 22 25 18 17 17 12 15 32 39
18 17 16 16 18 18 20 17 14 14 17 18 31 46 42 35 29 45 67 50 65 54 48 100 82 96 100 100 100 98 99 99 53 18 12 12 20 17 19 18 15 14 11 19 28
17 17 18 17 19 20 23 19 16 16 17 21 35 52 51 40 29 36 59 61 62 58 48 69 100 89 96 99 100 91 94 98 83 23 13 15 24 15 17 17 16 16 11 12 29
18 18 18 18 19 22 25 22 19 19 18 24 39 58 58 45 32 30 42 61 71 66 49 54 90 100 92 88 99 84 99 97 87 53 15 20 21 17 16 16 16 16 14 12 45
20 18 18 18 22 24 26 25 21 20 19 25 46 66 72 55 35 29 44 57 64 69 55 50 57 84 100 95 92 93 91 88 74 67 34 21 27 17 15 15 19 18 19 30 38
22 19 20 19 23 26 28 28 24 21 20 27 46 80 84 74 38 31 45 60 62 100 75 51 56 53 97 100 96 75 87 98 82 50 28 17 20 19 18 16 19 16 17 72 95
22 20 20 21 24 28 30 32 26 21 23 30 46 75 87 83 44 32 47 59 60 100 100 55 52 48 84 100 96 72 99 94 78 61 46 20 18 21 24 20 16 15 15 29 80
23 23 22 24 26 29 33 34 31 22 22 34 44 74 92 92 57 35 45 61 63 93 99 65 50 44 77 100 94 59 64 93 92 54 33 21 18 20 20 20 18 16 14 25 83
24 24 24 27 27 30 37 36 31 22 20 34 50 85 94 99 77 36 51 56 57 78 100 72 65 67 81 96 95 92 75 90 97 85 66 21 19 19 18 18 20 19 15 19 36
26 25 26 29 29 34 40 38 32 23 18 38 57 70 100 100 92 40 77 90 77 77 76 65 52 60 83 100 100 99 84 95 99 80 67 33 20 19 18 18 19 18 18 23 36
28 28 32 29 30 34 41 40 32 25 18 29 61 80 94 100 99 56 99 98 69 93 100 60 58 74 99 89 100 100 96 100 100 96 76 66 41 20 20 18 17 17 21 30 45
34 31 37 32 35 34 42 39 28 21 17 15 42 82 89 100 100 70 99 100 65 88 94 62 94 100 100 100 100 100 100 100 100 100 69 77 58 22 24 19 16 19 28 41 42
40 36 38 33 29 36 43 31 24 18 17 14 18 93 91 100 100 62 75 65 62 93 100 57 100 100 86 99 100 100 100 100 99 90 70 65 46 39 34 15 17 20 36 52 53
45 40 39 32 29 36 36 25 19 15 12 12 16 85 87 100 100 98 57 56 54 57 100 95 98 100 98 100 100 100 92 93 68 61 63 66 50 48 26 17 17 19 32 67 58
44 41 40 29 30 33 27 22 16 13 8 12 40 72 97 89 100 100 77 48 50 44 48 59 97 100 100 100 100 100 90 80 78 66 57 60 56 45 19 16 17 16 17 34 64
40 42 41 27 30 27 23 19 15 11 6 15 84 76 100 78 99 100 100 48 55 80 44 59 71 97 100 100 100 100 98 81 75 72 68 64 64 43 21 17 17 17 18 20 32
42 41 34 29 30 25 22 18 13 8 6 12 63 91 100 91 97 100 100 61 66 83 76 60 76 100 100 100 100 78 78 79 73 82 76 69 70 57 32 22 20 19 18 23 22
44 44 36 31 28 26 24 17 11 7 6 11 68 100 100 90 98 100 100 80 44 52 77 89 98 100 100 94 75 74 84 83 89 90 91 82 76 72 51 28 36 38 26 26 32
50 49 37 31 28 25 24 17 8 6 5 5 53 92 100 91 96 100 100 97 39 36 37 92 100 100 100 100 96 100 79 66 72 78 84 86 79 82 87 56 61 52 32 29 32
53 49 33 32 30 25 22 15 8 5 4 4 34 84 84 93 96 100 100 98 68 85 100 80 96 97 90 100 100 95 78 79 86 90 94 97 100 100 89 77 63 48 37 35 35
57 52 39 38 32 25 20 13 7 5 4 3 42 84 87 69 76 100 100 100 100 99 81 62 92 88 83 80 70 63 75 76 64 80 94 100 96 94 78 67 60 47 40 46 39
61 54 38 37 33 26 20 11 6 5 4 2 37 80 74 51 66 97 100 100 100 95 100 86 76 85 78 84 83 63 70 71 77 79 81 86 100 90 69 58 46 38 42 42 39
63 60 45 40 33 24 19 11 6 5 4 3 24 74 89 53 62 79 96 99 100 96 97 90 92 80 77 89 87 89 86 85 84 81 70 75 96 77 66 54 37 33 42 40 36

GFSSW_500_rhum_093.txt.gz
RH
12 12 10 9 10 10 14 20 17 14 12 11 12 14 20 26 24 14 57 38 42 50 63 88 97 90 53 66 85 98 92 73 48 51 58 51 35 33 46 36 80 92 84 39 23
13 12 10 10 10 11 14 19 19 16 14 13 14 18 24 31 28 19 39 47 41 40 62 76 100 81 70 42 86 97 93 82 66 44 68 96 35 29 28 29 68 90 89 81 38
13 12 11 11 12 12 16 22 22 18 15 14 16 20 29 37 32 24 30 68 44 40 48 61 100 100 100 75 48 96 79 91 94 87 96 97 58 29 36 29 31 51 68 89 68
14 12 13 12 13 13 17 23 25 19 16 16 18 23 33 45 38 30 22 60 66 51 40 51 82 100 98 100 49 87 67 100 97 96 82 95 94 28 24 25 32 23 37 43 70
15 14 14 14 14 14 15 22 29 21 17 18 20 27 38 55 45 33 31 42 59 51 73 56 65 100 100 100 90 74 100 100 100 91 97 90 83 28 22 29 22 18 17 22 34
17 15 16 16 16 15 18 26 32 24 18 19 23 28 43 68 62 40 24 58 56 60 64 63 83 88 100 100 96 67 100 99 91 90 98 98 61 40 21 33 20 20 20 19 20
18 17 17 17 18 16 18 25 34 28 19 19 26 30 56 76 76 48 24 52 60 66 84 60 64 98 84 100 100 88 77 95 95 82 76 97 72 21 22 28 20 20 19 18 18
19 20 18 18 19 18 18 24 33 29 19 19 30 36 67 81 81 58 30 38 57 54 100 60 94 99 80 98 100 99 90 91 98 100 76 57 56 18 23 29 21 19 17 16 16
22 20 20 20 20 17 19 23 32 27 18 20 38 42 70 85 87 65 27 37 54 65 84 75 88 100 96 79 100 100 92 94 100 100 98 55 36 35 18 26 25 18 18 18 17
25 23 22 22 22 19 20 21 25 23 19 19 43 54 85 89 96 69 30 43 53 58 59 89 59 100 100 97 100 97 95 85 97 95 96 80 32 32 20 17 21 22 18 19 19
28 25 26 22 22 20 19 19 21 20 18 21 41 62 76 95 100 65 35 52 61 70 69 93 61 94 100 100 85 97 100 100 94 89 98 89 33 25 21 17 17 18 17 18 20
31 29 29 25 21 20 19 19 21 17 17 21 27 69 74 95 100 59 44 62 71 79 100 100 63 69 96 100 98 84 79 98 100 97 98 100 69 25 23 22 16 17 16 17 22
37 34 32 26 20 21 18 18 19 15 16 18 18 64 81 98 100 54 65 66 67 72 100 99 84 58 70 100 100 100 75 72 91 84 99 100 100 42 22 25 19 16 15 20 24
41 39 33 25 21 20 19 17 17 12 14 13 17 51 90 100 100 60 98 100 100 80 88 100 93 53 64 100 100 100 98 93 98 76 93 95 91 70 24 24 21 18 16 19 18
40 38 31 26 21 22 18 18 14 11 14 13 16 61 95 100 100 71 83 99 68 71 94 100 82 46 55 99 100 99 96 100 80 94 100 96 86 51 22 18 19 22 20 20 19
44 36 33 26 25 22 19 17 14 11 13 10 16 48 98 100 100 73 67 95 95 83 100 96 97 58 62 96 100 100 98 100 100 100 100 98 80 44 23 30 21 21 18 18 20
47 37 34 28 25 20 19 16 13 10 8 10 18 58 91 100 100 82 69 65 80 100 93 96 92 45 100 92 100 100 100 100 100 98 85 97 83 57 27 30 23 19 19 18 18
50 40 34 29 27 21 19 15 12 8 6 7 37 74 87 100 100 100 58 59 91 100 79 82 92 76 100 100 100 100 100 100 96 84 88 89 67 69 50 23 24 20 19 17 16
49 42 35 32 23 20 18 15 10 7 5 7 54 79 78 100 100 100 70 49 60 82 82 83 100 90 100 100 100 100 100 98 93 100 100 72 60 60 60 32 22 21 16 16 17
47 42 39 34 23 20 18 15 8 6 4 8 34 67 89 100 100 100 100 48 44 46 64 90 100 100 100 100 100 99 99 100 97 93 100 82 67 61 56 49 43 29 20 16 16
47 40 38 33 24 20 17 14 7 6 4 6 31 79 90 89 100 100 89 54 82 55 50 60 97 100 100 100 99 99 90 99 100 100 100 89 79 71 68 47 36 17 17 17 18
50 41 41 35 25 22 17 14 8 6 4 4 17 46 61 80 99 100 89 53 71 78 94 66 72 90 98 100 100 97 90 100 100 100 100 100 82 68 64 56 23 17 17 18 18
52 46 45 36 28 25 18 14 9 6 5 3 23 37 52 71 97 98 100 38 51 54 75 73 70 97 97 97 93 84 85 100 100 100 100 100 89 79 68 65 32 25 24 26 31
54 46 46 38 33 26 20 15 10 6 5 3 13 34 44 70 96 92 100 39 51 68 70 82 100 99 98 100 99 82 93 100 100 100 100 100 100 92 85 81 47 38 35 34 40
61 53 54 41 35 28 21 16 10 7 5 4 9 30 37 66 92 84 90 100 100 93 99 99 100 100 100 100 97 81 90 92 92 100 98 99 100 87 70 68 68 44 37 44 46
63 55 56 48 38 29 21 16 11 7 5 4 5 21 36 60 86 75 89 94 94 100 100 100 100 92 100 96 100 99 85 81 81 93 100 100 100 85 70 54 52 60 61 57 48
66 63 61 51 39 29 21 16 11 7 5 4 5 14 31 50 80 88 93 91 84 76 83 90 94 97 96 90 82 75 83 80 80 75 85 98 90 67 64 60 60 63 67 59 50

GFSSW_500_rhum_096.txt.gz
RH
33 22 13 13 14 13 10 8 9 9 18 18 11 11 15 17 18 28 32 24 23 70 67 59 89 99 50 44 94 72 82 95 81 54 49 80 79 79 70 35 73 86 71 39 31
31 19 15 15 16 14 10 11 9 10 15 17 12 12 16 19 22 42 35 30 27 48 87 84 68 100 43 42 84 81 90 81 79 64 59 91 98 80 62 31 53 78 69 71 35
25 18 16 17 17 14 11 10 10 13 17 16 12 12 20 24 27 46 48 35 28 50 73 81 64 100 76 53 62 96 78 67 96 91 86 98 93 96 51 38 43 70 75 73 89
22 18 18 18 19 14 11 12 12 14 17 16 12 13 22 32 43 57 62 42 23 68 50 55 95 100 99 91 70 93 62 80 100 98 93 95 96 97 54 57 45 56 71 91 83
24 21 19 19 20 16 12 14 13 15 16 15 12 15 25 36 52 73 72 45 26 70 65 50 75 100 100 96 92 82 83 72 99 98 87 98 84 97 71 93 51 42 66 79 92
29 25 21 22 22 17 12 14 14 14 16 14 12 17 28 44 76 82 81 46 22 49 88 76 72 95 100 100 100 78 98 79 99 100 86 98 99 97 98 88 63 35 37 50 74
37 27 24 24 25 16 14 16 14 14 15 14 13 19 35 55 87 84 85 44 21 48 84 97 68 96 100 100 98 97 76 95 96 93 96 95 91 97 79 100 77 44 34 37 38
41 34 25 27 26 17 15 16 16 14 14 14 14 22 38 72 93 91 88 37 22 49 62 100 98 91 100 100 100 100 69 67 83 97 100 99 87 86 98 98 81 42 27 30 24
44 38 28 29 28 19 16 14 14 14 14 12 14 25 43 75 92 100 72 34 28 48 51 100 100 96 100 100 100 100 92 58 80 96 99 96 100 89 98 99 89 34 25 24 21
47 39 32 31 26 20 16 12 14 12 13 10 16 26 51 80 100 100 52 38 39 49 61 91 100 78 100 99 99 100 89 71 64 87 97 93 95 100 94 94 85 33 23 22 21
43 38 36 33 26 20 15 14 12 8 10 9 18 22 56 93 100 100 52 52 59 55 57 74 100 100 79 82 97 100 100 100 86 97 100 99 92 98 95 95 92 39 26 26 21
44 38 36 31 26 20 15 14 11 8 10 10 37 20 69 100 100 99 62 73 85 86 96 58 80 100 100 100 91 100 98 100 100 92 98 94 98 100 96 77 86 30 26 25 19
44 41 37 31 27 21 16 14 10 7 7 9 22 16 70 96 100 95 77 100 94 64 92 82 87 100 100 100 100 100 82 100 98 95 90 100 99 100 96 76 55 58 23 24 18
47 43 39 31 27 19 16 12 9 6 6 9 18 21 90 99 100 85 87 90 98 99 79 92 84 94 100 100 100 100 82 100 100 95 85 78 86 94 91 72 39 25 24 22 21
48 45 42 33 25 19 15 12 9 7 6 7 16 59 100 100 100 75 78 88 65 94 88 99 82 86 100 100 100 95 84 98 90 96 100 100 99 98 100 77 50 18 13 16 17
51 46 41 34 30 22 15 12 9 6 5 8 15 71 93 77 97 64 75 67 80 76 100 93 88 94 97 100 100 100 80 100 91 98 100 85 82 99 74 62 25 23 20 17 15
54 52 44 34 27 22 14 13 9 6 4 6 22 61 85 85 97 77 76 80 65 81 95 85 83 75 93 100 100 100 100 100 98 100 69 88 96 88 88 95 44 24 23 20 17
57 54 45 37 28 21 16 13 10 6 4 5 24 58 72 90 98 99 69 83 94 84 100 82 84 76 72 99 100 100 94 95 100 98 100 82 86 96 81 76 83 55 46 35 25
57 55 45 38 28 22 16 13 10 6 4 4 22 61 64 88 98 100 52 87 90 92 94 100 96 63 87 95 100 100 89 98 70 93 100 76 70 99 68 66 45 23 21 20 20
60 57 46 37 29 23 17 13 10 6 4 4 21 51 71 90 87 85 51 60 59 77 100 99 77 48 66 100 100 87 87 88 86 90 100 83 94 100 96 74 26 25 23 20 23
58 56 48 36 31 25 18 14 10 7 4 4 13 44 68 86 92 79 48 71 49 51 67 78 96 46 91 100 89 86 85 100 100 100 98 100 97 70 88 82 50 23 22 23 19
56 59 50 39 33 27 19 14 10 8 4 4 10 43 60 71 83 71 53 78 53 64 82 71 90 70 93 88 78 91 83 89 93 99 94 100 77 79 64 64 95 70 37 29 26
60 60 51 44 37 29 20 14 11 8 5 4 7 33 49 58 77 64 56 73 98 72 94 59 74 80 86 84 83 89 87 93 100 100 100 100 97 89 80 90 85 73 76 23 26
61 59 54 48 40 28 20 15 12 9 6 4 6 31 48 47 66 73 36 44 63 83 72 70 84 100 99 95 100 96 85 98 100 100 98 98 100 100 97 97 82 40 21 17 18
64 58 53 52 41 29 20 16 13 9 6 4 5 14 45 44 61 76 83 95 86 74 71 77 97 100 100 100 92 76 87 100 100 100 100 100 100 83 71 81 77 72 38 27 27
66 58 55 55 43 30 21 16 14 10 7 5 5 12 39 44 54 67 79 94 84 74 73 69 69 91 100 97 100 87 98 97 96 98 100 100 98 83 76 78 79 77 55 42 40
73 59 57 58 46 34 23 18 15 11 7 5 6 9 30 54 56 59 64 82 93 83 97 100 92 98 94 96 95 100 100 89 85 97 99 100 92 78 84 80 81 77 86 78 65

GFSSW_500_rhum_099.txt.gz
RH
48 41 27 22 19 18 18 16 10 10 11 10 10 11 10 10 11 18 22 45 48 41 50 87 67 69 100 97 58 44 82 87 66 76 81 92 90 72 84 87 78 90 52 33 51
49 35 24 21 20 20 21 16 12 10 11 10 10 11 10 11 14 25 42 53 61 42 28 100 64 76 100 88 49 44 75 97 67 80 77 97 94 100 87 83 83 66 66 59 38
48 37 29 25 24 23 23 17 14 11 11 9 10 10 10 13 18 37 53 72 66 45 25 100 87 73 100 82 52 47 59 92 99 94 73 96 96 98 98 76 53 59 55 82 62
46 36 35 30 27 25 26 18 16 13 10 9 10 10 12 14 28 54 67 81 70 47 21 96 100 85 100 93 63 53 77 82 100 100 95 97 95 98 84 100 66 62 74 82 95
47 39 38 37 30 29 28 19 16 13 10 9 9 10 14 17 41 72 83 82 68 42 22 66 100 100 100 100 61 56 80 95 100 98 97 98 94 97 91 91 54 47 61 88 87
49 43 41 40 36 32 27 20 15 11 9 9 9 9 16 26 63 82 89 79 60 36 26 71 95 100 100 100 90 44 69 100 100 98 97 98 90 90 98 82 49 52 44 57 95
52 45 45 44 37 36 26 18 13 10 7 7 8 12 19 36 67 87 80 70 45 30 27 73 80 100 100 100 96 53 64 100 98 86 100 98 97 72 92 82 56 57 60 53 65
56 52 50 45 36 35 26 17 12 9 6 6 8 13 20 36 78 79 74 72 37 30 39 77 75 93 100 100 94 83 76 96 97 88 95 98 93 77 97 96 57 53 68 66 57
62 58 48 41 37 30 25 15 11 8 6 6 8 13 19 60 82 77 88 58 46 35 43 75 97 88 100 100 98 99 79 88 99 96 100 96 93 97 90 97 93 87 69 64 45
68 56 49 42 38 31 23 13 10 7 6 6 8 16 20 60 72 75 88 59 63 42 45 69 100 86 100 100 91 93 98 94 97 99 96 88 99 98 94 96 94 88 76 62 43
70 55 48 46 39 32 21 13 10 6 4 4 7 12 35 67 69 87 72 90 87 68 46 48 100 87 100 100 90 81 100 90 97 100 98 87 97 100 98 97 99 97 66 62 68
69 55 50 48 40 31 19 13 9 6 4 5 9 22 48 55 63 90 61 77 100 88 70 48 95 96 100 100 100 98 100 100 96 100 99 99 98 99 94 100 98 98 95 54 59
75 55 51 49 39 30 18 14 8 5 4 6 10 25 40 47 70 70 55 89 88 99 88 74 84 91 100 100 100 100 98 100 99 86 93 98 100 100 98 94 96 94 88 95 58
80 58 55 50 42 27 17 12 8 6 5 5 11 31 46 70 68 60 56 59 64 90 72 96 65 96 100 100 100 97 94 87 96 100 97 98 92 93 87 99 100 90 74 86 74
82 62 58 48 40 24 17 11 8 6 5 5 9 29 70 69 76 65 50 57 74 74 71 82 82 87 87 91 88 98 83 95 100 100 97 100 98 85 97 98 91 89 85 79 69
80 62 60 48 42 25 17 11 9 6 5 5 7 36 49 58 69 66 58 54 98 100 95 94 94 100 100 100 100 60 100 97 100 95 86 88 94 82 81 71 67 65 73 74 65
76 64 58 46 39 25 17 12 11 7 5 4 8 37 54 60 68 58 67 43 66 100 83 94 98 99 100 100 100 99 100 100 100 98 100 100 100 97 70 77 57 61 63 56 54
74 70 61 48 36 25 18 13 11 8 5 3 7 46 59 57 65 56 71 56 42 100 99 96 100 100 100 99 100 98 100 94 93 81 66 96 93 77 98 74 48 47 54 47 22
85 84 63 50 38 28 19 13 11 8 5 4 9 47 54 59 72 57 66 65 57 100 100 98 99 96 98 100 96 100 99 76 74 86 79 53 49 59 60 72 49 50 62 53 29
95 89 64 50 39 29 18 14 12 8 5 4 6 45 53 59 58 54 53 57 70 96 100 87 85 94 91 100 100 99 98 99 73 81 77 60 76 61 58 59 48 65 58 29 28
95 80 60 48 39 25 18 15 12 8 6 4 6 28 47 58 51 47 60 54 67 64 79 72 63 64 82 95 94 100 96 100 90 84 82 76 64 69 59 76 80 77 79 61 41
94 73 58 49 39 24 18 16 12 9 7 4 5 22 38 57 38 46 40 44 42 51 55 50 41 35 76 79 86 86 97 96 70 60 66 67 81 83 82 97 78 62 40 50 51
94 71 57 52 37 24 19 16 12 9 7 5 4 10 36 55 45 42 89 64 53 81 59 58 28 38 68 57 77 85 90 100 99 100 100 92 92 94 89 95 52 44 29 23 33
88 72 58 55 36 26 20 17 12 10 7 6 4 8 36 41 57 69 53 70 68 60 74 62 61 66 69 74 76 90 95 95 99 100 100 100 100 100 75 55 81 55 39 28 22
86 71 58 53 39 28 21 18 12 10 8 6 4 6 19 34 53 62 75 62 57 51 44 62 67 74 70 76 79 86 97 96 100 100 100 100 97 80 83 52 58 57 81 88 74
82 69 59 52 43 30 23 18 14 11 9 7 5 6 12 36 51 61 74 78 74 52 50 45 54 74 85 76 86 91 84 76 99 98 97 100 96 100 88 98 99 97 66 40 67
83 70 61 53 46 31 24 20 16 12 10 8 5 5 11 23 52 58 65 72 93 86 73 48 43 50 80 88 97 100 100 100 100 100 96 84 92 89 100 100 100 100 98 76 41

GFSSW_500_rhum_102.txt.gz
RH
57 52 51 43 36 29 27 27 26 26 19 10 8 7 6 6 7 7 10 16 36 53 56 61 42 23 31 34 21 77 58 53 99 93 64 77 100 80 98 98 93 50 32 34 51
58 54 54 45 38 36 34 30 30 27 16 9 8 6 5 6 10 10 15 37 48 72 70 53 30 84 99 93 56 100 65 89 97 75 99 100 95 93 98 91 88 82 44 34 32
60 62 56 47 42 38 39 35 33 24 13 9 7 5 5 8 9 14 26 47 72 82 66 45 93 94 100 98 87 100 80 64 84 98 100 100 83 98 97 98 84 95 82 39 27
65 63 58 49 46 41 43 37 33 21 11 9 6 5 5 8 14 18 38 58 81 75 54 42 67 100 95 80 99 100 78 70 98 98 97 98 98 93 96 95 72 83 89 86 61
64 64 62 52 49 48 45 38 30 18 10 8 5 5 6 8 14 22 45 70 73 58 44 34 96 100 88 100 96 85 72 51 99 98 98 89 98 90 93 76 70 75 87 83 88
66 70 67 56 53 50 40 37 27 15 11 6 5 5 6 10 17 35 63 73 61 51 38 29 65 100 91 100 80 84 65 48 88 98 99 99 93 97 92 97 63 63 89 84 79
73 74 70 61 58 46 42 34 23 13 9 6 5 6 9 10 24 50 66 58 55 49 36 30 62 100 100 100 92 95 70 56 100 99 98 98 87 97 84 78 82 58 65 86 85
76 78 73 68 55 47 45 34 19 12 7 6 6 7 10 16 40 59 53 50 54 48 50 44 80 100 100 100 90 100 76 52 81 98 99 98 97 93 98 71 83 80 74 71 68
83 83 77 70 54 48 45 31 15 9 7 6 6 7 11 23 41 50 43 48 56 66 51 39 88 100 100 100 99 100 65 67 60 99 98 98 99 96 82 76 66 63 65 67 65
90 86 80 67 54 48 42 24 14 9 8 6 6 9 17 28 39 42 45 50 58 84 47 48 74 99 100 100 100 99 81 72 65 96 100 100 98 96 80 90 98 77 72 70 74
90 91 83 67 54 50 41 19 12 9 8 6 6 12 21 33 41 48 49 57 87 96 69 47 67 98 100 100 100 87 100 62 74 84 95 100 97 98 100 99 97 81 60 62 54
94 90 88 71 58 50 36 18 11 10 8 6 7 14 22 37 55 53 47 45 79 100 100 50 52 94 97 100 100 68 88 98 81 98 96 97 94 98 97 98 79 86 90 92 72
97 87 93 72 59 50 32 17 12 10 7 6 6 17 23 47 57 58 39 62 50 86 100 81 53 91 100 100 100 75 73 94 98 97 99 99 98 98 99 99 98 98 97 99 99
97 94 93 71 61 47 29 16 12 10 6 6 9 17 28 44 52 55 41 70 72 59 91 93 59 81 100 100 99 93 84 100 99 100 98 100 96 88 94 99 95 98 98 98 93
96 94 89 66 58 45 25 17 12 8 5 5 7 10 31 48 58 50 51 87 95 89 62 69 64 86 100 96 100 100 100 98 99 91 95 95 90 100 99 97 94 86 98 98 100
94 91 84 73 56 39 24 16 12 8 5 4 5 17 35 56 61 50 55 52 94 100 92 99 56 96 97 100 100 96 94 100 93 100 97 89 94 100 95 83 91 100 98 98 96
94 95 79 85 55 36 26 15 12 8 5 3 5 14 33 58 51 44 44 51 95 98 100 78 74 98 94 100 98 100 98 99 100 100 85 82 93 100 96 97 90 96 97 94 85
97 96 88 86 51 35 23 15 11 7 5 3 4 12 35 47 46 41 40 67 54 99 100 100 82 62 85 88 70 96 95 100 100 87 82 77 71 96 89 95 88 90 90 92 94
96 93 95 68 46 34 20 15 11 7 5 3 4 14 32 34 41 42 43 62 53 75 99 92 93 95 86 98 63 61 89 100 88 80 100 86 94 82 68 68 85 80 80 62 64
97 95 87 60 46 31 18 14 10 7 5 4 4 12 28 36 36 46 50 80 80 84 67 91 74 88 97 99 98 89 90 100 99 92 87 86 93 78 67 66 47 48 51 44 38
97 95 69 57 44 26 18 14 10 8 5 4 4 8 24 37 30 36 50 57 71 80 72 83 86 86 81 76 95 59 82 77 70 65 79 61 56 53 61 47 64 76 59 38 39
96 93 69 58 37 24 18 14 11 8 6 5 4 6 23 34 40 29 39 47 54 42 57 57 72 97 100 72 93 100 69 49 52 40 42 49 40 35 33 35 39 41 49 50 36
96 85 66 55 34 24 18 15 11 9 7 5 4 5 24 32 46 32 42 58 64 30 34 39 47 51 76 94 74 99 96 81 70 62 54 48 45 39 42 40 40 47 45 44 56
96 78 64 54 35 24 18 15 12 9 8 6 5 5 15 32 48 43 37 38 47 27 30 28 27 34 62 70 79 94 79 85 70 63 53 47 51 51 46 46 48 45 61 71 74
93 73 63 51 37 26 18 16 13 10 8 7 5 4 7 31 36 48 39 38 54 50 32 33 22 25 49 68 79 89 86 92 100 100 96 79 91 76 60 69 69 73 70 58 36
93 68 58 49 38 27 19 16 14 11 9 8 6 5 5 16 46 40 46 48 48 42 36 40 42 42 53 52 55 62 86 89 80 91 100 98 96 96 99 89 90 81 72 58 46
90 66 56 52 38 27 20 17 15 13 10 9 7 5 5 9 33 51 46 52 48 46 30 36 40 44 55 52 71 80 91 85 94 100 88 100 100 100 100 89 55 79 89 81 78

GFSSW_500_rhum_105.txt.gz
RH
41 45 56 62 64 59 49 43 39 41 41 32 24 12 10 6 6 5 5 6 8 11 25 43 43 47 41 31 31 33 23 20 46 68 96 99 94 100 99 98 86 75 51 56 93
42 48 58 66 62 62 51 45 42 48 38 31 21 11 9 6 6 6 6 6 11 22 45 60 75 68 62 50 43 37 29 19 34 51 88 100 99 99 100 98 97 76 66 68 69
46 47 62 65 70 64 55 48 47 44 37 29 15 10 7 6 6 6 6 7 14 30 64 75 73 62 46 28 30 37 33 26 24 54 86 98 96 99 97 98 84 62 57 53 65
70 53 68 70 73 68 59 53 49 42 34 24 12 8 7 7 7 6 6 10 19 33 55 67 56 42 29 34 64 78 34 24 23 50 74 98 98 98 95 94 77 60 62 67 61
72 64 63 76 76 73 64 60 45 43 33 17 10 8 8 6 6 8 9 19 31 54 74 60 47 34 38 77 100 98 95 21 24 50 100 100 98 99 87 93 84 68 77 62 76
46 53 78 77 82 75 72 57 47 42 27 14 9 8 7 6 8 9 16 30 43 52 56 52 45 34 58 90 90 96 89 88 36 67 99 95 96 100 64 92 89 72 94 90 74
75 67 79 80 86 81 80 53 48 38 20 11 9 8 6 7 9 13 28 38 49 54 56 54 49 41 94 100 94 98 97 100 49 73 98 95 99 98 73 90 96 76 89 95 97
95 76 66 90 90 88 76 53 48 34 16 11 10 6 6 8 12 22 38 45 53 49 53 62 66 47 100 100 97 100 100 100 82 86 97 99 97 96 92 82 74 77 78 92 96
96 90 76 93 91 90 68 55 47 27 14 11 8 6 8 11 15 33 44 50 50 42 68 88 72 57 100 95 100 100 87 92 77 79 100 97 100 97 99 71 93 78 76 79 85
96 96 88 95 93 93 69 58 44 22 13 10 7 5 8 13 21 44 54 47 44 50 92 70 62 66 99 100 100 100 83 90 99 78 97 94 98 100 98 87 87 88 89 73 77
86 94 91 95 96 93 73 58 40 18 13 8 6 5 9 19 30 54 59 40 55 54 100 81 54 78 100 100 100 100 64 100 100 92 100 98 92 99 97 97 88 100 100 97 100
95 66 94 97 94 93 71 51 30 16 11 6 5 6 12 28 44 62 56 54 68 54 100 100 48 76 95 100 100 100 80 100 100 98 93 98 98 97 98 96 92 90 98 99 100
95 93 94 97 95 84 64 45 22 14 8 6 4 7 15 33 51 58 60 63 82 67 79 90 43 57 98 100 100 100 95 100 100 96 99 97 98 95 97 100 97 91 92 97 90
90 83 97 96 94 84 56 31 19 12 7 5 5 8 21 36 42 49 54 52 97 81 83 84 34 74 99 100 100 88 84 96 100 94 97 99 96 97 96 96 84 87 92 82 85
93 95 97 96 89 84 50 28 15 9 6 5 5 6 20 27 36 39 49 78 100 81 67 79 36 83 100 100 99 69 59 78 97 100 97 96 99 92 96 96 98 84 90 88 70
96 96 97 93 94 83 42 24 14 8 5 4 4 7 19 22 32 36 54 71 79 90 63 60 46 90 100 100 100 91 50 77 91 96 97 99 100 100 93 100 99 98 95 99 87
97 97 96 97 94 74 37 18 12 7 5 4 3 5 16 19 26 29 50 50 99 100 97 100 83 98 100 100 100 100 81 82 100 100 92 98 92 88 99 100 99 98 99 98 99
96 96 96 95 93 65 29 16 11 7 5 3 3 5 13 17 28 32 36 42 90 100 99 100 99 91 99 100 100 100 97 100 91 83 88 79 93 93 88 98 89 89 99 97 94
95 96 96 95 85 49 22 15 10 6 4 3 4 4 12 16 26 44 45 37 61 88 73 79 67 79 99 98 97 100 82 90 80 75 77 77 74 74 80 94 94 83 88 96 94
96 96 95 95 69 37 19 15 9 6 4 3 3 4 10 16 24 44 63 48 51 81 88 93 53 41 55 64 79 100 99 79 72 81 61 64 57 54 62 71 96 96 96 93 95
96 96 96 73 57 27 18 14 9 7 5 4 4 4 9 17 26 41 56 52 45 70 77 70 73 28 36 31 46 66 100 100 85 84 85 88 81 77 71 62 81 94 96 94 91
97 94 95 67 44 23 18 13 9 8 6 4 4 5 8 16 32 50 52 37 42 54 64 69 75 70 63 66 82 58 48 80 94 96 95 86 90 71 62 57 69 74 76 78 72
96 97 87 62 35 22 18 13 10 8 6 5 4 5 7 16 20 35 53 29 34 36 42 69 71 82 61 57 80 66 70 78 85 52 50 48 53 60 63 55 46 54 58 59 55
96 97 75 59 32 22 18 14 11 9 7 6 5 5 7 17 21 27 40 23 29 30 28 36 28 47 79 77 91 94 64 61 61 46 60 57 51 48 40 34 35 34 38 48 57
97 94 71 52 32 23 18 14 12 10 8 7 6 5 6 12 25 25 37 37 20 24 28 25 26 26 38 71 68 79 90 78 74 79 76 69 61 51 51 48 43 34 35 35 45
98 87 69 46 32 23 18 15 13 10 9 8 7 6 5 9 20 31 36 49 39 21 21 18 31 33 50 57 65 72 78 77 95 87 89 76 58 47 61 51 42 31 41 45 42
98 82 64 47 32 23 18 16 14 11 10 9 8 7 5 6 12 28 37 44 41 39 37 36 42 41 43 46 51 60 70 75 72 77 86 97 95 72 95 94 70 74 84 71 67

GFSSW_500_rhum_108.txt.gz
RH
76 64 49 33 39 50 65 62 62 58 51 47 45 39 34 27 14 8 8 7 6 5 4 4 5 10 30 42 38 36 38 22 14 14 17 96 70 99 99 97 97 99 86 76 70
92 83 64 34 40 62 73 66 65 62 54 53 43 39 32 18 10 9 8 6 5 4 5 6 9 17 37 57 58 52 40 29 18 14 16 34 99 94 100 97 98 73 89 88 75
96 95 84 69 87 70 87 75 72 66 62 53 43 39 25 13 10 9 7 6 5 5 8 11 17 34 50 75 79 68 53 46 29 17 15 27 86 100 99 97 89 86 90 100 71
96 97 95 88 92 88 86 84 76 71 68 48 44 33 17 11 10 7 6 6 6 8 14 18 27 48 56 60 63 59 55 56 38 25 16 17 45 98 98 86 97 73 89 93 63
97 96 96 93 95 77 93 90 76 76 60 49 43 24 13 12 8 6 6 7 8 17 24 32 39 49 54 48 42 31 30 32 45 30 20 15 47 97 97 92 94 93 79 84 71
97 96 97 91 73 88 93 91 77 78 55 50 36 17 13 10 6 6 8 10 18 34 41 48 53 59 51 48 41 31 30 34 31 37 21 14 42 94 93 94 74 96 77 73 90
95 97 96 97 89 92 93 88 83 73 59 50 25 15 12 8 6 9 10 18 38 54 57 62 62 57 60 55 54 43 70 83 54 38 24 38 36 86 93 98 81 88 91 73 80
78 97 97 97 95 88 91 91 89 69 62 43 20 14 8 6 7 10 14 38 64 62 48 45 42 66 72 58 71 98 100 90 80 41 34 28 27 97 97 96 98 89 90 89 77
86 97 99 96 95 90 91 86 87 71 57 34 16 9 7 6 10 13 26 61 64 46 46 52 76 94 96 78 92 100 87 86 78 54 82 20 36 96 99 97 66 92 80 95 85
98 98 95 98 95 85 92 92 85 70 46 22 12 7 6 7 11 16 48 58 57 51 59 63 86 68 72 79 100 95 100 100 94 100 38 18 38 99 97 96 98 94 75 91 86
99 98 95 94 94 93 92 97 80 59 30 15 8 6 5 8 11 29 36 51 59 61 79 72 96 70 69 88 96 98 100 100 99 100 58 30 74 98 98 98 100 88 67 86 89
97 98 96 98 94 92 89 93 67 42 21 11 7 5 6 10 15 23 36 47 56 82 99 70 96 62 64 90 95 100 100 85 87 100 90 49 93 96 98 99 99 95 74 90 91
99 98 99 96 97 93 96 79 57 28 14 8 5 5 8 11 13 25 41 53 85 100 78 75 88 47 63 99 100 100 100 100 84 100 98 82 99 98 98 97 98 79 64 78 97
99 97 98 95 94 96 97 75 44 18 10 6 5 6 8 11 13 38 40 64 53 87 67 90 62 51 86 100 100 99 100 97 92 99 100 99 100 99 97 98 100 97 91 82 88
99 97 97 94 94 97 92 68 35 14 8 5 5 6 8 11 18 40 40 71 59 80 70 66 48 59 98 100 100 100 95 97 100 96 100 100 97 94 98 99 97 98 99 93 93
99 89 94 93 97 96 91 60 22 10 6 4 4 5 8 15 26 37 37 93 80 100 100 50 79 97 100 100 88 88 90 84 95 100 100 97 100 99 99 96 97 89 92 99 93
97 98 95 97 96 96 92 44 17 8 6 4 4 4 7 17 33 40 45 70 57 100 100 93 99 100 100 100 90 50 63 87 84 93 95 96 99 99 92 98 99 89 97 85 99
98 97 98 96 96 95 81 28 12 7 5 4 4 4 7 19 37 39 48 66 61 93 100 100 84 99 96 100 100 48 44 76 88 80 71 95 100 97 94 95 90 79 94 97 88
98 84 98 96 96 94 52 19 10 7 5 4 4 4 6 22 33 36 39 61 64 67 78 83 96 97 98 99 100 70 56 93 100 84 69 76 69 97 94 92 96 96 98 97 99
98 94 98 96 98 73 32 13 9 6 5 4 4 4 5 19 30 32 33 74 78 48 52 51 66 62 90 85 100 99 96 96 87 83 66 61 56 62 76 83 82 100 98 98 96
97 96 97 96 96 53 21 12 9 6 5 4 4 4 5 13 26 21 23 51 73 51 39 35 46 62 81 48 98 93 69 59 74 62 51 50 67 52 62 69 67 79 97 98 98
96 98 96 94 77 32 16 11 8 7 6 5 4 4 5 9 25 17 18 35 53 52 49 35 31 38 47 62 74 88 100 91 80 80 81 61 57 45 49 58 66 71 91 100 100
99 97 96 85 52 23 16 11 8 7 6 6 5 5 5 8 20 19 15 29 38 45 59 62 25 24 35 50 64 56 66 100 100 100 100 100 98 88 89 84 72 89 82 83 94
96 95 96 76 35 20 15 11 9 8 7 6 6 5 5 7 15 28 16 21 25 27 26 29 52 56 24 44 50 66 67 77 85 64 92 74 66 72 62 66 76 92 100 95 88
97 97 94 67 28 20 15 12 10 8 8 7 6 6 6 6 13 25 27 17 19 22 24 22 32 29 57 84 89 76 74 66 52 51 46 42 39 48 49 68 59 49 49 58 63
96 97 93 50 26 20 16 13 10 9 9 8 7 6 6 6 8 20 30 26 16 18 20 21 29 31 39 54 54 50 63 69 63 54 42 46 55 47 37 33 37 42 43 34 38
96 96 82 42 25 20 16 14 12 9 10 10 8 8 6 6 7 11 23 36 33 34 27 24 26 38 48 50 56 58 58 66 66 63 70 51 56 57 49 42 36 32 31 27 24

GFSSW_500_rhum_111.txt.gz
RH
100 95 98 93 88 82 81 56 60 78 90 76 66 63 58 54 44 41 29 17 10 10 8 5 4 3 3 4 4 5 6 6 15 22 24 23 14 73 95 73 100 91 73 84 100
82 99 92 97 93 90 84 64 66 90 92 91 76 65 64 52 45 34 20 12 11 8 5 4 4 4 5 8 10 14 21 20 38 37 29 30 17 22 80 94 98 95 72 72 99
34 96 95 97 97 96 95 81 90 94 90 86 77 68 63 51 42 24 14 12 8 6 5 4 5 8 12 14 20 33 24 49 54 48 41 30 18 22 100 100 82 98 70 69 86
13 87 98 97 96 98 98 95 97 93 94 89 77 73 58 52 34 16 13 8 6 6 5 6 13 21 24 27 49 50 49 63 70 61 46 29 17 15 72 98 87 97 66 67 90
18 28 79 97 98 97 94 97 92 94 96 85 80 71 59 42 23 14 9 6 6 6 7 17 31 42 43 42 58 57 60 56 65 69 52 33 20 24 61 99 100 98 76 61 74
70 91 95 90 98 96 97 79 90 96 94 79 84 66 54 33 16 10 7 6 6 7 16 37 57 63 60 64 64 62 56 42 41 44 58 37 19 26 30 99 98 81 90 64 80
73 84 80 74 95 98 94 87 96 96 86 84 81 64 46 21 11 7 7 7 6 14 31 54 60 53 44 41 38 51 58 50 39 29 41 42 24 16 24 86 98 94 83 70 78
20 86 99 88 93 97 97 95 96 95 86 92 77 60 30 13 8 8 8 7 8 18 37 52 48 48 54 49 53 61 60 50 46 41 34 45 19 21 20 92 96 100 84 76 86
22 37 95 84 98 96 97 98 93 90 94 93 73 39 17 9 8 8 7 6 14 26 44 57 59 75 72 78 88 84 66 56 52 61 51 41 21 22 16 74 97 76 66 96 86
20 45 59 99 97 96 96 96 91 95 96 90 50 25 10 7 8 8 6 13 25 43 57 75 88 97 84 78 72 95 70 69 78 100 95 38 30 22 17 95 100 93 76 75 92
14 35 98 94 98 97 97 95 86 98 96 60 30 11 7 7 9 7 12 28 42 54 74 100 100 76 97 65 68 73 83 98 66 95 75 52 49 28 29 85 96 97 58 70 87
16 13 60 100 98 98 93 94 97 89 67 36 14 8 6 8 8 11 25 36 65 67 78 96 64 83 63 70 73 75 100 78 77 87 96 67 100 29 51 92 98 91 59 60 74
12 11 86 99 95 98 96 96 98 75 47 22 8 6 7 9 11 19 32 57 70 83 87 64 56 64 85 97 100 90 100 100 100 100 82 90 100 66 79 98 99 100 80 54 58
8 11 26 99 93 98 96 97 93 58 26 11 6 7 8 8 17 26 40 66 69 51 62 44 61 100 89 97 100 100 94 84 100 100 96 73 48 99 85 97 99 89 92 62 49
8 8 24 99 98 97 97 96 82 30 17 7 5 7 8 13 24 35 43 75 99 49 48 54 55 98 81 100 99 100 98 70 88 100 100 64 80 70 77 92 94 93 93 70 48
7 8 59 100 98 97 97 96 34 23 9 6 5 8 10 23 26 44 46 84 98 70 61 92 97 100 100 98 91 86 100 80 85 100 100 100 100 91 93 99 99 100 98 94 50
7 8 44 99 98 97 97 54 27 13 6 5 7 8 13 23 28 36 52 69 70 75 97 100 97 88 84 52 90 97 73 98 96 100 100 99 87 91 92 98 100 99 97 98 61
7 8 55 98 97 98 93 30 14 8 5 6 7 8 14 19 26 30 49 65 63 87 88 81 98 100 100 61 38 57 99 97 88 100 100 100 98 93 78 89 95 93 98 86 97
7 94 86 97 98 98 61 18 9 6 5 6 6 7 12 17 25 25 49 48 45 63 69 81 95 86 96 98 58 54 100 99 82 92 82 91 97 90 93 97 98 99 100 100 91
51 81 95 98 98 96 29 13 8 6 5 6 5 5 12 13 18 26 31 36 34 41 42 49 54 80 99 82 79 97 100 99 99 70 71 87 86 91 82 99 96 96 86 98 80
97 85 98 98 97 58 18 9 7 5 6 6 5 5 10 13 16 23 31 32 27 29 31 31 42 77 75 96 100 100 100 92 89 75 51 64 62 69 64 87 94 91 94 97 95
62 99 98 98 97 32 14 8 6 6 6 6 5 5 7 14 12 17 29 40 55 53 35 30 32 46 51 90 100 97 100 100 94 65 66 54 65 67 57 67 79 94 96 99 97
96 99 97 97 66 20 11 8 6 6 6 6 5 5 5 9 14 18 22 30 33 44 61 33 24 25 24 58 73 87 97 98 100 74 85 86 96 100 96 63 63 67 72 87 95
98 96 96 100 35 16 9 8 7 7 6 6 6 5 6 7 17 19 18 26 26 25 30 48 46 26 25 37 49 68 98 90 96 98 100 93 91 85 100 88 67 60 56 57 96
97 97 98 66 22 13 9 8 7 7 7 6 6 6 6 6 8 18 18 27 25 21 25 30 27 44 67 82 53 56 64 63 72 76 81 64 81 75 65 80 84 86 77 64 57
97 99 89 35 19 12 10 8 8 8 8 7 6 6 6 6 6 10 20 21 18 16 19 20 26 40 46 59 53 52 55 54 49 43 45 44 36 42 47 66 66 61 65 85 82
96 97 61 26 17 12 10 9 9 9 9 8 7 7 7 7 7 6 10 26 27 24 18 24 28 33 43 42 46 50 55 51 56 51 44 44 38 34 29 28 38 48 56 54 47

GFSSW_500_rhum_114.txt.gz
RH
16 18 10 24 97 98 98 89 87 81 74 71 56 66 73 82 92 79 67 58 50 43 31 17 12 10 7 5 4 4 3 2 2 3 4 6 7 10 14 12 10 23 98 73 62
23 21 17 22 77 98 96 96 95 83 84 84 71 70 84 94 93 77 71 59 49 37 18 13 10 7 5 4 4 4 3 3 5 5 6 11 15 21 22 15 13 34 88 92 63
26 16 12 29 44 96 97 97 98 95 96 94 83 88 93 95 92 80 70 58 43 21 14 10 7 5 4 4 5 5 5 9 9 10 10 19 23 34 42 17 14 28 76 99 78
31 24 25 22 23 92 96 98 96 96 97 98 98 94 97 94 85 79 67 54 30 15 10 7 5 4 4 4 8 8 18 20 18 22 30 39 41 31 52 23 46 71 95 100 81
22 34 35 65 68 92 91 98 97 97 97 99 94 96 97 95 90 84 65 35 17 10 7 6 5 4 5 9 27 29 39 41 36 38 56 65 51 35 44 26 65 81 99 96 90
18 26 24 74 86 99 96 96 98 96 77 84 95 97 96 98 88 73 42 20 10 8 6 6 6 7 9 22 44 50 51 57 60 52 66 68 64 54 32 28 24 91 99 87 90
14 22 30 23 100 84 94 95 98 97 92 94 97 97 97 95 83 52 20 10 8 6 5 6 8 13 20 35 43 44 38 40 55 66 60 60 64 47 32 24 40 88 98 84 71
16 15 22 28 78 72 94 98 98 96 97 96 97 96 98 88 60 20 10 8 7 6 7 12 19 24 36 50 53 58 57 47 38 41 62 58 38 51 38 26 27 59 98 62 78
16 16 18 20 22 94 94 99 98 97 97 95 94 98 95 56 22 10 9 8 6 9 16 28 44 51 65 78 77 82 65 76 59 58 61 52 34 39 42 27 19 68 97 61 94
15 15 18 15 21 100 97 97 98 96 96 97 96 94 55 20 10 9 8 8 12 22 35 60 71 66 92 90 68 62 73 84 74 100 87 63 34 36 43 34 18 93 81 53 88
8 11 15 16 22 86 98 98 99 94 96 96 98 69 22 9 9 8 9 13 25 35 50 49 62 56 46 47 61 66 65 68 71 91 67 69 52 40 51 32 22 98 87 63 73
14 8 12 15 15 30 100 98 98 95 98 97 66 23 9 9 9 10 14 25 41 50 22 39 38 53 82 99 100 84 87 97 100 87 42 92 80 38 55 30 41 90 100 93 82
12 9 10 13 14 17 64 96 97 98 97 71 29 9 8 10 10 14 21 45 35 22 68 90 79 84 97 100 99 95 100 97 68 65 87 76 61 34 43 17 22 48 81 95 84
10 10 8 13 14 50 96 98 96 98 84 32 10 8 10 10 16 20 38 32 35 44 58 44 55 62 81 96 98 100 100 80 90 99 77 70 96 39 37 19 38 67 82 100 100
11 8 11 12 10 42 92 96 98 98 40 10 6 8 10 12 16 38 38 40 47 48 63 66 72 100 96 92 94 97 99 100 100 100 98 46 100 100 52 43 71 100 100 91 65
12 8 8 9 16 46 73 98 98 64 19 6 7 11 11 13 26 44 47 51 61 77 64 72 72 56 78 75 85 100 98 100 100 100 100 66 100 100 90 82 93 87 100 93 51
16 7 8 9 17 45 97 99 96 24 8 6 8 10 10 16 26 38 45 45 59 67 72 94 100 42 34 78 62 91 76 97 100 100 100 100 89 100 85 60 91 89 100 82 36
16 7 8 8 19 69 98 100 38 11 6 7 9 10 10 16 27 43 33 52 65 65 79 92 80 92 37 47 60 99 94 96 100 100 100 100 100 83 78 86 97 90 92 59 25
13 7 7 10 38 94 99 74 16 6 6 7 9 12 11 21 29 35 51 44 53 42 44 82 96 85 28 46 88 95 96 95 100 97 100 100 100 94 77 93 96 92 99 99 40
17 8 7 22 84 96 99 29 8 6 6 7 8 13 12 23 31 30 34 34 33 42 32 51 79 71 47 92 98 100 79 76 86 93 99 100 95 89 85 91 99 99 94 97 71
13 7 10 66 96 99 91 11 6 6 6 6 8 12 11 18 25 42 46 46 40 28 26 33 45 97 98 100 100 97 100 95 86 76 94 94 99 88 91 92 99 98 98 90 98
10 7 30 96 98 99 23 7 6 6 5 6 8 9 12 13 23 42 35 40 49 43 31 30 36 80 100 88 95 100 95 94 76 92 75 62 86 74 71 80 97 97 100 99 94
7 13 80 99 99 49 10 6 6 6 6 6 7 8 11 14 17 28 35 26 30 49 64 37 32 50 86 100 86 100 100 100 94 100 92 49 72 70 61 54 88 94 98 98 100
7 50 95 99 98 21 7 6 6 6 6 6 7 7 9 12 17 18 29 31 22 36 53 42 69 63 55 72 98 96 99 99 100 98 97 73 49 49 49 51 53 78 93 98 98
38 89 98 100 45 9 7 6 6 6 6 7 7 6 7 9 14 17 23 27 23 23 32 50 59 82 75 63 86 65 69 71 100 73 74 69 78 56 47 56 48 46 53 86 92
67 99 100 74 13 8 7 7 7 6 7 7 7 7 7 7 9 15 18 19 17 17 18 36 43 57 65 68 58 59 49 43 46 51 55 44 63 63 67 81 84 75 68 47 56
92 100 96 30 9 8 7 8 8 7 7 7 8 8 8 7 7 7 11 22 24 20 19 26 32 42 44 49 47 47 43 45 38 24 26 25 25 26 30 45 62 63 58 61 62

GFSSW_500_rhum_117.txt.gz
RH
15 20 20 18 15 20 21 22 61 98 91 90 65 54 56 58 62 60 61 62 70 79 83 70 59 53 47 39 25 15 12 10 8 6 4 4 4 3 2 2 2 3 3 2 6
20 24 22 24 23 22 22 28 52 93 97 89 84 80 80 86 84 72 72 72 75 81 83 71 64 54 45 28 16 12 10 8 6 5 4 4 3 3 2 2 2 3 3 2 33
26 27 23 25 33 70 26 37 45 96 96 98 98 96 87 94 83 81 78 81 90 89 86 74 62 52 35 18 12 9 7 5 4 4 3 3 2 3 3 2 3 3 5 5 11
29 28 24 31 29 30 29 39 41 100 96 96 98 98 95 94 93 89 89 97 96 94 90 72 58 41 20 13 9 6 5 4 4 3 3 3 3 4 5 3 5 7 7 11 35
30 29 24 28 25 27 56 49 100 100 97 97 98 98 100 94 91 94 99 98 97 94 85 67 42 19 11 7 5 4 4 4 4 4 4 6 7 13 12 12 17 14 10 18 28
32 28 22 19 21 25 57 100 88 90 92 98 98 98 97 85 90 96 97 98 97 94 67 29 12 7 5 4 4 4 4 5 6 8 14 24 24 31 26 28 29 25 10 14 27
32 28 17 20 15 22 26 21 38 66 97 98 97 86 79 83 92 95 97 96 95 52 19 8 6 5 5 5 6 8 10 12 12 20 27 47 41 41 35 53 51 35 30 16 52
28 32 16 15 16 18 19 59 99 90 96 98 98 98 97 94 98 98 97 77 33 11 7 5 5 6 8 14 19 26 32 28 32 47 39 45 32 48 57 61 57 30 47 20 84
24 28 23 19 15 16 19 16 41 97 100 97 97 97 98 98 97 86 35 14 8 6 6 6 7 12 17 22 33 48 56 72 52 61 55 65 45 44 59 54 60 33 42 26 59
15 12 19 19 21 16 17 19 30 98 100 98 98 98 98 97 63 20 10 8 8 8 7 9 12 16 17 28 30 42 68 65 82 68 65 100 74 59 50 40 52 41 38 36 88
33 23 15 12 13 16 16 18 45 94 100 100 98 99 97 37 12 11 11 10 9 8 10 11 10 14 25 45 58 56 53 42 61 92 90 96 97 62 46 35 39 39 33 43 83
33 32 23 15 10 12 16 16 17 32 95 96 99 90 30 14 12 14 11 10 15 21 24 29 46 45 53 66 79 91 95 91 61 63 74 84 84 79 47 64 53 43 31 56 83
48 40 17 16 8 13 14 15 13 27 89 100 95 33 15 13 16 13 12 22 28 26 35 38 47 63 91 96 95 100 100 100 100 100 90 60 66 49 30 55 84 68 40 70 87
51 74 77 49 16 10 12 14 15 54 99 96 35 14 14 19 16 14 23 28 33 31 34 52 77 56 64 81 89 94 100 98 77 90 51 59 70 19 23 45 59 48 22 36 82
51 32 72 100 100 55 22 13 20 95 98 54 14 11 21 18 12 26 34 38 39 47 44 38 41 64 63 62 79 90 97 95 96 87 100 100 100 67 34 46 42 35 30 32 73
55 30 18 100 51 53 25 14 56 96 80 20 9 16 20 14 20 38 40 37 50 60 73 99 73 35 49 54 87 100 100 100 100 84 91 100 100 100 90 71 32 33 67 61 81
51 38 33 66 72 20 12 41 94 100 35 12 10 22 17 15 30 48 42 38 50 63 88 79 99 30 51 58 71 93 98 100 100 90 89 100 100 100 100 84 100 77 69 79 84
52 34 14 11 12 11 39 91 100 89 14 8 15 17 13 21 36 44 33 48 39 46 69 100 91 44 48 62 68 89 100 100 100 100 88 93 96 100 100 100 74 71 93 93 86
50 23 10 8 8 15 69 98 100 34 8 10 12 19 18 27 33 38 39 33 37 39 41 92 45 30 97 67 77 79 82 100 100 100 100 100 100 100 100 100 81 88 96 82 73
35 18 8 8 13 35 85 100 70 11 8 10 11 19 24 36 41 37 32 33 31 28 36 95 57 86 100 100 94 48 53 78 99 100 100 100 100 100 99 98 87 97 96 46 35
22 12 8 12 23 51 92 100 32 8 9 11 13 15 22 41 42 50 55 50 35 24 28 58 93 100 100 96 99 82 57 76 99 90 100 100 100 100 99 99 100 90 78 46 29
16 9 8 9 37 72 96 64 10 7 9 10 13 12 17 39 33 30 32 40 55 35 28 58 99 82 90 100 93 76 72 93 93 100 98 100 100 99 100 100 100 100 99 89 46
11 8 8 35 68 94 78 15 8 7 8 10 11 15 14 25 33 33 29 24 53 36 31 49 84 100 62 100 99 85 87 100 100 100 80 68 86 80 76 95 100 100 100 97 100
9 19 32 82 100 93 23 8 7 7 8 9 10 12 18 17 22 30 29 22 45 40 60 56 80 100 76 99 100 100 100 100 100 100 86 45 46 53 58 93 97 99 98 97 98
23 56 63 98 100 34 9 7 7 7 7 8 8 9 14 22 20 20 27 23 24 52 64 56 74 100 83 68 83 100 84 80 90 88 82 64 65 70 57 65 93 95 97 100 98
57 61 94 100 65 10 7 7 7 8 8 8 7 8 10 13 18 21 24 21 17 33 53 62 62 72 72 58 44 59 61 66 49 62 66 64 68 75 76 69 51 56 75 94 95
53 76 100 87 22 7 7 7 7 8 8 8 8 8 8 8 10 16 24 26 20 24 36 52 52 49 49 53 54 53 44 30 33 28 27 26 35 35 45 55 53 49 36 41 52

GFSSW_500_rhum_120.txt.gz
RH
16 19 19 16 16 15 22 23 20 19 19 21 21 80 96 94 84 78 73 78 71 69 57 60 61 62 58 64 78 73 55 48 46 41 34 26 21 16 15 14 9 5 4 4 3
22 23 23 16 18 19 28 24 26 87 33 22 32 85 97 96 98 96 96 87 76 72 68 66 66 66 71 76 78 71 60 53 46 38 30 20 15 14 12 9 6 5 4 4 3
30 30 21 19 20 24 28 24 30 83 40 34 28 94 91 96 91 94 95 82 84 82 83 80 74 74 83 84 78 73 62 54 43 31 20 17 14 11 9 7 6 5 4 3 2
40 29 21 19 19 28 30 29 27 26 37 45 90 97 99 98 95 94 92 89 84 85 83 80 88 96 96 89 85 72 62 51 38 26 18 13 11 9 8 6 5 4 3 3 2
39 25 19 20 21 33 33 28 27 24 86 97 98 95 96 92 95 100 95 95 88 88 91 95 96 96 92 88 84 76 59 46 34 22 14 9 8 6 5 4 4 3 3 3 2
28 25 20 23 24 36 25 23 23 18 65 61 69 75 94 94 98 100 98 96 97 96 98 96 94 92 86 87 75 45 32 20 12 7 5 5 4 4 3 3 3 3 3 2 3
27 23 21 26 30 37 19 20 17 14 30 52 100 98 96 100 98 94 84 90 97 97 95 96 94 87 52 28 16 10 8 5 4 4 4 5 4 3 3 3 4 4 3 4 4
24 21 22 30 31 27 43 18 18 16 18 67 95 95 98 98 99 100 99 98 98 96 85 67 29 10 9 7 5 4 4 4 4 5 6 9 5 4 6 11 14 10 9 11 10
22 20 21 21 17 18 20 16 14 17 15 23 51 77 99 99 100 100 100 98 83 53 21 10 7 6 5 4 4 6 4 4 4 6 11 14 25 8 15 23 32 24 31 31 20
20 19 16 21 20 13 19 20 18 17 16 18 38 94 99 100 100 98 91 49 17 11 8 6 6 6 6 6 7 9 15 20 14 11 25 12 14 22 58 66 47 30 53 48 28
30 38 40 36 32 23 14 19 23 21 16 16 45 97 99 100 98 43 23 16 12 10 10 11 14 16 25 36 37 42 59 57 72 45 22 43 35 56 70 67 54 55 53 47 43
49 49 39 35 39 37 14 15 18 18 16 22 73 95 100 99 36 25 16 15 16 19 28 38 41 46 60 63 61 63 69 91 90 99 74 54 56 95 65 66 64 52 41 50 52
64 51 68 49 41 67 13 17 48 13 14 38 79 100 92 35 29 18 17 19 22 26 33 38 36 36 43 47 52 64 46 72 61 100 89 48 58 69 68 51 45 39 56 46 48
72 63 100 40 20 69 84 100 28 14 35 76 100 60 30 31 21 18 25 24 30 37 34 46 33 38 40 44 50 66 56 68 70 64 64 64 90 100 60 33 29 66 100 90 48
65 68 97 100 100 99 100 94 22 27 72 91 94 30 31 23 20 27 26 33 48 66 81 85 68 35 34 45 54 70 74 97 100 70 71 96 100 70 29 31 47 56 94 93 82
56 70 69 100 99 100 100 85 47 76 77 100 57 25 29 19 26 26 28 46 59 71 97 99 84 32 31 35 56 66 94 100 100 76 94 100 100 100 71 86 48 41 62 72 62
65 69 40 89 100 100 100 49 63 62 100 77 35 30 17 24 34 26 38 37 40 48 86 97 64 40 36 55 71 94 98 100 99 86 100 100 100 100 100 100 92 53 28 35 48
86 52 39 61 100 89 52 63 53 100 100 88 28 20 19 25 31 34 38 43 38 37 98 75 43 54 43 50 83 100 100 100 100 100 100 100 100 100 94 95 95 78 63 80 58
71 42 100 54 83 48 39 55 100 100 64 22 28 17 24 30 32 36 28 29 29 49 99 60 98 100 72 41 66 100 100 100 84 93 100 100 100 100 100 100 98 88 100 100 45
45 32 18 20 33 29 36 81 100 100 45 24 23 19 39 39 31 33 32 28 30 54 86 91 98 90 76 42 44 78 100 100 100 100 99 100 99 100 100 100 100 100 93 79 66
33 14 11 10 17 29 73 100 96 46 16 28 21 27 45 48 47 48 32 24 24 40 83 75 92 100 93 70 46 58 99 100 92 98 100 95 100 100 100 100 100 89 67 54 50
15 10 8 10 29 56 90 98 70 17 17 17 22 29 36 30 26 29 47 40 27 41 97 62 78 100 100 76 68 86 82 99 94 100 98 97 100 100 100 100 100 100 97 96 39
11 9 10 26 44 65 82 64 18 11 15 16 22 19 37 33 31 27 33 53 27 32 71 73 57 91 100 93 80 95 87 99 100 100 98 94 100 100 100 99 99 100 99 68 69
10 12 33 29 60 79 68 13 9 10 12 17 22 16 22 31 32 27 26 45 57 50 67 84 82 96 98 100 100 100 100 100 100 98 100 100 100 98 98 99 99 99 99 97 100
14 25 39 76 89 59 16 8 9 10 12 14 17 24 21 19 24 27 22 34 58 46 57 98 78 84 100 85 87 86 83 88 94 91 83 90 91 89 95 98 100 98 97 97 100
19 34 84 91 53 13 8 8 9 9 9 9 11 13 19 24 21 25 24 20 46 49 54 74 66 55 57 97 78 59 67 75 58 59 62 64 62 70 56 51 68 100 96 96 97
48 70 78 35 13 8 8 9 9 9 8 8 8 9 10 12 23 28 27 22 31 45 45 48 51 51 48 60 59 55 54 35 31 29 34 32 36 44 51 45 35 45 49 89 92